     2              OBSERVATION DATA    GPS                 RINEX VERSION / TYPE
teqc 1997Jul24 19970813                                     PGM / RUN BY / DATE
                                                            COMMENT
BIT 2 OF LLI FLAGS DATA COLLECTED UNDER A-S CONDITION       COMMENT
BIT 2 OF LLI FLAGS DATA COLLECTED UNDER A-S CONDITION       COMMENT
Original Marker Name: 55487.PINY                            COMMENT
Campaign Name: TREX12                                       COMMENT
4-Character Station Name: PINY                              COMMENT
6-Character Antenna Code: TI4100                            COMMENT
Vertical Measurement Point: PAE                             COMMENT
Vertical Offset to Rinex Ref. Point: 0.0000                 COMMENT
Radial Measurement Point: RRP                               COMMENT
Radial Offset to Rinex Ref. Point: 0.0000                   COMMENT
Antenna Height from Field Measurement: 1.7215 m             COMMENT
Original XYZ: -2369462.6557 -4761406.6772 3511145.1533      COMMENT
New XYZ position is based on association with SCEC monument COMMENT
E1D0K5S1+0011. Position of that monument is believed to be  COMMENT
valid to within 1 m horizontally; vertical accuracy         COMMENT
should be no worse than 3-times this value.                 COMMENT
                                                            COMMENT
Revised Rinex header created by UCSD GPS archive for        COMMENT
GSAC on 28-May-1999 (1999:148) 21:13:45 GMT                 COMMENT
For assistance contact dagnew@ucsd.edu or hjohnson@ucsd.edu COMMENT
                                                            COMMENT
PINYON FLAT NCMN 1981                                       MARKER NAME
5 NATIONAL GEODETIC SURVEY                                  OBSERVER / AGENCY
UT04 TI 4100 1.5                                            REC # / TYPE / VERS
108 TI 4100                                                 ANT # / TYPE
 -2369636.0000 -4761325.0000  3511116.0000                  APPROX POSITION XYZ
        1.7215        0.0000        0.0000                  ANTENNA: DELTA H/E/N
     1     1     0                                          WAVELENGTH FACT L1/2
     4    P1    P2    L1    L2                              # / TYPES OF OBSERV
    30                                                      INTERVAL
  1988     3    30     2    28   29.000000                  TIME OF FIRST OBS
  1988     3    30     7    59   59.000000                  TIME OF LAST OBS
     0                                                      # OF SATELLITES
                                                            END OF HEADER
 88  3 30  2 28 29.0800000  0  3G 6G 8G11
  21718390.305    21718395.498      589035.342 8   -897436.012 8
  20692753.594    20692758.595      599623.505 8   -836780.697 7
  23345717.469    23345725.883      353127.283 8  -1022385.909 7
 88  3 30  2 28 59.0800000  0  3G 6G 8G11
  21707282.825    21707286.731      530654.148 8   -942927.826 9
  20682343.742    20682348.444      544912.145 8   -879412.887 7
  23325380.419    23325387.559      246249.710 8  -1105667.026 8
 88  3 30  2 29 29.0800000  0  3G 6G 8G11
  21696189.198    21696193.146      472368.700 9   -988345.024 9
  20672052.093    20672058.275      490834.330 8   -921551.400 8
  23305080.049    23305089.607      139580.437 7  -1188785.799 7
 88  3 30  2 29 59.0800000  0  3G 6G 8G11
  21685115.772    21685122.459      414179.562 8  -1033687.150 8
  20661882.531    20661887.836      437391.377 9   -963195.208 7
  23284823.829    23284830.767       33121.474 8  -1271740.728 8
 88  3 30  2 30 29.0800000  0  3G 6G 8G11
  21674061.833    21674067.972      356088.361 8  -1078952.957 9
  20651833.730    20651838.646      384585.291 9  -1004342.769 8
  23264605.283    23264611.507      -73124.201 7  -1354529.468 7
 88  3 30  2 30 59.0800000  0  3G 6G 8G11
  21663029.166    21663031.593      298096.814 9  -1124141.131 8
  20641907.121    20641911.361      332418.171 9  -1044992.428 7
  23244428.511    23244434.783     -179153.622 7  -1437149.676 8
 88  3 30  2 31 29.0800000  0  3G 6G 8G11
  21652010.088    21652013.759      240206.338 8  -1169250.575 8
  20632101.329    20632106.610      280892.049 9  -1085142.617 8
  23224293.885    23224299.812     -284964.301 9  -1519599.437 8
 88  3 30  2 31 59.0800000  0  3G 6G 8G11
  21641012.498    21641018.037      182418.870 9  -1214279.731 8
  20622419.990    20622424.163      230009.226 8  -1124791.525 8
  23204198.975    23204207.894     -390552.719 7  -1601876.013 8
 88  3 30  2 32 29.0800000  0  3G 6G 8G11
  21630038.947    21630042.030      124735.723 9  -1259227.569 9
  20612859.913    20612864.661      179771.142 8  -1163938.037 8
  23184149.607    23184158.234     -495916.381 8  -1683977.460 8
 88  3 30  2 32 59.0800000  0  3G 6G 8G11
  21619082.863    21619085.647       67158.547 9  -1304092.861 9
  20603422.175    20603426.448      130179.409 9  -1202580.909 7
  23164143.482    23164150.520     -601052.031 7  -1765901.247 8
 88  3 30  2 33 29.0800000  0  3G 6G 8G11
  21608143.599    21608148.935        9689.091 8  -1348874.237 8
  20594109.161    20594113.226       81236.011 9  -1240718.569 7
  23144180.862    23144189.350     -705957.075 7  -1847645.328 8
 88  3 30  2 33 59.0800000  0  3G 6G 8G11
  21597229.896    21597233.727      -47671.445 9  -1393570.725 9
  20584918.668    20584923.865       32942.916 9  -1278349.517 8
  23124262.580    23124270.210     -810628.608 8  -1929207.446 8
 88  3 30  2 34 29.0800000  0  3G 6G 8G11
  21586336.336    21586340.269     -104921.279 9  -1438180.957 8
  20575852.583    20575858.325      -14698.325 9  -1315472.528 9
  23104387.799    23104396.516     -915063.824 7  -2010585.397 8
 88  3 30  2 34 59.0800000  0  3G 6G 8G11
  21575462.978    21575467.489     -162058.213 9  -1482703.247 9
  20566911.791    20566916.785      -61685.253 9  -1352085.670 8
  23084560.528    23084568.297    -1019259.609 8  -2091776.827 8
 88  3 30  2 35 29.0800000  0  3G 6G 8G11
  21564610.121    21564615.717     -219081.586 9  -1527137.020 8
  20558095.173    20558100.693     -108017.070 9  -1388188.352 8
  23064779.687    23064785.496    -1123213.685 7  -2172779.887 8
 88  3 30  2 35 59.0800000  0  3G 6G 8G11
  21553782.760    21553786.940     -275989.489 8  -1571480.792 8
  20549403.513    20549408.769     -153692.344 9  -1423779.427 8
  23045043.257    23045049.762    -1226923.216 7  -2253592.383 8
 88  3 30  2 36 29.0800000  0  3G 6G 8G11
  21542976.391    21542979.930     -332779.671 9  -1615732.860 9
  20540837.258    20540841.825     -198708.864 8  -1458857.198 8
  23025355.139    23025362.506    -1330384.666 8  -2334211.609 7
 88  3 30  2 36 59.0800000  0  3G 6G 8G11
  21532191.155    21532194.658     -389450.940 9  -1659892.253 9
  20532397.073    20532401.013     -243064.974 8  -1493420.365 7
  23005715.120    23005722.492    -1433595.727 7  -2414635.712 7
 88  3 30  2 37 29.0800000  0  3G 6G 8G11
  21521429.216    21521434.211     -446001.870 9  -1703957.900 8
  20524081.177    20524085.492     -286759.867 9  -1527468.305 8
  22986123.197    22986129.268    -1536553.589 7  -2494862.520 8
 88  3 30  2 37 59.0800000  0  3G 6G 8G11
  21510691.399    21510695.044     -502430.332 9  -1747928.092 8
  20515892.046    20515896.855     -329791.735 9  -1560999.585 8
  22966578.786    22966584.761    -1639255.764 7  -2574890.075 7
 88  3 30  2 38 29.0800000  0  3G 6G 8G11
  21499977.655    21499981.243     -558734.868 8  -1791801.732 9
  20507829.865    20507834.851     -372159.044 8  -1594013.035 8
  22947084.871    22947092.713    -1741699.085 8  -2654715.951 8
 88  3 30  2 38 59.0800000  0  3G 6G 8G11
  21489287.511    21489291.501     -614913.518 8  -1835577.247 8
  20499894.687    20499899.681     -413859.790 9  -1626507.086 8
  22927640.001    22927648.657    -1843880.678 9  -2734337.875 7
 88  3 30  2 39 29.0800000  0  3G 6G 8G11
  21478619.269    21478624.916     -670965.132 8  -1879253.793 8
  20492086.890    20492091.669     -454893.074 8  -1658481.032 8
  22908245.950    22908254.473    -1945798.261 8  -2813754.071 8
 88  3 30  2 39 59.0800000  0  3G 6G 8G11
  21467978.813    21467983.478     -726887.359 8  -1922829.537 8
  20484404.897    20484410.029     -495257.239 9  -1689933.597 7
  22888902.552    22888909.495    -2047448.448 8  -2892961.934 8
 88  3 30  2 40 29.0800000  0  3G 6G 8G11
  21457360.586    21457366.606     -782678.193 8  -1966302.885 8
  20476851.775    20476856.774     -534950.711 8  -1720863.543 7
  22869611.399    22869618.604    -2148828.352 8  -2971959.145 8
 88  3 30  2 40 59.0800000  0  3G 6G 8G11
  21446769.291    21446776.148     -838336.294 8  -2009672.773 8
  20469426.372    20469431.282     -573972.250 8  -1751269.902 8
  22850368.894    22850376.109    -2249935.063 8  -3050743.486 8
 88  3 30  2 41 29.0800000  0  3G 6G 8G11
  21436205.048    21436209.776     -893859.759 9  -2052937.769 8
  20462128.495    20462133.629     -612320.837 9  -1781151.885 8
  22831183.838    22831189.380    -2350765.787 8  -3129312.786 8
 88  3 30  2 41 59.0800000  0  3G 6G 8G11
  21425664.156    21425668.998     -949246.819 9  -2096096.473 9
  20454957.659    20454963.724     -649994.786 8  -1810508.164 8
  22812048.555    22812055.328    -2451318.124 8  -3207665.180 8
 88  3 30  2 42 29.0800000  0  3G 6G 8G11
  21415152.052    21415156.748    -1004495.609 9  -2139147.465 9
  20447918.614    20447922.773     -686992.981 9  -1839337.902 8
  22792966.380    22792973.811    -2551589.303 8  -3285798.454 8
 88  3 30  2 42 59.0800000  0  3G 6G 8G11
  21404664.642    21404669.356    -1059604.380 8  -2182089.325 8
  20441007.429    20441010.684     -723314.250 9  -1867640.154 7
  22773940.010    22773947.125    -2651576.615 7  -3363710.547 8
 88  3 30  2 43 29.0800000  0  3G 6G 8G11
  21394202.915    21394208.647    -1114571.326 8  -2224920.676 8
  20434224.768    20434229.271     -758957.245 8  -1895413.893 7
  22754967.671    22754974.300    -2751277.065 7  -3441399.098 8
 88  3 30  2 43 59.0800000  0  3G 6G 8G11
  21383771.568    21383777.356    -1169395.301 8  -2267640.619 9
  20427571.385    20427575.778     -793921.456 8  -1922658.682 7
  22736051.635    22736056.040    -2850688.327 7  -3518862.356 7
 88  3 30  2 44 29.0800000  0  3G 6G 8G11
  21373367.586    21373372.628    -1224073.787 9  -2310247.184 8
  20421047.854    20421052.397     -828205.310 9  -1949373.348 8
  22717187.774    22717196.534    -2949807.614 8  -3596098.087 8
 88  3 30  2 44 59.0800000  0  3G 6G 8G11
  21362989.534    21362993.834    -1278605.110 8  -2352739.130 8
  20414653.526    20414657.848     -861807.725 9  -1975557.005 8
  22698384.589    22698389.162    -3048632.073 8  -3673104.059 8
 88  3 30  2 45 29.0800000  0  3G 6G 8G11
  21352641.121    21352644.961    -1332987.504 9  -2395114.965 9
  20408388.884    20408393.981     -894727.929 9  -2001209.084 7
  22679632.320    22679640.113    -3147158.988 8  -3749878.223 8
 88  3 30  2 45 59.0800000  0  3G 6G 8G11
  21342321.537    21342325.458    -1387218.915 9  -2437373.187 9
  20402254.813    20402258.755     -926964.801 9  -2026328.711 7
  22660941.134    22660947.786    -3245385.347 8  -3826418.151 7
 88  3 30  2 46 29.0800000  0  3G 6G 8G11
  21332031.514    21332034.375    -1441297.481 9  -2479512.307 9
  20396248.948    20396254.282     -958517.306 9  -2050915.042 8
  22642306.882    22642314.222    -3343308.751 7  -3902722.016 8
 88  3 30  2 46 59.0800000  0  3G 6G 8G11
  21321768.966    21321773.973    -1495221.495 9  -2521530.974 8
  20390376.241    20390380.618     -989384.408 9  -2074967.294 8
  22623731.371    22623736.778    -3440926.439 8  -3978787.677 8
 88  3 30  2 47 29.0800000  0  3G 6G 8G11
  21311536.292    21311542.502    -1548989.099 9  -2563427.770 7
  20384632.487    20384636.854    -1019565.131 9  -2098484.723 7
  22605214.203    22605220.674    -3538235.872 8  -4054613.140 7
 88  3 30  2 47 59.0800000  0  3G 6G 8G11
  21301336.466    21301341.164    -1602598.232 8  -2605201.125 8
  20379020.056    20379023.320    -1049058.445 9  -2121466.506 7
  22586754.781    22586763.323    -3635234.193 8  -4130196.182 8
 88  3 30  2 48 29.0800000  0  3G 6G 8G11
  21291164.007    21291169.114    -1656047.163 9  -2646849.628 9
  20373537.894    20373543.322    -1077864.124 9  -2143912.470 8
  22568356.799    22568363.714    -3731918.645 7  -4205534.626 8
 88  3 30  2 48 59.0800000  0  3G 6G 8G11
  21281025.008    21281030.959    -1709333.951 9  -2688371.777 8
  20368188.126    20368189.950    -1105981.489 8  -2165822.076 7
  22550018.725    22550024.690    -3828286.678 9  -4280626.542 8
 88  3 30  2 49 29.0800000  0  3G 6G 8G11
  21270916.851    21270920.845    -1762456.669 8  -2729766.068 8
  20362967.881    20362972.314    -1133409.365 9  -2187194.434 7
  22531741.340    22531748.465    -3924336.049 8  -4355470.124 8
 88  3 30  2 49 59.0800000  0  3G 6G 8G11
  21260839.171    21260842.080    -1815413.394 8  -2771031.026 8
  20357881.087    20357884.130    -1160146.806 8  -2208028.769 7
  22513525.649    22513531.071    -4020063.797 8  -4430063.127 7
 88  3 30  2 50 29.0800000  0  3G 6G 8G11
  21250793.007    21250797.016    -1868202.197 9  -2812165.136 8
  20352923.897    20352927.758    -1186193.210 8  -2228324.652 7
  22495369.601    22495375.338    -4115467.364 8  -4504403.506 7
 88  3 30  2 50 59.0800000  0  3G 6G 8G11
  21240779.953    21240784.227    -1920820.504 8  -2853166.375 8
  20348100.237    20348103.863    -1211547.130 9  -2248080.920 8
  22477277.807    22477284.054    -4210543.196 8  -4578488.505 8
 88  3 30  2 51 29.0800000  0  3G 6G 8G11
  21230799.631    21230804.716    -1973266.616 9  -2894033.441 9
  20343407.497    20343410.737    -1236208.454 8  -2267297.505 7
  22459247.380    22459254.615    -4305289.305 9  -4652316.586 8
 88  3 30  2 51 59.0800000  0  3G 6G 8G11
  21220851.685    21220857.089    -2025538.935 8  -2934765.096 8
  20338845.644    20338849.180    -1260176.961 8  -2285974.243 7
  22441282.180    22441288.356    -4399703.399 7  -4725885.961 8
 88  3 30  2 52 29.0800000  0  3G 6G 8G11
  21210939.798    21210943.901    -2077635.647 9  -2975359.930 8
  20334416.297    20334420.400    -1283451.946 9  -2304110.578 8
  22423379.167    22423385.600    -4493782.807 7  -4799194.534 8
 88  3 30  2 52 59.0800000  0  3G 6G 8G11
  21201060.070    21201064.375    -2129554.549 9  -3015816.180 8
  20330118.352    20330124.639    -1306032.535 9  -2321705.823 7
  22405539.968    22405545.405    -4587525.185 7  -4872240.496 8
 88  3 30  2 53 29.0800000  0  3G 6G 8G11
  21191212.281    21191218.396    -2181293.680 8  -3056132.364 8
  20325954.463    20325959.359    -1327918.331 8  -2338759.668 7
  22387766.606    22387772.262    -4680927.563 8  -4945021.507 8
 88  3 30  2 53 59.0800000  0  3G 6G 8G11
  21181401.790    21181405.909    -2232850.970 8  -3096306.847 9
  20321922.363    20321927.334    -1349108.893 8  -2355271.761 8
  22370056.792    22370062.605    -4773987.397 7  -5017535.618 7
 88  3 30  2 54 29.0800000  0  3G 6G 8G11
  21171626.954    21171630.859    -2284224.620 8  -3136338.244 9
  20318022.341    20318026.483    -1369604.380 9  -2371242.265 8
  22352413.848    22352421.019    -4866702.437 7  -5089781.029 9
 88  3 30  2 54 59.0800000  0  3G 6G 8G11
  21161885.285    21161889.692    -2335412.602 9  -3176224.984 9
  20314253.207    20314257.600    -1389404.250 8  -2386670.697 8
  22334836.451    22334844.342    -4959069.915 8  -5161755.625 7
 88  3 30  2 55 29.0800000  0  3G 6G 8G11
  21152180.447    21152185.242    -2386412.666 9  -3215965.276 9
  20310618.501    20310622.022    -1408507.700 8  -2401556.493 7
  22317326.415    22317333.440    -5051087.139 8  -5233457.325 7
 88  3 30  2 55 59.0800000  0  3G 6G 8G11
  21142512.247    21142518.334    -2437222.874 8  -3255557.621 9
  20307116.611    20307121.390    -1426914.819 9  -2415899.677 8
  22299884.639    22299890.696    -5142751.727 8  -5304884.217 8
 88  3 30  2 56 29.0800000  0  3G 6G 8G11
  21132878.640    21132884.792    -2487841.043 9  -3295000.291 8
  20303745.131    20303750.200    -1444624.826 8  -2429699.657 8
  22282507.852    22282514.300    -5234060.988 8  -5376034.253 8
 88  3 30  2 56 59.0800000  0  3G 6G 8G11
  21123284.874    21123288.669    -2538265.270 9  -3334291.883 9
  20300508.448    20300513.337    -1461637.606 8  -2442956.360 8
  22265200.579    22265206.817    -5325012.585 9  -5446905.586 7
 88  3 30  2 57 29.0800000  0  3G 6G 8G11
  21113725.879    21113729.662    -2588493.495 8  -3373430.752 9
  20297403.538    20297408.558    -1477953.134 8  -2455669.704 8
  22247962.114    22247968.894    -5415603.999 9  -5517496.248 8
 88  3 30  2 57 59.0800000  0  3G 6G 8G11
  21104205.694    21104210.769    -2638523.618 9  -3412415.252 8
  20294431.046    20294435.901    -1493571.020 9  -2467839.486 8
  22230793.128    22230798.560    -5505832.820 8  -5587804.378 8
 88  3 30  2 58 29.0800000  0  3G 6G 8G11
  21094724.506    21094728.219    -2688353.735 9  -3451243.870 9
  20291593.060    20291596.082    -1508491.373 9  -2479465.711 9
  22213692.012    22213698.760    -5595696.501 8  -5657827.969 8
 88  3 30  2 58 59.0800000  0  3G 6G 8G11
  21085280.417    21085283.573    -2737981.694 8  -3489914.967 9
  20288885.416    20288891.515    -1522713.633 8  -2490547.969 8
  22196661.774    22196667.673    -5685192.780 8  -5727565.293 8
 88  3 30  2 59 29.0800000  0  3G 6G 8G11
  21075873.003    21075878.962    -2787405.233 9  -3528426.794 9
  20286313.378    20286317.820    -1536238.037 8  -2501086.461 9
  22179701.460    22179706.214    -5774318.705 7  -5797014.012 8
 88  3 30  2 59 59.0800000  0  3G 6G 8G11
  21066508.643    21066512.953    -2836622.267 8  -3566777.692 8
  20283871.263    20283875.806    -1549064.541 8  -2511081.120 7
  22162810.999    22162816.713    -5863072.122 8  -5866172.477 8
 88  3 30  3  0 29.0800000  0  3G 6G 8G11
  21057182.631    21057186.688    -2885630.625 9  -3604966.004 9
  20281563.955    20281569.127    -1561192.928 8  -2520531.795 8
  22145994.645    22145999.433    -5951450.244 9  -5935038.503 7
 88  3 30  3  0 59.0800000  0  3G 6G 8G11
  21047898.169    21047901.473    -2934428.140 9  -3642990.000 8
  20279388.733    20279393.557    -1572623.275 9  -2529438.544 8
  22129246.427    22129253.299    -6039450.842 8  -6003610.349 8
 88  3 30  3  1 29.0800000  0  3G 6G 8G11
  21038651.025    21038655.437    -2983012.904 9  -3680848.231 8
  20277344.663    20277350.070    -1583355.328 9  -2537801.158 8
  22112574.930    22112580.790    -6127071.958 8  -6071886.512 8
 88  3 30  3  1 59.0800000  0  3G 6G 8G11
  21029447.189    21029450.677    -3031382.353 9  -3718538.647 9
  20275437.474    20275440.708    -1593388.925 9  -2545619.521 8
  22095973.296    22095978.665    -6214310.443 8  -6139864.503 8
 88  3 30  3  2 29.0800000  0  3G 6G 8G11
  21020284.386    21020288.010    -3079534.427 9  -3756059.731 9
  20273661.083    20273664.195    -1602724.103 8  -2552893.675 7
  22079446.059    22079451.243    -6301164.292 7  -6207542.775 8
 88  3 30  3  2 59.0800000  0  3G 6G 8G11
  21011163.337    21011167.148    -3127468.313 8  -3793410.792 8
  20272016.749    20272021.941    -1611362.661 8  -2559624.999 8
  22062990.988    22062996.520    -6387632.262 9  -6274920.401 8
 88  3 30  3  3 29.0800000  0  3G 6G 8G11
  21002084.295    21002086.887    -3175181.297 8  -3830589.704 8
  20270504.817    20270510.755    -1619303.973 8  -2565813.020 8
  22046610.182    22046615.357    -6473711.364 8  -6341994.970 8
 88  3 30  3  3 59.0800000  0  3G 6G 8G11
  20993045.127    20993048.917    -3222671.367 8  -3867594.932 8
  20269127.266    20269132.627    -1626548.166 8  -2571457.852 8
  22030304.190    22030309.927    -6559399.270 8  -6408764.735 7
 88  3 30  3  4 29.0800000  0  3G 6G 8G11
  20984052.145    20984055.703    -3269936.242 9  -3904424.660 9
  20267880.729    20267886.324    -1633095.575 8  -2576559.700 6
  22014074.632    22014078.420    -6644693.421 9  -6475227.688 7
 88  3 30  3  4 59.0800000  0  3G 6G 8G11
  20975098.912    20975104.506    -3316973.305 9  -3941076.900 8
  20266768.070    20266772.486    -1638946.713 8  -2581119.004 7
  21997918.688    21997923.843    -6729591.414 8  -6541381.925 8
 88  3 30  3  5 29.0800000  0  3G 6G 8G11
  20966194.302    20966197.826    -3363780.971 8  -3977550.366 8
  20265785.367    20265791.105    -1644101.954 8  -2585136.085 7
  21981838.819    21981843.849    -6814091.332 9  -6607225.996 8
 88  3 30  3  5 59.0800000  0  3G 6G 8G11
  20957328.875    20957333.786    -3410356.908 8  -4013843.282 9
  20264938.900    20264941.739    -1648561.300 7  -2588610.868 7
  21965834.569    21965840.496    -6898190.563 8  -6672757.822 8
 88  3 30  3  6 29.0800000  0  3G 6G 8G11
  20948510.038    20948515.577    -3456699.078 9  -4049954.054 8
  20264221.848    20264225.296    -1652325.300 8  -2591543.857 7
  21949908.168    21949913.812    -6981887.339 8  -6737976.062 8
 88  3 30  3  6 59.0800000  0  3G 6G 8G11
  20939737.566    20939741.827    -3502804.944 8  -4085880.678 9
  20263637.211    20263643.416    -1655393.742 8  -2593934.820 8
  21934058.159    21934063.631    -7065179.000 8  -6802878.626 9
 88  3 30  3  7 29.0800000  0  3G 6G 8G11
  20931008.464    20931014.078    -3548672.181 8  -4121621.368 9
  20263186.471    20263189.806    -1657766.963 9  -2595784.092 7
  21918285.132    21918292.383    -7148063.157 7  -6867463.618 8
 88  3 30  3  7 59.0800000  0  3G 6G 8G11
  20922326.885    20922330.631    -3594299.279 9  -4157174.927 8
  20262865.577    20262870.986    -1659446.152 8  -2597092.518 8
  21902590.423    21902597.214    -7230538.098 8  -6931729.774 8
 88  3 30  3  8 29.0800000  0  3G 6G 8G11
  20913691.118    20913695.044    -3639683.702 9  -4192539.422 9
  20262678.417    20262683.344    -1660432.003 8  -2597860.703 8
  21886973.321    21886980.948    -7312601.382 8  -6995675.142 9
 88  3 30  3  8 59.0800000  0  3G 6G 8G11
  20905100.875    20905104.598    -3684823.314 9  -4227713.145 8
  20262622.425    20262628.502    -1660724.588 7  -2598088.672 7
  21871435.953    21871443.025    -7394250.613 8  -7059297.880 9
 88  3 30  3  9 29.0800000  0  3G 6G 8G11
  20896558.923    20896562.204    -3729715.961 9  -4262694.390 9
  20262698.835    20262704.578    -1660324.826 8  -2597777.171 8
  21855979.239    21855985.231    -7475483.673 8  -7122596.330 8
 88  3 30  3  9 59.0800000  0  3G 6G 8G11
  20888061.974    20888067.838    -3774359.251 8  -4297481.357 9
  20262906.815    20262911.316    -1659233.122 8  -2596926.474 8
  21840601.068    21840606.484    -7556298.427 8  -7185568.818 9
 88  3 30  3 10 29.0800000  0  3G 6G 8G11
  20879615.933    20879619.094    -3818751.002 9  -4332072.319 9
  20263246.613    20263250.930    -1657450.036 8  -2595537.039 7
  21825301.323    21825307.877    -7636692.645 9  -7248213.629 8
 88  3 30  3 10 59.0800000  0  3G 6G 8G11
  20871216.811    20871221.148    -3862889.061 7  -4366465.612 8
  20263717.137    20263721.206    -1654976.671 7  -2593609.723 7
  21810084.261    21810089.834    -7716664.415 9  -7310529.251 8
 88  3 30  3 11 29.0800000  0  3G 6G 8G11
  20862865.715    20862869.355    -3906771.308 9  -4400659.568 9
  20264319.196    20264322.782    -1651813.449 8  -2591144.876 8
  21794946.912    21794952.714    -7796211.420 8  -7372513.902 8
 88  3 30  3 11 59.0800000  0  3G 6G 8G11
  20854564.917    20854568.024    -3950395.676 9  -4434652.578 8
  20265051.663    20265055.928    -1647961.503 7  -2588143.345 8
  21779891.491    21779896.336    -7875331.869 8  -7434166.161 8
 88  3 30  3 12 29.0800000  0  3G 6G 8G11
  20846312.950    20846315.462    -3993759.634 9  -4468442.666 8
  20265915.495    20265921.013    -1643421.481 8  -2584605.671 8
  21764914.841    21764921.286    -7954023.597 8  -7495484.349 8
 88  3 30  3 12 59.0800000  0  3G 6G 8G11
  20838110.902    20838115.795    -4036860.558 9  -4502027.788 9
  20266911.548    20266914.605    -1638193.404 8  -2580531.822 8
  21750023.054    21750029.530    -8032283.931 8  -7556466.416 8
 88  3 30  3 13 29.0800000  0  3G 6G 8G11
  20829959.499    20829963.284    -4079696.675 8  -4535406.587 9
  20268036.078    20268042.207    -1632278.693 8  -2575922.959 8
  21735213.048    21735219.426    -8110111.179 8  -7617110.990 7
 88  3 30  3 13 59.0800000  0  3G 6G 8G11
  20821857.489    20821863.307    -4122265.728 9  -4568577.258 8
  20269292.252    20269296.912    -1625678.290 9  -2570779.765 7
  21720485.230    21720491.565    -8187503.512 8  -7677416.679 7
 88  3 30  3 14 29.0800000  0  3G 6G 8G11
  20813809.917    20813812.224    -4164565.498 9  -4601538.104 9
  20270680.067    20270682.431    -1618393.317 8  -2565103.164 8
  21705841.717    21705848.432    -8264458.927 8  -7737381.900 8
 88  3 30  3 14 59.0800000  0  3G 6G 8G11
  20805812.520    20805815.503    -4206594.001 9  -4634287.581 9
  20272195.343    20272199.234    -1610424.611 8  -2558893.791 8
  21691281.103    21691286.570    -8340975.532 8  -7797005.185 8
 88  3 30  3 15 29.0800000  0  3G 6G 8G11
  20797866.483    20797869.448    -4248348.716 9  -4666823.715 9
  20273842.593    20273845.717    -1601772.759 7  -2552152.063 7
  21676806.245    21676810.278    -8417051.153 8  -7856284.852 8
 88  3 30  3 15 59.0800000  0  3G 6G 8G11
  20789973.165    20789976.595    -4289827.333 8  -4699144.731 9
  20275615.858    20275622.774    -1592438.854 7  -2544878.889 8
  21662413.098    21662418.291    -8492683.694 8  -7915219.277 7
 88  3 30  3 16 29.0800000  0  3G 6G 8G11
  20782132.381    20782136.500    -4331027.914 8  -4731249.070 8
  20277522.948    20277527.108    -1582424.370 8  -2537075.383 7
  21648102.723    21648110.856    -8567871.464 7  -7973807.094 7
 88  3 30  3 16 59.0800000  0  3G 6G 8G11
  20774345.356    20774348.660    -4371948.254 8  -4763135.052 9
  20279558.035    20279561.626    -1571730.450 8  -2528742.450 8
  21633882.226    21633887.530    -8642612.632 8  -8032046.937 8
 88  3 30  3 17 29.0800000  0  3G 6G 8G11
  20766612.276    20766615.808    -4412586.075 9  -4794800.883 9
  20281723.019    20281726.482    -1560358.150 8  -2519880.924 8
  21619744.312    21619750.003    -8716904.874 8  -8089936.958 8
 88  3 30  3 17 59.0800000  0  3G 6G 8G11
  20758932.900    20758937.597    -4452939.057 9  -4826244.761 9
  20284015.060    20284018.651    -1548308.619 8  -2510491.661 8
  21605692.410    21605698.550    -8790746.406 8  -8147475.768 9
 88  3 30  3 18 29.0800000  0  3G 6G 8G11
  20751309.017    20751312.871    -4493004.735 8  -4857464.754 8
  20286437.643    20286440.864    -1535582.898 8  -2500575.515 8
  21591727.167    21591732.613    -8864135.040 8  -8204661.689 8
 88  3 30  3 18 59.0800000  0  3G 6G 8G11
  20743740.321    20743743.271    -4532780.994 9  -4888459.238 8
  20288987.279    20288991.534    -1522182.271 9  -2490133.470 7
  21577847.868    21577853.093    -8937069.221 8  -8261493.491 8
 88  3 30  3 19 29.0800000  0  3G 6G 8G11
  20736225.998    20736232.147    -4572265.588 8  -4919226.454 8
  20291665.445    20291669.203    -1508108.117 8  -2479166.584 7
  21564055.753    21564061.437    -9009547.365 9  -8317969.921 8
 88  3 30  3 19 59.0800000  0  3G 6G 8G11
  20728768.275    20728771.669    -4611456.261 9  -4949764.606 8
  20294471.867    20294475.540    -1493361.510 8  -2467675.723 7
  21550351.054    21550357.051    -9081567.146 9  -8374089.202 8
 88  3 30  3 20 29.0800000  0  3G 6G 8G11
  20721367.507    20721370.987    -4650350.565 9  -4980071.854 8
  20297404.774    20297410.107    -1477943.664 8  -2455661.807 7
  21536733.780    21536739.062    -9153126.940 8  -8429850.058 8
 88  3 30  3 20 59.0800000  0  3G 6G 8G11
  20714022.489    20714026.997    -4688946.178 9  -5010146.344 9
  20300468.352    20300471.072    -1461856.029 8  -2443125.973 7
  21523205.097    21523210.300    -9224224.898 9  -8485251.035 9
 88  3 30  3 21 29.0800000  0  3G 6G 8G11
  20706734.613    20706739.411    -4727240.950 8  -5039986.394 8
  20303654.679    20303659.846    -1445099.790 8  -2430069.166 8
  21509762.676    21509768.385    -9294859.106 9  -8540290.627 8
 88  3 30  3 21 59.0800000  0  4G 6G 8G11G 9
  20699504.087    20699510.020    -4765232.645 8  -5069590.313 9
  20306971.414    20306975.767    -1427676.595 8  -2416492.643 8
  21496411.250    21496416.135    -9365028.149 8  -8594967.780 7
                  22833031.370   -19142956.129 8
 88  3 30  3 22 29.0800000  0  4G 6G 8G11G 9
  20692334.844    20692337.826    -4802919.201 9  -5098956.420 8
  20310410.938    20310416.955    -1409587.834 8  -2402397.503 8
  21483146.394    21483151.179    -9434730.351 8  -8649281.153 7
  22816063.887    22816068.932   -19232111.396 9  24362112.557 9
 88  3 30  3 22 59.0800000  0  4G 6G 8G11G 9
  20685220.485    20685225.373    -4840298.014 8  -5128082.749 9
  20313983.083    20313985.591    -1390834.609 8  -2387784.592 8
  21469970.809    21469976.654    -9503963.416 8  -8703228.970 9
  22799107.372    22799113.889   -19321218.432 8  24292678.573 9
 88  3 30  3 23 29.0800000  0  4G 6G 8G11G 9
  20678166.368    20678171.754    -4877367.275 9  -5156967.866 8
  20317676.243    20317680.129    -1371419.043 8  -2372655.576 8
  21456885.742    21456891.182    -9572726.246 8  -8756810.348 8
  22782159.744    22782164.769   -19410275.488 8  24223283.551 9
 88  3 30  3 23 59.0800000  0  4G 6G 8G11G 9
  20671173.991    20671176.073    -4914123.470 9  -5185609.055 8
  20321495.303    20321501.712    -1351341.362 8  -2357010.638 8
  21443890.811    21443896.740    -9641015.750 8  -8810022.916 7
  22765223.103    22765226.512   -19499279.450 8  24153929.884 7
 88  3 30  3 24 29.0800000  0  4G 6G 8G11G 9
  20664237.952    20664241.396    -4950564.979 8  -5214005.018 8
  20325443.166    20325447.281    -1330603.697 8  -2340851.396 8
  21430986.542    21430992.620    -9708831.320 7  -8862866.176 7
  22748293.940    22748302.519   -19588228.890 8  24084618.682 8
 88  3 30  3 24 59.0800000  0  4G 6G 8G11G 9
  20657363.112    20657368.037    -4986690.169 8  -5242154.508 9
  20329513.343    20329518.914    -1309208.199 9  -2324179.587 7
  21418172.688    21418178.458    -9776171.678 8  -8915339.148 8
  22731377.861    22731383.437   -19677122.726 7  24015350.890 7
 88  3 30  3 25 29.0800000  0  4G 6G 8G11G 9
  20650549.213    20650554.101    -5022496.392 8  -5270055.443 8
  20333709.956    20333714.606    -1287156.404 7  -2306996.358 7
  21405447.459    21405453.357    -9843034.745 8  -8967440.196 7
  22714473.950    22714481.011   -19765958.797 6  23946128.040 8
 88  3 30  3 25 59.0800000  0  4G 6G 8G11G 9
  20643797.315    20643801.882    -5057981.249 9  -5297705.977 9
  20338031.819    20338035.610    -1264449.606 8  -2289302.752 7
  21392815.514    21392821.261    -9909418.820 8  -9019168.016 8
  22697582.519    22697587.729   -19854734.796 8  23876952.020 8
 88  3 30  3 26 29.0800000  0  4G 6G 8G11G 9
  20637107.568    20637111.381    -5093142.819 9  -5325104.597 8
  20342476.749    20342481.217    -1241089.942 8  -2271100.410 7
  21380273.659    21380279.030    -9975322.925 8  -9070521.817 8
  22680700.409    22680704.588   -19943449.149 8  23807824.022 8
 88  3 30  3 26 59.0800000  0  4G 6G 8G11G 9
  20630478.521    20630481.234    -5127978.710 9  -5352249.439 9
  20347046.847    20347050.887    -1217078.660 8  -2252390.308 8
  21367824.223    21367830.434   -10040744.913 8  -9121499.939 8
  22663829.808    22663835.698   -20032099.586 8  23738745.834 8
 88  3 30  3 27 29.0800000  0  4G 6G 8G11G 9
  20623911.065    20623914.275    -5162486.051 9  -5379138.266 8
  20351738.845    20351742.927    -1192417.075 8  -2233173.485 8
  21355467.934    21355473.236   -10105683.015 8  -9172101.036 8
  22646972.952    22646977.450   -20120684.048 7  23669719.038 7
 88  3 30  3 27 59.0800000  0  4G 6G 8G11G 9
  20617407.478    20617411.262    -5196663.372 8  -5405769.954 8
  20356555.076    20356558.962    -1167107.354 8  -2213451.610 8
  21343203.892    21343208.543   -10170136.023 8  -9222324.108 8
  22630129.496    22630134.852   -20209200.790 9  23600745.009 8
 88  3 30  3 28 29.0800000  0  4G 6G 8G11G 9
  20610966.663    20610971.494    -5230508.154 9  -5432142.495 8
  20361493.739    20361498.723    -1141151.435 7  -2193226.218 6
  21331031.102    21331035.754   -10234102.860 9  -9272168.374 7
  22613299.574    22613302.982   -20297647.821 8  23531825.347 8
 88  3 30  3 28 59.0800000  0  4G 6G 8G11G 9
  20604590.744    20604593.372    -5264018.095 9  -5458254.137 9
  20366556.350    20366561.019    -1114550.947 8  -2172498.564 8
  21318950.924    21318956.687   -10297581.600 9  -9321632.291 8
  22596480.819    22596485.466   -20386023.056 9  23462961.605 8
 88  3 30  3 29 29.0800000  0  4G 6G 8G11G 9
  20598276.474    20598281.294    -5297190.541 8  -5484102.790 9
  20371740.923    20371744.103    -1087307.334 8  -2151269.772 7
  21306963.844    21306970.137   -10360570.138 9  -9370714.239 8
  22579678.061    22579682.574   -20474324.111 8  23394155.681 8
 88  3 30  3 29 59.0800000  0  4G 6G 8G11G 9
  20592029.599    20592033.082    -5330023.657 9  -5509687.007 8
  20377046.723    20377051.439    -1059422.961 8  -2129541.686 8
  21295071.006    21295076.852   -10423067.583 8  -9419413.494 8
  22562888.341    22562895.545   -20562549.229 7  23325408.911 8
 88  3 30  3 30 29.0800000  0  4G 6G 8G11G 9
  20585846.485    20585849.999    -5362515.346 8  -5535005.206 8
  20382474.862    20382481.262    -1030899.631 8  -2107315.704 8
  21283272.666    21283277.036   -10485072.767 8  -9467729.178 7
  22546115.674    22546119.775   -20650696.786 9  23256722.595 9
 88  3 30  3 30 59.0800000  0  4G 6G 8G11G 9
  20579727.873    20579732.724    -5394663.228 9  -5560055.487 8
  20388023.413    20388028.287    -1001739.152 8  -2084593.231 8
  21271567.339    21271573.548   -10546584.275 8  -9515660.193 7
  22529357.231    22529360.968   -20738764.413 9  23188098.530 9
 88  3 30  3 31 29.0800000  0  4G 6G 8G11G 9
  20573677.612    20573681.167    -5426465.032 8  -5584836.090 9
  20393693.983    20393697.988     -971943.418 9  -2061375.781 8
  21259956.908    21259961.802   -10607600.547 7  -9563205.293 8
  22512613.189    22512617.946   -20826749.912 8  23119538.481 8
 88  3 30  3 31 59.0800000  0  4G 6G 8G11G 9
  20567692.423    20567696.571    -5457918.397 9  -5609345.213 8
  20399483.137    20399489.289     -941514.185 8  -2037664.678 8
  21248440.126    21248444.225   -10668120.187 8  -9610363.419 7
  22495886.275    22495890.892   -20914651.300 9  23051043.981 8
 88  3 30  3 32 29.0800000  0  4G 6G 8G11G 9
  20561772.682    20561778.247    -5489021.118 8  -5633581.057 9
  20405394.765    20405398.709     -910453.507 9  -2013461.538 8
  21237017.049    21237023.330   -10728141.579 8  -9657133.292 7
  22479174.078    22479180.172   -21002466.284 7  22982616.838 9
 88  3 30  3 32 59.0800000  0  4G 6G 8G11G 9
  20555922.373    20555925.627    -5519770.961 9  -5657541.963 9
  20411424.668    20411428.602     -878763.492 9  -1988768.010 8
  21225689.820    21225695.864   -10787663.538 8  -9703513.980 7
  22462482.003    22462485.826   -21090193.029 8  22914258.431 8
 88  3 30  3 33 29.0800000  0  4G 6G 8G11G 9
  20550136.858    20550141.920    -5550165.781 9  -5681226.216 8
  20417575.674    20417579.942     -846446.316 8  -1963585.761 8
  21214459.678    21214464.497   -10846685.084 8  -9749504.762 7
  22445803.908    22445809.480   -21177829.184 8  22845970.619 7
 88  3 30  3 33 59.0800000  0  4G 6G 8G11G 9
  20544421.423    20544425.877    -5580203.023 8  -5704631.829 9
  20423843.280    20423847.434     -813503.729 8  -1937916.215 7
  21203322.745    21203328.321   -10905204.890 7  -9795104.561 8
  22429145.536    22429149.271   -21265372.638 7  22777755.016 8
 88  3 30  3 34 29.0800000  0  4G 6G 8G11G 9
  20538773.475    20538778.244    -5609880.566 8  -5727757.170 8
  20430232.458    20430234.465     -779937.490 8  -1911760.668 7
  21192284.206    21192288.554   -10963220.958 8  -9840311.842 8
  22412502.325    22412508.380   -21352821.127 7  22709613.471 8
 88  3 30  3 34 59.0800000  0  4G 6G 8G11G 9
  20533196.129    20533200.780    -5639195.939 8  -5750600.290 9
  20436737.112    20436741.446     -745749.843 9  -1885120.944 8
  21181338.892    21181344.438   -11020732.025 8  -9885125.595 8
  22395881.663    22395886.393   -21440172.173 8  22641547.825 8
 88  3 30  3 35 29.0800000  0  4G 6G 8G11G 9
  20527686.007    20527690.821    -5668147.193 8  -5773159.688 9
  20443361.404    20443363.903     -710943.352 8  -1857998.980 8
  21170489.918    21170497.357   -11077737.274 7  -9929545.242 8
  22379278.560    22379283.139   -21527424.107 8  22573559.396 8
 88  3 30  3 35 59.0800000  0  4G 6G 8G11G 9
  20522247.227    20522250.101    -5696732.241 8  -5795433.724 9
  20450101.896    20450105.229     -675519.989 8  -1830396.318 8
  21159740.015    21159744.754   -11134235.710 8  -9973569.945 8
  22362694.830    22362697.796   -21614574.847 8  22505649.818 8
 88  3 30  3 36 29.0800000  0  4G 6G 8G11G 9
  20516874.812    20516881.580    -5724948.633 9  -5817420.497 7
  20456959.685    20456962.832     -639481.734 8  -1802314.549 8
  21149085.056    21149090.117   -11190225.831 7 -10017198.551 8
  22346129.659    22346134.865   -21701621.847 8  22437821.054 8
 88  3 30  3 36 59.0800000  0  4G 6G 8G11G 9
  20511578.165    20511583.177    -5752794.308 8  -5839118.395 8
  20463933.412    20463937.561     -602831.318 8  -1773755.767 8
  21138528.089    21138532.606   -11245706.738 8 -10060430.372 8
  22329585.321    22329590.880   -21788563.122 8  22370074.699 8
 88  3 30  3 37 29.0800000  0  4G 6G 8G11G 9
  20506350.734    20506354.173    -5780267.021 9  -5860525.690 9
  20471024.084    20471028.166     -565570.537 8  -1744721.370 7
  21128067.320    21128073.717   -11300677.257 8 -10103264.514 7
  22313061.265    22313066.849   -21875396.682 8  22302412.274 8
 88  3 30  3 37 59.0800000  0  4G 6G 8G11G 9
  20501195.474    20501198.045    -5807364.539 8  -5881640.597 8
  20478230.212    20478234.180     -527701.733 9  -1715213.189 7
  21117705.275    21117709.254   -11355135.916 8 -10145699.762 7
  22296558.313    22296563.355   -21962119.692 8  22234836.000 8
 88  3 30  3 38 29.0800000  0  4G 6G 8G11G 9
  20496108.876    20496112.789    -5834084.745 8  -5902461.529 8
  20485551.123    20485554.752     -489227.149 8  -1685232.975 9
  21107437.814    21107442.675   -11409081.927 8 -10187735.585 7
  22280077.545    22280080.069   -22048730.646 8  22167347.029 7
 88  3 30  3 38 59.0800000  0  4G 6G 8G11G 9
  20491098.082    20491101.261    -5860425.289 8  -5922986.599 9
  20492986.780    20492990.609     -450148.979 8  -1654782.435 8
  21097270.622    21097276.208   -11462514.031 8 -10229370.937 7
  22263618.335    22263619.989   -22135226.709 8  22099947.626 8
 88  3 30  3 39 29.0800000  0  4G 6G 8G11G 9
  20486156.986    20486161.690    -5886384.269 9  -5943214.357 8
  20500539.271    20500543.477     -410470.024 9  -1623863.767 8
  21087200.847    21087205.405   -11515431.454 8 -10270605.246 8
  22247177.372    22247183.568   -22221606.112 7  22032639.068 8
 88  3 30  3 39 59.0800000  0  4G 6G 8G11G 9
  20481290.088    20481294.284    -5911959.210 8  -5963142.861 8
  20508202.978    20508207.642     -370192.257 8  -1592478.466 6
  21077229.536    21077234.189   -11567833.025 8 -10311437.586 8
  22230765.282    22230769.305   -22307866.066 8  21965423.585 9
 88  3 30  3 40 29.0800000  0  4G 6G 8G11G 9
  20476497.538    20476501.645    -5937147.326 8  -5982769.940 8
  20515980.734    20515984.144     -329317.395 8  -1560627.909 7
  21067356.455    21067361.230   -11619717.087 9 -10351866.679 8
  22214372.024    22214377.656   -22394003.904 8  21898303.288 9
 88  3 30  3 40 59.0800000  0  4G 6G 8G11G 9
  20471778.370    20471779.739    -5961947.434 8  -6002094.664 7
  20523873.666    20523875.654     -287848.650 8  -1528314.587 7
  21057581.054    21057586.928   -11671083.581 8 -10391892.482 7
  22198006.247    22198009.931   -22480018.270 9  21831279.216 9
 88  3 30  3 41 29.0800000  0  4G 6G 8G11G 9
  20467133.269    20467137.267    -5986357.031 9  -6021115.105 8
  20531875.908    20531880.290     -245788.176 9  -1495540.174 8
  21047904.997    21047910.911   -11721931.307 9 -10431514.040 8
  22181660.070    22181664.537   -22565906.592 8  21764353.305 8
 88  3 30  3 41 59.0800000  0  4G 6G 8G11G 9
  20462562.328    20462566.499    -6010373.990 8  -6039829.605 8
  20539993.359    20539995.180     -203138.415 8  -1462306.582 8
  21038327.322    21038333.180   -11772259.281 8 -10470730.590 7
  22165342.859    22165346.317   -22651666.416 8  21697527.521 9
 88  3 30  3 42 29.0800000  0  4G 6G 8G11G 9
  20458067.309    20458070.694    -6033996.646 8  -6058236.845 8
  20548220.378    20548223.658     -159902.687 9  -1428616.377 8
  21028849.171    21028855.305   -11822067.063 8 -10509541.804 8
  22149046.181    22149051.152   -22737295.987 8  21630803.220 8
 88  3 30  3 42 59.0800000  0  4G 6G 8G11G 9
  20453648.196    20453651.728    -6057222.297 8  -6076334.727 8
  20556559.013    20556560.984     -116082.662 9  -1394470.896 8
  21019470.474    21019476.409   -11871353.133 8 -10547946.477 7
  22132777.578    22132781.241   -22822792.661 9  21564182.494 9
 88  3 30  3 43 29.0800000  0  4G 6G 8G11G 9
  20449304.459    20449306.713    -6080048.829 8  -6094121.627 7
  20565007.907    20565012.411      -71680.526 9  -1359871.810 9
  21010191.055    21010196.804   -11920116.593 8 -10585943.935 8
  22116532.406    22116537.279   -22908153.845 8  21497667.353 8
 88  3 30  3 43 59.0800000  0  4G 6G 8G11G 9
  20445036.603    20445041.677    -6102474.230 8  -6111595.932 7
  20573567.208    20573571.701      -26699.188 9  -1324821.408 8
  21001011.383    21001015.718   -11968356.738 8 -10623533.604 7
  22100316.593    22100320.373   -22993377.085 9  21431259.672 8
 88  3 30  3 44 29.0800000  0  4G 6G 8G11G 9
  20440845.541    20440849.550    -6124495.965 8  -6128755.716 7
  20582237.039    20582240.773       18859.480 9  -1289321.137 8
  20991931.987    20991937.181   -12016072.432 8 -10660714.629 7
  22084126.340    22084129.869   -23078460.046 9  21364961.304 8
 88  3 30  3 44 59.0800000  0  4G 6G 8G11G 9
  20436732.831    20436735.494    -6146112.245 8  -6145599.545 7
  20591015.773    20591021.094       64992.533 8  -1253373.297 8
  20982951.035    20982955.718   -12063263.112 8 -10697486.543 8
  22067960.736    22067966.117   -23163400.231 8  21298774.208 9
 88  3 30  3 45 29.0800000  0  4G 6G 8G11G 9
  20432696.851    20432699.024    -6167320.992 8  -6162125.828 8
  20599903.069    20599908.108      111697.151 9  -1216980.089 8
  20974071.814    20974076.239   -12109927.703 8 -10733848.511 8
  22051826.386    22051830.417   -23248195.814 8  21232699.828 9
 88  3 30  3 45 59.0800000  0  4G 6G 8G11G 9
  20428740.417    20428742.808    -6188120.035 8  -6178332.857 7
  20608899.433    20608903.628      158970.921 8  -1180143.361 8
  20965291.328    20965294.990   -12156065.473 8 -10769799.977 6
  22035717.480    22035722.163   -23332843.979 9  21166740.260 9
 88  3 30  3 46 29.0800000  0  4G 6G 8G11G 9
  20424857.378    20424861.927    -6208507.375 7  -6194219.082 7
  20618002.149    20618006.995      206811.050 8  -1142865.331 8
  20956612.872    20956617.046   -12201676.238 9 -10805340.789 7
  22019638.365    22019640.884   -23417342.560 8  21100897.229 8
 88  3 30  3 46 59.0800000  0  4G 6G 8G11G 9
  20421059.065    20421062.216    -6228480.676 9  -6209782.684 8
  20627214.269    20627218.044      255215.384 8  -1105147.654 8
  20948031.907    20948037.679   -12246758.674 8 -10840469.908 8
  22003586.310    22003590.742   -23501688.781 8  21035172.965 8
 88  3 30  3 47 29.0800000  0  4G 6G 8G11G 9
  20417335.750    20417340.624    -6248037.918 8  -6225022.071 7
  20636531.213    20636535.650      304181.039 9  -1066992.602 9
  20939553.695    20939559.265   -12291312.459 7 -10875187.121 7
  21987566.521    21987570.685   -23585880.162 8  20969569.331 9
 88  3 30  3 47 59.0800000  0  4G 6G 8G11G 9
  20413694.808    20413699.200    -6267176.957 9  -6239935.594 8
  20645955.825    20645960.748      353705.556 8  -1028402.051 9
  20931176.424    20931182.008   -12335336.727 8 -10909491.698 8
  21971574.688    21971579.656   -23669914.484 8  20904088.109 9
 88  3 30  3 48 29.0800000  0  4G 6G 8G11G 9
  20410132.426    20410135.735    -6285895.608 8  -6254521.548 8
  20655486.954    20655489.807      403786.643 9   -989377.845 8
  20922899.669    20922906.115   -12378830.437 8 -10943382.864 8
  21955613.171    21955617.785   -23753789.068 7  20838731.341 8
 88  3 30  3 48 59.0800000  0  4G 6G 8G11G 9
  20406651.195    20406654.478    -6304191.913 8  -6268778.394 7
  20665120.456    20665126.737      454421.023 9   -949922.477 8
  20914724.511    20914730.959   -12421793.379 8 -10976860.440 7
  21939683.017    21939688.914   -23837501.425 7  20773500.984 8
 88  3 30  3 49 29.0800000  0  4G 6G 8G11G 9
  20403250.090    20403253.489    -6322063.930 9  -6282704.640 8
  20674860.841    20674866.639      505605.974 9   -910038.101 8
  20906650.948    20906654.822   -12464225.112 8 -11009924.083 7
  21923786.527    21923789.538   -23921049.310 9  20708398.742 9
 88  3 30  3 49 59.0800000  0  4G 6G 8G11G 9
  20399930.638    20399934.481    -6339509.420 9  -6296298.508 8
  20684705.713    20684709.437      557339.480 7   -869726.278 7
  20898678.624    20898682.555   -12506124.840 8 -11042573.182 7
  21907918.561    21907922.696   -24004429.846 9  20643426.926 9
 88  3 30  3 50 29.0800000  0  4G 6G13G11G 9
  20396691.408    20396696.492    -6356526.500 8  -6309558.579 6
                  23887376.261   -29459664.759 8
  20890805.229    20890810.268   -12547492.011 8 -11074807.295 6
  21892082.523    21892088.354   -24087640.895 9  20578587.228 9
 88  3 30  3 50 59.0800000  0  4G 6G13G11G 9
  20393535.243    20393539.264    -6373112.860 9  -6322483.008 7
  23866344.097    23866352.722   -29570371.393 8  37470854.595 7
  20883035.812    20883038.569   -12588325.875 9 -11106625.888 7
  21876282.112    21876285.662   -24170679.904 8  20513881.550 8
 88  3 30  3 51 29.0800000  0  4G 6G13G11G 9
  20390460.980    20390465.820    -6389266.339 9  -6335070.117 7
  23845318.941    23845325.415   -29680862.437 8  37384757.859 8
  20875367.068    20875371.087   -12628625.776 8 -11138028.352 6
  21860514.080    21860517.039   -24253543.864 8  20449312.230 9
 88  3 30  3 51 59.0800000  0  4G 6G13G11G 9
  20387472.261    20387473.529    -6404985.171 8  -6347318.552 8
  23824334.968    23824341.345   -29791135.601 6  37298830.918 8
  20867800.516    20867804.483   -12668391.128 8 -11169014.325 6
  21844776.906    21844782.312   -24336230.538 8  20384881.102 8
 88  3 30  3 52 29.0800000  0  4G 6G13G11G 9
  20384562.210    20384565.539    -6420267.907 8  -6359227.181 7
  23803390.413    23803398.837   -29901190.197 8  37213074.276 7
  20860333.276    20860338.400   -12707622.105 9 -11199583.863 7
  21829079.045    21829082.606   -24418738.061 8  20320589.595 9
 88  3 30  3 52 59.0800000  0  4G 6G13G11G 9
  20381737.097    20381741.620    -6435112.334 9  -6370794.255 8
  23782490.581    23782496.363   -30011023.188 8  37127490.312 8
  20852969.341    20852975.090   -12746318.072 8 -11229736.548 7
  21813413.152    21813415.472   -24501063.310 9  20256440.077 8
 88  3 30  3 53 29.0800000  0  4G 6G13G11G 9
  20378996.616    20379000.513    -6449516.028 8  -6382017.898 7
  23761633.017    23761639.194   -30120631.489 9  37042081.423 7
  20845708.035    20845712.237   -12784478.188 7 -11259471.663 8
  21797782.369    21797784.686   -24583203.804 9  20192434.498 8
 88  3 30  3 53 59.0800000  0  4G 6G13G11G 9
  20376339.966    20376344.278    -6463477.631 8  -6392897.054 8
  23740818.923    23740824.448   -30230013.506 9  36956848.847 6
  20838549.652    20838553.299   -12822102.382 7 -11288789.189 6
  21782185.891    21782190.893   -24665157.298 8  20128574.684 8
 88  3 30  3 54 29.0800000  0  4G 6G13G11G 9
  20373767.129    20373771.484    -6476994.618 7  -6403429.767 8
  23720047.898    23720052.450   -30339166.046 8  36871795.075 7
  20831490.051    20831496.339   -12859190.320 8 -11317688.837 7
  21766627.398    21766631.298   -24746920.823 9  20064862.910 8
 88  3 30  3 54 59.0800000  0  4G 6G13G11G 9
  20371280.773    20371283.163    -6490065.044 8  -6413614.510 8
  23699320.815    23699326.120   -30448087.243 8  36786921.587 8
  20824535.254    20824539.291   -12895741.448 8 -11346170.209 7
  21751103.607    21751108.236   -24828491.468 7  20001301.379 8
 88  3 30  3 55 29.0800000  0  4G 6G13G11G 9
  20368878.054    20368882.614    -6502686.916 9  -6423449.722 8
  23678638.592    23678643.561   -30556774.525 9  36702230.344 8
  20817683.566    20817687.222   -12931754.727 8 -11374232.482 7
  21735618.398    21735623.708   -24909866.824 8  19937892.046 8
 88  3 30  3 55 59.0800000  0  4G 6G13G11G 9
  20366562.487    20366567.996    -6514858.869 8  -6432934.372 7
  23657998.900    23658005.338   -30665225.999 8  36617722.862 8
  20810931.761    20810936.830   -12967231.006 9 -11401876.309 8
  21720172.684    21720176.224   -24991044.881 9  19874636.471 8
 88  3 30  3 56 29.0800000  0  4G 6G13G11G 9
  20364332.208    20364336.058    -6526578.487 8  -6442066.531 8
  23637407.151    23637414.318   -30773439.024 8  36533401.212 7
  20804282.391    20804286.876   -13002169.683 8 -11429101.223 8
  21704763.732    21704766.463   -25072022.520 9  19811537.053 9
 88  3 30  3 56 59.0800000  0  4G 6G13G11G 9
  20362188.186    20362192.435    -6537843.862 8  -6450844.752 7
  23616859.841    23616867.177   -30881410.846 8  36449267.514 9
  20797736.701    20797742.247   -13036570.064 9 -11455906.678 7
  21689389.553    21689393.951   -25152796.700 8  19748596.196 8
 88  3 30  3 57 29.0800000  0  4G 6G13G11G 9
  20360131.478    20360135.222    -6548653.522 8  -6459267.845 8
  23596360.745    23596366.835   -30989139.532 8  36365323.215 7
  20791292.022    20791298.256   -13070432.247 8 -11482292.757 7
  21674060.027    21674062.890   -25233366.123 7  19685814.858 8
 88  3 30  3 57 59.0800000  0  4G 6G13G11G 9
  20358162.256    20358165.514    -6559005.497 7  -6467334.310 7
  23575905.695    23575913.875   -31096623.327 7  36281569.792 7
  20784952.420    20784955.956   -13103755.946 7 -11508259.250 8
  21658767.398    21658771.523   -25313726.877 8  19623196.104 8
 88  3 30  3 58 29.0800000  0  4G 6G13G11G 9
  20356280.458    20356281.403    -6568897.049 8  -6475042.005 8
  23555499.934    23555506.190   -31203858.827 8  36198009.836 8
  20778711.510    20778719.166   -13136540.466 8 -11533805.607 8
  21643514.555    21643518.268   -25393876.502 8  19560741.934 9
 88  3 30  3 58 59.0800000  0  4G 6G13G11G 9
  20354484.692    20354489.005    -6578327.066 8  -6482390.080 7
  23535141.025    23535147.190   -31310843.884 9  36114644.992 8
  20772576.747    20772581.410   -13168786.259 7 -11558932.180 9
  21628305.205    21628307.404   -25473812.234 9  19498454.419 8
 88  3 30  3 59 29.0800000  0  4G 6G13G11G 9
  20352778.011    20352781.694    -6587293.400 8  -6489376.810 7
  23514831.928    23514837.653   -31417576.389 8  36031476.948 8
  20766542.551    20766548.966   -13200492.706 8 -11583638.463 7
  21613133.001    21613136.448   -25553532.108 8  19436335.029 7
 88  3 30  3 59 59.0800000  0  4G 6G13G11G 9
  20351161.395    20351164.420    -6595794.905 8  -6496001.342 7
  23494569.501    23494575.589   -31524054.900 9  35948506.805 9
  20760611.001    20760616.840   -13231660.499 7 -11607925.022 8
  21598004.600    21598009.934   -25633033.200 7  19374386.181 8
 88  3 30  4  0 29.0800000  0  4G 6G13G11G 9
  20349632.026    20349633.765    -6603829.322 2  -6502261.924 1
  23474354.696    23474363.106   -31630276.491 8  35865736.873 7
  20754782.864    20754789.364   -13262288.939 7 -11631791.316 8
  21582918.551    21582923.179   -25712312.603 9  19312610.101 9
 88  3 30  4  0 59.0800000  0  4G 6G13G11G 9
  20348192.376    20348196.179    -6611394.454 8  -6508156.838 8
  23454191.363    23454197.052   -31736238.176 9  35783169.444 7
  20749057.792    20749061.312   -13292377.624 7 -11655237.025 8
  21567874.930    21567877.668   -25791367.676 9  19251008.749 8
 88  3 30  4  1 29.0800000  0  4G 6G13G11G 9
  20346843.288    20346845.367    -6618488.931 8  -6513684.994 9
  23434077.249    23434081.962   -31841938.239 8  35700805.867 6
  20743434.219    20743438.617   -13321926.934 7 -11678262.432 6
  21552872.973    21552877.943   -25870195.854 8  19189584.210 9
 88  3 30  4  1 59.0800000  0  4G 6G13G11G 9
  20345582.000    20345585.299    -6625111.303 8  -6518845.263 7
  23414012.282    23414019.925   -31947374.671 4  35618647.728 5
  20737913.899    20737919.748   -13350936.942 7 -11700867.610 7
  21537918.577    21537921.407   -25948794.764 8  19128338.332 9
 88  3 30  4  2 29.0800000  0  4G 6G13G11G 9
  20344412.087    20344416.682    -6631259.398 9  -6523635.998 8
  23394000.011    23394005.523   -32052544.947 8  35536696.980 8
  20732496.048    20732500.889   -13379407.379 7 -11723052.346 7
  21523006.075    21523008.131   -26027161.271 9  19067273.517 8
 88  3 30  4  2 59.0800000  0  4G 6G13G11G 9
  20343332.992    20343335.456    -6636931.390 8  -6528055.723 8
  23374038.004    23374045.284   -32157446.939 9  35454955.252 7
  20727181.552    20727185.650   -13407337.953 7 -11744816.391 8
  21508135.739    21508139.934   -26105292.606 8  19006392.030 9
 88  3 30  4  3 29.0800000  0  4G 6G13G11G 9
  20342343.987    20342348.752    -6642124.259 9  -6532102.089 9
  23354128.280    23354132.794   -32262076.823 2  35373425.560 1
  20721969.012    20721974.800   -13434727.374 7 -11766158.770 7
  21493315.843    21493318.226   -26183184.619 9  18945696.960 8
 88  3 30  4  3 59.0800000  0  4G 6G13G11G 9
  20341446.292    20341452.549    -6646837.124 8  -6535774.468 8
  23334264.323    23334277.021   -32366433.687 1  35292108.620 1
  20716861.403    20716864.650   -13461576.661 7 -11787080.279 7
  21478537.174    21478542.407   -26260835.745 9  18885189.586 8
 88  3 30  4  4 29.0800000  0  4G 6G13G11G 9
  20340642.423    20340645.771    -6651069.356 8  -6539072.300 9
  23314460.680    23314469.883   -32470515.359 8  35211006.159 8
  20711853.105    20711857.806   -13487886.988 8 -11807581.796 7
  21463806.805    21463811.872   -26338243.837 8  18824871.668 8
 88  3 30  4  4 59.0800000  0  4G 6G13G11G 9
  20339928.900    20339932.861    -6654817.921 9  -6541993.258 9
  23294709.097    23294715.037   -32574319.166 8  35130120.200 8
  20706950.608    20706954.286   -13513657.058 8 -11827662.357 7
  21449125.540    21449128.068   -26415405.364 9  18764745.803 7
 88  3 30  4  5 29.0800000  0  4G 6G13G11G 9
  20339308.425    20339310.554    -6658081.529 8  -6544536.321 9
  23275008.687    23275013.901   -32677843.110 8  35049452.273 7
  20702146.903    20702154.822   -13538887.491 7 -11847322.414 7
  21434487.359    21434492.207   -26492317.993 8  18704813.884 9
 88  3 30  4  5 59.0800000  0  4G 6G13G11G 9
  20338779.268    20338782.410    -6660858.854 8  -6546700.473 7
  23255363.635    23255368.161   -32781085.456 8  34969003.759 8
  20697448.909    20697454.771   -13563578.919 9 -11866562.461 8
  21419902.150    21419904.662   -26568978.878 9  18645078.200 9
 88  3 30  4  6 29.0800000  0  4G 6G13G11G 9
  20338344.290    20338347.698    -6663148.804 8  -6548484.837 8
  23235769.931    23235777.675   -32884044.275 8  34888776.189 8
  20692854.731    20692858.706   -13587731.837 8 -11885382.897 8
  21405360.657    21405362.980   -26645385.814 9  18585540.297 8
 88  3 30  4  6 59.0800000  0  4G 6G13G11G 9
  20338001.598    20338003.452    -6664949.868 8  -6549888.261 9
  23216232.866    23216238.625   -32986717.774 8  34808770.968 8
  20688359.332    20688365.121   -13611346.413 8 -11903783.852 7
  21390868.565    21390873.794   -26721536.520 8  18526202.086 8
 88  3 30  4  7 29.0800000  0  4G 6G13G11G 9
  20337751.896    20337754.931    -6666259.896 7  -6550909.058 8
  23196750.671    23196755.441   -33089103.318 9  34728990.108 9
  20683968.098    20683971.383   -13634422.532 7 -11921765.219 8
  21376429.781    21376430.791   -26797427.556 9  18467066.275 8
 88  3 30  4  7 59.0800000  0  4G 6G13G11G 9
  20337595.012    20337599.904    -6667077.559 9  -6551546.199 8
  23177321.170    23177326.172   -33191198.633 9  34649435.393 9
  20679679.450    20679683.602   -13656960.337 9 -11939327.114 7
  21362036.523    21362040.863   -26873056.305 9  18408134.759 7
 88  3 30  4  8 29.0800000  0  4G 6G13G11G 9
  20337533.541    20337538.035    -6667401.303 9  -6551798.459 8
  23157947.647    23157954.303   -33293001.787 8  34570108.350 7
  20675493.353    20675497.216   -13678960.602 8 -11956470.180 7
  21347694.202    21347698.603   -26948420.095 8  18349409.754 8
 88  3 30  4  8 59.0800000  0  4G 6G13G11G 9
  20337566.811    20337571.124    -6667229.801 8  -6551664.815 9
  23138631.851    23138638.000   -33394510.966 9  34491010.353 8
  20671409.732    20671413.707   -13700423.463 8 -11973194.465 7
  21333406.192    21333408.455   -27023516.210 8  18290893.307 8
 88  3 30  4  9 29.0800000  0  4G 6G13G11G 9
  20337695.138    20337697.760    -6666560.924 8  -6551143.618 8
  23119371.886    23119376.970   -33495723.387 9  34412143.578 9
  20667427.638    20667431.409   -13721348.943 8 -11989500.009 6
  21319165.929    21319170.570   -27098341.318 9  18232588.016 8
 88  3 30  4  9 59.0800000  0  4G 6G13G11G 9
  20337916.709    20337920.157    -6665393.418 7  -6550233.866 8
  23100168.469    23100173.004   -33596636.809 9  34333509.828 8
  20663548.713    20663552.374   -13741737.557 8 -12005387.221 6
  21304979.926    21304981.645   -27172893.417 9  18174495.532 8
 88  3 30  4 10 29.0800000  0  4G 6G13G11G 9
  20338234.503    20338237.568    -6663725.705 8  -6548934.342 8
  23081020.897    23081027.349   -33697249.347 8  34255110.498 8
  20659769.598    20659774.629   -13761589.309 8 -12020856.120 7
  21290845.907    21290849.014   -27247169.099 9  18116618.315 8
 88  3 30  4 10 59.0800000  0  4G 6G13G11G 9
  20338646.124    20338650.244    -6661556.449 8  -6547244.010 9
  23061933.561    23061938.867   -33797559.731 8  34176946.618 8
  20656093.526    20656097.701   -13780905.036 8 -12035907.326 7
  21276761.514    21276768.432   -27321165.693 8  18058958.673 9
 88  3 30  4 11 29.0800000  0  4G 6G13G11G 9
  20339155.508    20339158.970    -6658884.061 9  -6545161.637 9
  23042903.366    23042908.603   -33897564.895 8  34099020.553 8
  20652520.755    20652523.928   -13799684.941 8 -12050540.985 7
  21262738.300    21262739.095   -27394880.616 8  18001518.539 8
 88  3 30  4 11 59.0800000  0  4G 6G13G11G 9
  20339759.673    20339763.396    -6655707.445 7  -6542686.353 8
  23023931.919    23023936.418   -33997263.408 8  34021333.472 8
  20649049.218    20649052.601   -13817929.645 8 -12064757.637 7
  21248763.113    21248767.800   -27468311.384 8  17944299.693 8
 88  3 30  4 12 29.0800000  0  4G 6G13G11G 9
  20340460.740    20340464.690    -6652024.776 8  -6539816.745 8
  23005017.849    23005023.562   -34096653.078 8  33943887.050 8
  20645677.870    20645682.336   -13835639.509 8 -12078557.515 8
  21234841.510    21234847.672   -27541454.584 6  17887305.047 9
 88  3 30  4 12 59.0800000  0  4G 6G13G11G 9
  20341257.850    20341261.427    -6647834.668 8  -6536551.711 7
  22986162.197    22986169.125   -34195731.872 8  33866682.833 8
  20642409.844    20642414.812   -13852814.949 8 -12091940.962 7
  21220981.333    21220984.795   -27614307.448 9  17830536.601 9
 88  3 30  4 13 29.0800000  0  4G 6G13G11G 9
  20342152.779    20342155.728    -6643135.741 8  -6532890.206 8
  22967368.913    22967374.835   -34294497.633 8  33789722.562 9
  20639244.073    20639246.290   -13869456.084 9 -12104908.060 6
  21207171.313    21207176.517   -27686867.483 7  17773996.317 8
 88  3 30  4 13 59.0800000  0  4G 6G13G11G 9
  20343142.880    20343147.727    -6637926.811 8  -6528831.307 8
  22948635.869    22948641.172   -34392948.384 8  33713007.740 8
  20636177.223    20636180.291   -13885563.887 7 -12117459.580 7
  21193423.842    21193425.481   -27759131.634 9  17717686.612 9
 88  3 30  4 14 29.0800000  0  4G 6G13G11G 9
  20344232.121    20344235.828    -6632206.404 8  -6524373.851 8
  22929961.368    22929966.707   -34491081.999 8  33636540.036 9
  20633214.550    20633216.439   -13901138.961 9 -12129595.987 7
  21179727.710    21179731.120   -27831097.188 7  17661609.583 8
 88  3 30  4 14 59.0800000  0  4G 6G13G11G 9
  20345417.646    20345421.266    -6625973.159 7  -6519516.776 8
  22911347.902    22911353.274   -34588896.706 9  33560320.842 8
  20630350.468    20630354.777   -13916181.403 7 -12141317.361 8
  21166090.753    21166094.201   -27902761.233 8  17605767.526 8
 88  3 30  4 15 29.0800000  0  4G 6G13G11G 9
  20346701.699    20346705.575    -6619225.942 8  -6514259.200 8
  22892794.735    22892798.961   -34686390.530 9  33484351.682 8
  20627590.190    20627595.047   -13930692.609 8 -12152624.784 6
  21152511.393    21152514.720   -27974121.065 9  17550162.432 9
 88  3 30  4 15 59.0800000  0  4G 6G13G11G 9
  20348083.068    20348086.935    -6611962.921 8  -6508599.708 8
  22874304.090    22874308.423   -34783561.169 8  33408634.339 7
  20624929.418    20624933.608   -13944672.151 7 -12163517.913 8
  21138988.376    21138994.435   -28045173.930 8  17494796.592 8
 88  3 30  4 16 29.0800000  0  4G 6G13G11G 9
  20349564.312    20349568.708    -6604183.246 8  -6502537.618 8
  22855873.935    22855880.600   -34880407.231 7  33333169.916 8
  20622370.991    20622372.911   -13958121.060 8 -12173997.576 7
  21125529.142    21125530.285   -28115916.783 9  17439672.321 8
 88  3 30  4 16 59.0800000  0  4G 6G13G11G 9
  20351142.745    20351147.074    -6595885.617 8  -6496071.930 7
  22837505.846    22837513.031   -34976926.217 9  33257960.356 8
  20619912.855    20619915.268   -13971040.582 8 -12184064.714 8
  21112125.852    21112128.951   -28186346.963 8  17384791.646 9
 88  3 30  4 17 29.0800000  0  4G 6G13G11G 9
  20352820.219    20352823.908    -6587068.519 8  -6489201.472 8
  22819204.006    22819207.908   -35073116.448 9  33183007.000 8
  20617554.568    20617560.028   -13983430.463 8 -12193719.163 7
  21098782.696    21098786.477   -28256461.737 9  17330156.823 8
 88  3 30  4 17 59.0800000  0  4G 6G13G11G 9
  20354597.465    20354600.433    -6577730.935 8  -6481925.435 7
  22800962.358    22800968.369   -35168975.666 8  33108311.546 8
  20615297.756    20615301.551   -13995291.617 8 -12202961.620 6
  21085501.901    21085504.965   -28326257.772 9  17275770.283 7
 88  3 30  4 18 29.0800000  0  4G 6G13G11G 9
  20356473.977    20356477.853    -6567871.259 8  -6474242.557 8
  22782782.322    22782788.471   -35264501.210 8  33033876.095 8
  20613140.382    20613144.156   -14006624.558 7 -12211792.460 7
  21072279.973    21072285.331   -28395732.215 8  17221634.359 7
 88  3 30  4 18 59.0800000  0  4G 6G13G11G 9
  20358451.049    20358453.842    -6557488.403 7  -6466152.043 8
  22764669.026    22764675.267   -35359691.935 9  32959701.563 7
  20611084.511    20611089.390   -14017430.187 7 -12220212.405 8
  21059121.531    21059126.130   -28464882.539 9  17167751.031 8
 88  3 30  4 19 29.0800000  0  4G 6G13G11G 9
  20360526.028    20360529.538    -6546581.803 9  -6457653.399 7
  22746617.586    22746623.800   -35454547.259 8  32885788.379 9
  20609127.986    20609133.126   -14027709.779 7 -12228222.480 8
  21046025.293    21046027.610   -28533706.103 8  17114122.294 8
 88  3 30  4 19 59.0800000  0  4G 6G13G11G 9
  20362700.627    20362704.767    -6535149.982 8  -6448745.478 7
  22728634.134    22728638.985   -35549064.142 8  32812138.898 8
  20607271.363    20607276.145   -14037463.491 8 -12235822.770 8
  21032990.771    21032994.202   -28602199.846 8  17060750.555 8
 88  3 30  4 20 29.0800000  0  4G 6G13G11G 9
  20364976.751    20364979.957    -6523191.592 8  -6439427.264 8
  22710710.850    22710718.411   -35643240.757 8  32738754.544 7
  20605516.752    20605520.721   -14046692.447 8 -12243014.163 6
  21020019.746    21020024.252   -28670360.828 8  17007638.110 9
 88  3 30  4 20 59.0800000  0  4G 6G13G11G 9
  20367351.756    20367355.860    -6510705.978 9  -6429698.217 7
  22692856.490    22692861.099   -35737074.918 8  32665637.055 7
  20603859.610    20603863.794   -14055397.810 7 -12249797.540 7
  21007111.218    21007117.821   -28738186.623 8  16954786.875 8
 88  3 30  4 21 29.0800000  0  4G 6G13G11G 9
  20369829.004    20369832.211    -6497691.463 8  -6419557.030 8
  22675065.220    22675069.917   -35830564.907 8  32592787.779 7
  20602302.019    20602307.920   -14063579.631 8 -12256172.966 7
  20994273.008    20994274.764   -28805673.638 8  16902199.580 8
 88  3 30  4 21 59.0800000  0  4G 6G13G11G 9
  20372406.498    20372409.986    -6484147.314 8  -6409003.155 7
  22657339.590    22657345.240   -35923709.521 9  32520207.575 8
  20600844.668    20600848.872   -14071239.338 8 -12262141.567 7
  20981492.186    20981498.210   -28872819.639 8  16849878.069 9
 88  3 30  4 22 29.0800000  0  4G 6G13G11G 9
  20375084.624    20375088.873    -6470072.348 8  -6398035.651 8
  22639679.995    22639687.558   -36016506.540 9  32447898.238 7
  20599485.970    20599490.903   -14078377.096 7 -12267703.445 7
  20968782.236    20968785.983   -28939621.357 9  16797824.802 8
 88  3 30  4 22 59.0800000  0  4G 6G13G11G 9
  20377864.115    20377867.290    -6455465.360 9  -6386653.600 8
  22622089.150    22622094.635   -36108953.898 9  32375861.379 8
  20598228.517    20598232.189   -14084993.812 8 -12272859.338 7
  20956133.313    20956140.234   -29006075.871 8  16746042.052 9
 88  3 30  4 23 29.0800000  0  4G 6G13G11G 9
  20380744.397    20380749.567    -6440325.519 9  -6374856.320 8
  22604564.547    22604569.347   -36201050.511 9  32304097.825 8
  20597066.061    20597071.914   -14091090.748 7 -12277610.180 7
  20943557.339    20943560.899   -29072180.790 8  16694531.794 9
 88  3 30  4 23 59.0800000  0  4G 6G13G11G 9
  20383728.512    20383733.352    -6424651.476 8  -6362642.802 7
  22587105.932    22587111.818   -36292793.339 9  32232609.925 8
  20596005.367    20596011.405   -14096668.292 7 -12281956.312 7
  20931044.452    20931047.216   -29137932.420 8  16643296.746 8
 88  3 30  4 24 29.0800000  0  4G 6G13G11G 9
  20386810.227    20386817.245    -6408442.608 8  -6350012.498 9
  22569714.459    22569721.836   -36384181.209 7  32161398.640 9
  20595043.766    20595046.584   -14101728.330 8 -12285899.186 8
  20918600.497    20918604.061   -29203328.811 8  16592338.535 8
 88  3 30  4 24 59.0800000  0  4G 6G13G11G 9
  20389999.781    20390001.042    -6391697.991 8  -6336964.751 8
  22552393.990    22552396.892   -36475212.648 8  32090465.093 8
  20594177.687    20594183.173   -14106271.520 7 -12289439.324 7
  20906224.679    20906227.175   -29268366.664 9  16541659.695 8
 88  3 30  4 25 29.0800000  0  4G 6G13G11G 9
  20393285.674    20393291.899    -6374416.498 8  -6323498.674 8
  22535137.857    22535143.234   -36565885.854 9  32019810.665 8
  20593410.456    20593416.099   -14110298.393 7 -12292577.146 6
  20893914.879    20893918.860   -29333043.391 9  16491262.274 8
 88  3 30  4 25 59.0800000  0  4G 6G13G11G 9
  20396679.774    20396681.292    -6356597.467 8  -6309613.714 8
  22517952.296    22517956.941   -36656198.826 9  31949436.959 8
  20592743.847    20592747.778   -14113810.641 8 -12295313.962 7
  20881678.548    20881682.485   -29397355.855 8  16441148.656 7
 88  3 30  4 26 29.0800000  0  4G 6G13G11G 9
  20400172.065    20400175.771    -6338239.973 8  -6295309.182 8
  22500834.110    22500839.578   -36746150.028 7  31879345.148 8
  20592172.263    20592178.792   -14116808.683 7 -12297650.073 8
  20869509.837    20869513.583   -29461301.598 8  16391320.822 9
 88  3 30  4 26 59.0800000  0  4G 6G13G11G 9
  20403768.427    20403770.873    -6319342.871 9  -6280584.174 8
  22483785.900    22483791.480   -36835737.938 7  31809536.411 7
  20591699.574    20591704.754   -14119293.475 8 -12299586.281 7
  20857411.758    20857413.695   -29524877.351 8  16341781.271 8
 88  3 30  4 27 29.0800000  0  4G 6G13G11G 9
  20407465.727    20407469.605    -6299905.602 8  -6265438.252 8
  22466807.518    22466813.480   -36924960.648 7  31740012.254 7
  20591324.999    20591328.985   -14121266.749 7 -12301123.888 7
  20845383.805    20845388.226   -29588080.349 8  16292532.187 8
 88  3 30  4 27 59.0800000  0  4G 6G13G11G 9
  20411267.247    20411271.126    -6279927.719 8  -6249871.074 7
  22449897.322    22449905.159   -37013817.175 8  31670773.408 8
  20591046.456    20591050.845   -14122729.733 8 -12302263.865 8
  20833428.847    20833431.771   -29650908.389 9  16243575.306 7
 88  3 30  4 28 29.0800000  0  4G 6G13G11G 9
  20415172.903    20415176.509    -6259407.998 8  -6233881.697 7
  22433059.874    22433063.923   -37102305.220 8  31601821.723 8
  20590863.492    20590871.093   -14123683.192 8 -12303006.825 7
  20821544.925    20821547.283   -29713358.066 8  16194913.218 8
 88  3 30  4 28 59.0800000  0  4G 6G13G11G 9
  20419180.425    20419183.206    -6238345.411 8  -6217469.293 7
  22416292.811    22416297.038   -37190423.432 8  31533158.216 9
  20590778.839    20590784.236   -14124128.079 8 -12303353.482 6
  20809732.889    20809736.257   -29775426.347 8  16146548.328 8
 88  3 30  4 29 29.0800000  0  4G 6G13G11G 9
  20423292.274    20423295.182    -6216739.005 8  -6200633.138 8
  22399594.894    22399599.405   -37278169.321 8  31464784.807 8
  20590792.495    20590796.960   -14124064.809 8 -12303304.170 7
  20797994.924    20797997.818   -29837110.144 9  16098483.033 8
 88  3 30  4 29 59.0800000  0  4G 6G13G11G 9
  20427507.304    20427511.334    -6194588.511 9  -6183373.032 8
  22382967.576    22382974.238   -37365541.519 8  31396702.617 8
  20590899.625    20590905.245   -14123495.491 7 -12302860.543 6
  20786329.833    20786333.429   -29898407.067 7  16050719.215 8
 88  3 30  4 30 29.0800000  0  4G 6G13G11G 9
  20431827.015    20431830.278    -6171893.319 8  -6165688.478 8
  22366412.566    22366417.632   -37452538.751 9  31328912.591 7
  20591104.028    20591108.990   -14122421.340 7 -12302023.545 7
  20774740.488    20774743.847   -29959314.361 7  16003258.996 8
 88  3 30  4 30 59.0800000  0  4G 6G13G11G 9
  20436248.340    20436252.594    -6148652.641 8  -6147578.863 7
  22349929.442    22349933.431   -37539159.897 8  31261415.623 8
  20591404.802    20591408.926   -14120843.508 7 -12300794.071 7
  20763224.221    20763228.838   -30019829.369 8  15956104.439 8
 88  3 30  4 31 29.0800000  0  4G 6G13G11G 9
  20440776.136    20440778.964    -6124865.729 9  -6129043.623 7
  22333518.884    22333522.844   -37625403.068 9  31194213.172 7
  20591800.147    20591804.617   -14118763.280 8 -12299173.092 8
  20751785.685    20751788.161   -30079949.020 9  15909257.957 8
 88  3 30  4 31 59.0800000  0  4G 6G13G11G 9
  20445406.278    20445410.483    -6100531.879 8  -6110082.176 7
  22317178.307    22317183.308   -37711266.426 8  31127306.697 8
  20592291.937    20592297.174   -14116181.635 7 -12297161.426 8
  20740420.052    20740421.839   -30139670.284 7  15862721.953 8
 88  3 30  4 32 29.0800000  0  4G 6G13G11G 9
  20450141.116    20450143.767    -6075650.428 9  -6090694.040 7
  22300912.382    22300917.523   -37796748.270 9  31060697.501 7
  20592879.918    20592883.536   -14113099.385 8 -12294759.687 7
  20729131.124    20729134.057   -30198990.612 9  15816498.311 8
 88  3 30  4 32 59.0800000  0  4G 6G13G11G 9
  20454979.389    20454984.111    -6050220.974 9  -6070878.880 7
  22284718.122    22284723.823   -37881847.119 8  30994386.735 7
  20593560.629    20593564.157   -14109518.390 7 -12291969.290 7
  20717919.414    20717924.305   -30257907.081 8  15770589.386 7
 88  3 30  4 33 29.0800000  0  4G 6G13G11G 9
  20459924.648    20459926.166    -6024242.965 7  -6050636.293 8
  22268597.583    22268602.106   -37966561.634 8  30928375.469 7
  20594335.420    20594342.274   -14105439.859 8 -12288791.207 8
  20706786.223    20706790.631   -30316416.800 8  15724997.419 8
 88  3 30  4 33 59.0800000  0  4G 6G13G11G 9
  20464971.515    20464973.961    -5997715.836 8  -6029965.824 6
  22252549.300    22252555.743   -38050890.775 8  30862664.459 8
  20595206.941    20595211.366   -14100865.348 7 -12285226.655 7
  20695729.661    20695732.579   -30374517.237 9  15679724.356 8
 88  3 30  4 34 29.0800000  0  4G 6G13G11G 9
  20470123.242    20470127.736    -5970638.903 9  -6008866.914 6
  22236575.281    22236582.642   -38134832.983 8  30797254.988 7
  20596170.332    20596175.607   -14095795.833 7 -12281276.389 8
  20684752.687    20684755.373   -30432205.603 9  15634772.382 7
 88  3 30  4 34 59.0800000  0  4G 6G13G11G 9
  20475382.189    20475383.653    -5943011.501 9  -5987339.074 8
  22220675.100    22220680.998   -38218385.783 8  30732148.925 7
  20597229.109    20597233.534   -14090232.663 7 -12276941.446 7
  20673854.019    20673856.903   -30489478.600 8  15590144.087 7
 88  3 30  4 35 29.0800000  0  4G 6G13G11G 9
  20480743.260    20480746.280    -5914833.208 8  -5965381.974 7
  22204850.785    22204855.767   -38301548.332 8  30667346.993 8
  20598381.119    20598386.048   -14084177.284 8 -12272222.969 6
  20663035.968    20663036.472   -30546333.451 9  15545841.608 7
 88  3 30  4 35 59.0800000  0  4G 6G13G11G 9
  20486210.160    20486213.310    -5886103.771 9  -5942995.423 8
  22189099.911    22189106.737   -38384319.726 8  30602849.832 8
  20599627.867    20599633.748   -14077630.682 7 -12267121.714 7
  20652294.200    20652298.214   -30602767.831 9  15501866.770 7
 88  3 30  4 36 29.0800000  0  4G 6G13G11G 9
  20491782.251    20491785.257    -5856822.455 9  -5920178.815 8
  22173423.324    22173430.739   -38466697.897 8  30538659.081 7
  20600968.444    20600970.249   -14070594.190 9 -12261638.721 6
  20641637.381    20641638.925   -30658778.494 9  15458222.109 8
 88  3 30  4 36 59.0800000  0  4G 6G13G11G 9
  20497459.711    20497463.923    -5826989.059 8  -5896932.021 8
  22157823.198    22157828.753   -38548682.064 8  30474775.367 7
  20602400.530    20602403.157   -14063069.883 8 -12255775.632 6
  20631058.403    20631063.053   -30714363.024 8  15414909.481 8
 88  3 30  4 37 29.0800000  0  4G 6G13G11G 9
  20503241.276    20503245.696    -5796602.855 8  -5873254.466 7
  22142297.615    22142302.121   -38630270.031 8  30411200.351 8
  20603924.029    20603927.687   -14055058.698 7 -12249533.157 7
  20620564.684    20620567.870   -30769518.252 8  15371931.411 7
 88  3 30  4 37 59.0800000  0  4G 6G13G11G 9
  20509129.191    20509133.876    -5765663.731 8  -5849146.074 7
  22126848.410    22126853.202   -38711460.618 8  30347935.004 7
  20605540.367    20605544.637   -14046562.396 8 -12242912.663 6
  20610150.144    20610154.356   -30824241.678 9  15329289.764 7
 88  3 30  4 38 29.0800000  0  4G 6G13G11G 9
  20515121.441    20515125.763    -5734171.569 8  -5824606.743 8
  22111473.883    22111477.577   -38792252.934 8  30284979.970 8
  20607248.535    20607253.786   -14037582.754 8 -12235915.515 8
  20599819.865    20599822.363   -30878530.593 8  15286986.738 7
 88  3 30  4 38 59.0800000  0  4G 6G13G11G 9
  20521220.521    20521223.427    -5702125.716 9  -5799635.943 7
  22096174.887    22096181.815   -38872645.244 9  30222336.654 7
  20609050.102    20609054.154   -14028120.353 8 -12228542.210 7
  20589572.692    20589575.039   -30932382.085 8  15245024.496 7
 88  3 30  4 39 29.0800000  0  4G 6G13G11G 9
  20527423.433    20527428.583    -5669526.020 8  -5774233.607 7
  22080953.357    22080957.727   -38952636.274 9  30160005.995 8
  20610942.155    20610945.225   -14018177.198 8 -12220794.300 7
  20579408.134    20579411.142   -30985793.380 9  15203405.321 7
 88  3 30  4 39 59.0800000  0  4G 6G13G11G 9
  20533733.231    20533736.713    -5636372.080 8  -5748399.366 8
  22065808.437    22065812.436   -39032224.846 9  30097988.956 8
  20612925.351    20612928.562   -14007754.664 8 -12212672.843 7
  20569329.610    20569332.636   -31038761.881 8  15162131.196 7
 88  3 30  4 40 29.0800000  0  4G 6G13G11G 9
  20540146.354    20540151.528    -5602663.244 9  -5722132.756 7
  22050739.795    22050746.493   -39111408.814 9  30036287.193 8
  20615000.613    20615003.929   -13996853.910 8 -12204178.732 7
  20559333.384    20559336.954   -31091284.215 8  15121204.673 6
 88  3 30  4 40 59.0800000  0  4G 6G13G11G 9
  20546666.602    20546670.852    -5568400.310 8  -5695434.369 8
  22035749.790    22035753.990   -39190188.120 8  29974900.738 8
  20617163.092    20617168.513   -13985477.420 8 -12195313.928 7
  20549422.887    20549427.415   -31143358.889 7  15080627.017 7
 88  3 30  4 41 29.0800000  0  4G 6G13G11G 9
  20553291.732    20553296.441    -5533582.516 8  -5668303.640 7
  22020833.135    22020838.704   -39268561.042 8  29913830.953 7
  20619420.229    20619424.722   -13973626.254 8 -12186079.243 7
  20539600.151    20539604.687   -31194982.671 8  15040400.725 8
 88  3 30  4 41 59.0800000  0  4G 6G13G11G 9
  20560022.824    20560029.009    -5498209.850 8  -5640740.535 7
  22005998.208    22006003.543   -39346526.394 8  29853078.729 7
  20621765.093    20621769.953   -13961302.021 8 -12176475.945 8
  20529862.680    20529866.213   -31246152.571 8  15000528.074 7
 88  3 30  4 42 29.0800000  0  4G 6G13G11G 9
  20566860.632    20566864.194    -5462282.226 9  -5612744.996 8
  21991239.670    21991244.415   -39424082.694 8  29792645.265 7
  20624200.043    20624202.670   -13948506.299 7 -12166505.237 7
  20520213.220    20520215.999   -31296866.425 7  14961010.807 8
 88  3 30  4 42 59.0800000  0  4G 6G13G11G 9
  20573802.637    20573807.594    -5425799.163 8  -5584316.646 8
  21976561.229    21976564.414   -39501228.787 8  29732531.458 7
  20626724.573    20626729.163   -13935240.520 8 -12156168.254 7
  20510650.114    20510653.092   -31347120.851 8  14921851.521 7
 88  3 30  4 43 29.0800000  0  4G 6G13G11G 9
  20580851.895    20580855.729    -5388760.380 9  -5555455.259 8
  21961957.692    21961961.800   -39577963.480 8  29672738.217 7
  20629337.466    20629342.437   -13921506.170 8 -12145466.154 7
  20501173.533    20501177.134   -31396913.314 9  14883052.204 6
 88  3 30  4 43 59.0800000  0  4G 6G13G11G 9
  20588005.763    20588009.754    -5351166.003 8  -5526160.958 8
  21947434.651    21947437.491   -39654285.367 9  29613266.653 6
  20632042.166    20632043.852   -13907305.100 8 -12134400.394 8
  20491786.761    20491789.978   -31446241.044 8  14844615.041 7
 88  3 30  4 44 29.0800000  0  4G 6G13G11G 9
  20595265.862    20595268.499    -5313016.262 9  -5496433.894 7
  21932989.187    21932994.157   -39730194.209 9  29554116.948 8
  20634831.566    20634835.177   -13892639.383 8 -12122972.537 6
  20482489.289    20482492.795   -31495101.852 7  14806541.682 7
 88  3 30  4 44 59.0800000  0  4G 6G13G11G 9
  20602630.719    20602634.527    -5274311.584 8  -5466274.416 8
  21918622.758    21918626.820   -39805688.734 8  29495290.059 7
  20637709.509    20637713.832   -13877510.722 8 -12111183.956 7
  20473280.742    20473284.588   -31543493.446 8  14768833.949 7
 88  3 30  4 45 29.0800000  0  4G 6G13G11G 9
  20610102.184    20610105.305    -5235051.153 9  -5435681.889 7
  21904335.559    21904340.533   -39880766.858 8  29436787.644 7
  20640676.847    20640681.875   -13861919.997 8 -12099035.362 7
  20464162.936    20464165.362   -31591412.491 8  14731494.456 7
 88  3 30  4 45 59.0800000  0  4G 6G13G11G 9
  20617679.215    20617680.799    -5195234.866 8  -5404656.211 7
  21890129.714    21890133.893   -39955428.025 7  29378610.165 7
  20643732.145    20643734.271   -13845869.244 8 -12086528.264 7
  20455133.856    20455138.195   -31638856.178 8  14694525.369 8
 88  3 30  4 46 29.0800000  0  4G 6G13G11G 9
  20625362.099    20625364.949    -5154862.917 9  -5373197.567 8
  21876000.006    21876004.492   -40029670.758 8  29320758.700 7
  20646872.686    20646876.822   -13829360.085 8 -12073663.975 8
  20446197.199    20446201.146   -31685821.784 8  14657928.810 8
 88  3 30  4 46 59.0800000  0  4G 6G13G11G 9
  20633149.309    20633153.134    -5113935.530 9  -5341306.101 8
  21861952.478    21861957.423   -40103494.720 8  29263233.602 7
  20650100.931    20650104.644   -13812394.321 8 -12060443.901 7
  20437350.680    20437354.488   -31732307.187 8  14621706.435 7
 88  3 30  4 47 29.0800000  0  4G 6G13G11G 9
  20641044.579    20641047.112    -5072452.760 9  -5308981.871 7
  21847983.961    21847990.806   -40176898.662 9  29206035.748 7
  20653417.899    20653420.753   -13794973.462 8 -12046869.212 7
  20428597.040    20428600.168   -31778309.648 8  14585860.380 7
 88  3 30  4 47 59.0800000  0  4G 6G13G11G 9
  20649043.132    20649047.477    -5030414.408 8  -5276224.725 7
  21834095.942    21834101.331   -40249880.923 8  29149166.480 7
  20656818.764    20656820.370   -13777099.136 8 -12032941.144 7
  20419933.458    20419939.743   -31823826.309 8  14550392.848 7
 88  3 30  4 48 29.0800000  0  4G 6G13G11G 9
  20657147.918    20657151.861    -4987820.661 9  -5243034.808 7
  21820289.113    21820293.023   -40322440.401 9  29092626.662 8
  20660305.182    20660309.059   -13758773.071 8 -12018661.093 7
  20411366.582    20411370.035   -31868854.596 8  14515305.891 6
 88  3 30  4 48 59.0800000  0  4G 6G13G11G 9
  20665358.667    20665362.393    -4944671.892 9  -5209412.392 8
  21806562.215    21806565.518   -40394576.715 9  29036416.578 9
  20663878.445    20663881.358   -13739997.269 8 -12004030.593 7
  20402893.035    20402893.800   -31913392.051 8  14480601.396 7
 88  3 30  4 49 29.0800000  0  4G 6G13G11G 9
  20673675.917    20673681.217    -4900968.534 9  -5175357.843 7
  21792916.149    21792920.173   -40466288.839 8  28980537.024 8
  20667537.247    20667540.830   -13720773.819 8 -11989051.282 7
  20394510.634    20394514.783   -31957436.310 8  14446281.204 6
 88  3 30  4 49 59.0800000  0  4G 6G13G11G 9
  20682098.127    20682101.634    -4856710.534 9  -5140871.097 7
  21779349.473    21779354.091   -40537575.827 9  28924988.740 8
  20671278.562    20671283.587   -13701104.243 7 -11973724.317 7
  20386222.443    20386227.077   -32000984.927 8  14412347.219 7
 88  3 30  4 50 29.0800000  0  4G 6G13G11G 9
  20690625.305    20690628.829    -4811897.899 9  -5105952.162 7
  21765863.439    21765868.911   -40608436.259 8  28869772.879 7
  20675106.145    20675110.432   -13680990.145 7 -11958051.000 8
  20378031.752    20378034.834   -32044034.830 8  14378801.858 7
 88  3 30  4 50 59.0800000  0  4G 6G13G11G 9
  20699258.873    20699262.253    -4766531.138 9  -5070601.458 7
  21752462.506    21752467.244   -40678869.302 8  28814890.003 7
  20679017.878    20679023.455   -13660433.551 9 -11942032.875 7
  20369934.127    20369936.729   -32086583.803 8  14345646.827 8
 88  3 30  4 51 29.0800000  0  4G 6G13G11G 9
  20707996.443    20708000.252    -4720609.967 8  -5034818.723 7
  21739139.801    21739146.072   -40748873.657 8  28760341.207 8
  20683014.921    20683017.803   -13639435.814 8 -11925670.995 7
  20361935.351    20361936.138   -32128628.826 9  14312884.472 7
 88  3 30  4 51 59.0800000  0  4G 6G13G11G 9
  20716840.442    20716844.479    -4674135.320 9  -4998604.732 7
  21725900.517    21725904.929   -40818449.278 8  28706126.446 7
  20687095.822    20687098.990   -13617999.398 8 -11908967.300 7
  20354029.032    20354031.930   -32170167.829 9  14280516.410 7
 88  3 30  4 52 29.0800000  0  4G 6G13G11G 9
  20725789.429    20725794.765    -4627107.367 9  -4961959.585 8
  21712742.501    21712747.172   -40887594.840 8  28652246.813 8
  20691256.105    20691260.552   -13596125.860 8 -11891922.964 8
  20346220.793    20346223.754   -32211198.379 8  14248544.577 7
 88  3 30  4 52 59.0800000  0  4G 6G13G11G 9
  20734844.662    20734848.137    -4579526.499 8  -4924883.582 8
  21699666.304    21699670.898   -40956309.212 8  28598703.192 8
  20695500.268    20695506.412   -13573817.235 8 -11874539.630 7
  20338509.643    20338512.556   -32251718.008 8  14216970.847 7
 88  3 30  4 53 29.0800000  0  4G 6G13G11G 9
  20744002.661    20744008.290    -4531393.095 8  -4887377.061 7
  21686671.907    21686676.874   -41024591.978 8  28545495.892 8
  20699829.171    20699832.985   -13551075.451 8 -11856818.749 7
  20330896.573    20330900.540   -32291724.161 8  14185797.236 7
 88  3 30  4 53 59.0800000  0  4G 6G13G11G 9
  20753267.723    20753271.259    -4482707.349 9  -4849440.116 7
  21673761.007    21673766.385   -41092442.347 8  28492625.503 8
  20704238.800    20704243.056   -13527901.917 8 -11838761.450 8
  20323383.201    20323385.263   -32331214.361 7  14155025.651 7
 88  3 30  4 54 29.0800000  0  4G 6G13G11G 9
  20762637.171    20762641.952    -4433469.822 9  -4811073.239 7
  21660931.089    21660938.124   -41159858.983 8  28440093.083 8
  20708729.161    20708735.317   -13504298.792 9 -11820369.410 7
  20315966.719    20315969.600   -32370186.209 8  14124657.998 8
 88  3 30  4 54 59.0800000  0  4G 6G13G11G 9
  20772113.096    20772115.098    -4383681.379 9  -4772277.053 7
  21648187.347    21648190.223   -41226841.672 8  28387898.798 8
  20713303.111    20713308.397   -13480268.592 8 -11801644.576 8
  20308648.773    20308652.297   -32408637.781 9  14094695.719 8
 88  3 30  4 55 29.0800000  0  4G 6G13G11G 9
  20781691.342    20781693.989    -4333342.097 9  -4733051.648 6
  21635522.179    21635526.445   -41293389.474 8  28336043.403 7
  20717957.164    20717962.021   -13455812.482 8 -11782587.883 8
  20301432.354    20301435.855   -32446566.189 9  14065141.134 6
 88  3 30  4 55 59.0800000  0  4G 6G13G11G 9
  20791375.406    20791377.308    -4282452.535 8  -4693397.438 8
  21622942.538    21622947.205   -41359501.701 9  28284527.401 8
  20722691.109    20722694.509   -13430932.601 7 -11763200.952 7
  20294312.677    20294317.276   -32483969.023 7  14035996.049 7
 88  3 30  4 56 29.0800000  0  4G 6G13G11G 9
  20801164.553    20801166.461    -4231012.764 8  -4653314.531 8
  21610443.014    21610447.696   -41425177.210 9  28233351.699 7
  20727505.682    20727510.882   -13405630.632 8 -11743485.133 8
  20287297.836    20287300.370   -32520843.651 8  14007262.591 6
 88  3 30  4 56 59.0800000  0  4G 6G13G11G 9
  20811057.645    20811060.236    -4179023.693 9  -4612803.558 8
  21598030.169    21598034.529   -41490415.485 9  28182516.707 7
  20732401.406    20732405.192   -13379908.546 8 -11723441.964 8
  20280380.995    20280383.734   -32557187.963 8  13978942.333 7
 88  3 30  4 57 29.0800000  0  4G 6G13G11G 9
  20821055.313    20821059.080    -4126485.662 9  -4571864.867 7
  21585698.635    21585702.649   -41555215.814 8  28132022.959 7
  20737375.161    20737379.482   -13353768.570 9 -11703073.155 8
  20273565.544    20273570.816   -32592999.359 9  13951037.361 6
 88  3 30  4 57 59.0800000  0  4G 6G13G11G 9
  20831156.872    20831160.939    -4073399.727 8  -4530499.214 8
  21573450.407    21573455.802   -41619577.882 8  28081870.717 8
  20742428.228    20742432.968   -13327212.542 8 -11682380.150 7
  20266854.088    20266856.438   -32628276.069 8  13923549.031 7
 88  3 30  4 58 29.0800000  0  4G 6G13G11G 9
  20841362.725    20841368.234    -4019766.408 9  -4488707.032 7
  21561286.350    21561291.315   -41683500.821 9  28032060.660 7
  20747561.044    20747564.902   -13300242.739 9 -11661364.720 8
  20260242.056    20260245.702   -32663015.395 8  13896479.403 7
 88  3 30  4 58 59.0800000  0  4G 6G13G11G 9
  20851673.458    20851676.746    -3965586.644 9  -4446489.043 7
  21549205.956    21549211.185   -41746984.237 9  27982593.087 7
  20752771.055    20752776.035   -13272861.296 8 -11640028.532 8
  20253734.330    20253738.661   -32697215.559 7  13869829.939 7
 88  3 30  4 59 29.0800000  0  4G 6G13G11G 9
  20862086.600    20862089.838    -3910860.863 9  -4403845.587 9
  21537209.619    21537214.406   -41810027.114 8  27933468.786 7
  20758059.853    20758064.354   -13245069.967 8 -11618372.955 8
  20247328.853    20247333.644   -32730874.000 7  13843602.596 7
 88  3 30  4 59 59.0800000  0  4G 6G13G11G 9
  20872605.494    20872609.161    -3855589.882 9  -4360777.301 7
  21525296.562    21525302.292   -41872628.964 9  27884688.169 9
  20763425.845    20763430.163   -13216871.014 8 -11596399.755 8
  20241028.561    20241031.883   -32763988.653 8  13817798.971 7
 88  3 30  5  0 29.0800000  0  4G 6G13G11G 9
  20883226.880    20883229.157    -3799774.042 9  -4317284.442 8
  21513466.810    21513473.301   -41934789.127 8  27836251.701 8
  20768870.034    20768873.663   -13188266.169 8 -11574110.267 7
  20234829.420    20234833.971   -32796556.797 8  13792421.180 7
 88  3 30  5  0 59.0800000  0  4G 6G13G11G 9
  20893951.580    20893955.188    -3743414.070 9  -4273367.600 8
  21501724.278    21501727.976   -41996506.851 9  27788159.995 7
  20774388.483    20774394.269   -13159257.227 7 -11551505.909 8
  20228739.044    20228740.521   -32828576.310 7  13767470.922 8
 88  3 30  5  1 29.0800000  0  4G 6G13G11G 9
  20904779.019    20904784.417    -3686510.838 9  -4229027.421 8
  21490063.264    21490069.717   -42057781.314 8  27740413.671 7
  20779986.582    20779990.683   -13129846.225 9 -11528588.246 8
  20222748.799    20222751.781   -32860045.112 7  13742949.780 6
 88  3 30  5  1 59.0800000  0  4G 6G13G11G 9
  20915711.200    20915714.666    -3629064.867 9  -4184264.345 8
  21478486.307    21478492.030   -42118612.266 7  27693012.959 8
  20785659.158    20785663.278   -13100034.962 8 -11505358.688 8
  20216865.931    20216871.471   -32890960.613 8  13718859.788 8
 88  3 30  5  2 29.0800000  0  4G 6G13G11G 9
  20926746.268    20926748.427    -3571076.005 9  -4139078.227 7
  21466994.492    21467001.457   -42178998.400 8  27645958.861 8
  20791406.577    20791410.872   -13069824.769 9 -11481818.281 8
  20211089.413    20211092.449   -32921319.749 7  13695203.312 7
 88  3 30  5  2 59.0800000  0  4G 6G13G11G 9
  20937884.118    20937888.054    -3512546.528 8  -4093470.855 8
  21455589.467    21455593.376   -42238940.120 7  27599251.054 7
  20797232.008    20797236.810   -13039219.133 9 -11457969.747 7
  20205418.436    20205421.494   -32951121.843 7  13671980.903 7
 88  3 30  5  3 29.0800000  0  4G 6G13G11G 9
  20949124.163    20949127.555    -3453477.373 9  -4047442.971 8
  21444266.352    21444272.471   -42298437.145 7  27552889.770 8
  20803131.075    20803135.185   -13008220.244 8 -11433814.769 8
  20199852.112    20199858.269   -32980364.536 7  13649194.385 7
 88  3 30  5  3 59.0800000  0  4G 6G13G11G 9
  20960467.750    20960471.369    -3393869.160 9  -4000995.017 7
  21433030.987    21433035.028   -42357489.249 8  27506875.180 7
  20809103.446    20809109.003   -12976829.871 7 -11409354.732 8
  20194394.423    20194397.593   -33009045.960 8  13626845.233 7
 88  3 30  5  4 29.0800000  0  4G 6G13G11G 9
  20971911.671    20971918.185    -3333721.966 9  -3954127.090 7
  21421877.775    21421882.818   -42416094.325 7  27461208.920 7
  20815152.216    20815157.330   -12945048.951 9 -11384590.379 8
  20189045.353    20189046.707   -33037162.892 8  13604935.963 7
 88  3 30  5  4 59.0800000  0  4G 6G13G11G 9
  20983461.414    20983464.331    -3273037.181 9  -3906840.248 7
  21410811.237    21410816.601   -42474252.482 8  27415890.901 8
  20821272.332    20821278.141   -12912880.120 8 -11359523.769 7
  20183801.014    20183804.961   -33064713.625 8  13583467.836 6
 88  3 30  5  5 29.0800000  0  4G 6G13G11G 9
  20995110.928    20995113.961    -3211815.919 8  -3859135.400 7
  21399830.137    21399833.581   -42531964.350 8  27370920.646 7
  20827468.549    20827474.033   -12880325.956 9 -11334156.884 7
  20178668.017    20178669.722   -33091696.620 8  13562442.135 7
 88  3 30  5  5 59.0800000  0  4G 6G13G11G 9
  21006862.841    21006867.769    -3150059.637 9  -3811013.636 7
  21388931.882    21388937.274   -42589228.965 8  27326298.891 7
  20833735.631    20833739.904   -12847388.755 8 -11308491.540 8
  20173640.489    20173644.977   -33118109.765 7  13541860.453 7
 88  3 30  5  6 29.0800000  0  4G 6G13G11G 9
  21018716.139    21018720.216    -3087768.835 8  -3762475.383 6
  21378120.375    21378123.698   -42646046.101 9  27282025.816 7
  20840076.103    20840081.160   -12814070.613 8 -11282529.350 7
  20168722.929    20168728.205   -33143951.038 8  13521724.395 7
 88  3 30  5  6 59.0800000  0  4G 6G13G11G 9
  21030672.213    21030675.375    -3024944.151 8  -3713521.100 8
  21367392.648    21367396.963   -42702415.224 8  27238101.839 7
  20846488.527    20846492.871   -12780373.060 9 -11256271.505 7
  20163915.079    20163919.300   -33169218.120 7  13502035.772 8
 88  3 30  5  7 29.0800000  0  4G 6G13G11G 9
  21042728.011    21042731.705    -2961586.446 9  -3664151.467 8
  21356751.102    21356756.908   -42758336.463 9  27194526.871 7
  20852971.587    20852976.838   -12746298.646 8 -11229720.029 8
  20159216.390    20159220.363   -33193909.611 8  13482795.649 6
 88  3 30  5  7 59.0800000  0  4G 6G13G11G 9
  21054887.091    21054889.830    -2897698.651 9  -3614368.782 7
  21346195.156    21346200.223   -42813808.972 8  27151301.561 7
  20859528.533    20859533.089   -12711848.824 8 -11202876.024 8
  20154628.206    20154631.250   -33218022.845 7  13464006.123 7
 88  3 30  5  8 29.0800000  0  4G 6G13G11G 9
  21067144.106    21067147.082    -2833280.087 9  -3564172.504 8
  21335724.544    21335729.162   -42868832.452 9  27108426.133 7
  20866155.434    20866158.683   -12677026.189 8 -11175741.491 8
  20150149.985    20150153.778   -33241556.042 8  13445668.557 7
 88  3 30  5  8 59.0800000  0  4G 6G13G11G 9
  21079503.147    21079506.883    -2768333.235 9  -3513564.582 7
  21325339.368    21325343.589   -42923406.781 8  27065900.706 8
  20872851.793    20872856.258   -12641833.063 8 -11148318.277 7
  20145781.361    20145786.527   -33264507.145 7  13427784.587 6
 88  3 30  5  9 29.0800000  0  4G 6G13G11G 9
  21091962.678    21091967.126    -2702857.689 8  -3462544.698 8
  21315039.868    21315045.055   -42977531.206 9  27023725.834 8
  20879618.833    20879624.468   -12606271.239 9 -11120607.772 8
  20141526.618    20141529.958   -33286874.499 7  13410355.482 6
 88  3 30  5  9 59.0800000  0  4G 6G13G11G 9
  21104522.462    21104526.166    -2636854.931 9  -3411113.978 7
  21304826.070    21304832.075   -43031205.579 9  26981901.673 7
  20886455.668    20886461.537   -12570342.809 8 -11092611.599 8
  20137381.521    20137384.296   -33308655.932 7  13393382.938 7
 88  3 30  5 10 29.0800000  0  4G 6G13G11G 9
  21117181.775    21117186.370    -2570326.088 8  -3359273.348 8
  21294697.870    21294701.523   -43084429.846 9  26940428.216 7
  20893361.478    20893366.847   -12534049.921 8 -11064331.423 7
  20133348.130    20133351.043   -33329849.678 8  13376868.319 7
 88  3 30  5 10 59.0800000  0  4G 6G13G11G 9
  21129943.215    21129946.168    -2503272.791 9  -3307024.025 7
  21284654.299    21284661.163   -43137204.032 8  26899305.505 8
  20900337.855    20900341.253   -12497394.830 8 -11035769.017 7
  20129427.049    20129430.356   -33350454.188 8  13360812.855 6
 88  3 30  5 11 29.0800000  0  4G 6G13G11G 9
  21142802.851    21142804.980    -2435695.949 9  -3254366.765 7
  21274698.765    21274704.034   -43189527.538 8  26858533.978 7
  20907381.309    20907387.485   -12460379.508 8 -11006925.923 7
  20125619.075    20125621.789   -33370467.220 7  13345218.298 7
 88  3 30  5 11 59.0800000  0  4G 6G13G11G 9
  21155760.869    21155763.959    -2367596.969 9  -3201302.629 7
  21264826.541    21264831.826   -43241399.799 9  26818114.056 6
  20914492.863    20914497.631   -12423006.345 7 -10977803.974 7
  20121922.815    20121927.957   -33389887.089 8  13330085.922 7
 88  3 30  5 12 29.0800000  0  4G 6G13G11G 9
  21168818.583    21168822.765    -2298976.920 9  -3147832.470 8
  21255042.735    21255047.447   -43292821.737 8  26778045.032 8
  20921673.152    20921676.475   -12385277.155 8 -10948404.623 7
  20118342.258    20118343.414   -33408711.890 8  13315417.243 7
 88  3 30  5 12 59.0800000  0  4G 6G13G11G 9
  21181975.359    21181979.180    -2229836.897 9  -3093957.138 8
  21245343.502    21245346.195   -43343792.528 9  26738327.559 7
  20928918.548    20928924.581   -12347194.397 8 -10918729.740 9
  20114874.652    20114876.493   -33426939.903 7  13301213.589 6
 88  3 30  5 13 29.0800000  0  4G 6G13G11G 9
  21195230.864    21195235.820    -2160178.428 9  -3039677.823 8
  21235728.965    21235734.247   -43394311.892 8  26698961.835 7
  20936232.703    20936237.542   -12308759.891 8 -10888780.791 7
  20111517.695    20111521.569   -33444569.139 8  13287476.524 6
 88  3 30  5 13 59.0800000  0  4G 6G13G11G 9
  21208585.164    21208588.645    -2090003.178 9  -2984995.834 8
  21226201.048    21226204.742   -43444379.970 8  26659947.783 8
  20943612.366    20943618.907   -12269976.748 8 -10858560.165 8
  20108277.375    20108279.715   -33461598.724 8  13274206.726 6
 88  3 30  5 14 29.0800000  0  4G 6G13G11G 9
  21222037.410    21222040.408    -2019312.626 9  -2929912.296 8
  21216759.172    21216764.587   -43493996.595 7  26621285.504 8
  20951061.273    20951066.619   -12230847.031 7 -10828069.490 8
  20105151.987    20105155.086   -33478026.809 7  13261405.609 7
 88  3 30  5 14 59.0800000  0  4G 6G13G11G 9
  21235586.048    21235589.839    -1948108.146 7  -2874428.311 8
  21207404.349    21207407.963   -43543162.811 8  26582974.201 8
  20958570.960    20958574.858   -12191373.031 8 -10797310.528 8
  20102140.462    20102141.631   -33493851.960 8  13249074.317 6
 88  3 30  5 15 29.0800000  0  4G 6G13G11G 9
  21249233.596    21249238.293    -1876390.653 9  -2818544.563 8
  21198133.591    21198139.092   -43591877.536 9  26545014.693 7
  20966148.198    20966152.323   -12151556.341 9 -10766284.550 8
  20099244.496    20099243.443   -33509071.958 8  13237214.593 7
 88  3 30  5 15 59.0800000  0  4G 6G13G11G 9
  21262979.798    21262983.162    -1804161.772 9  -2762262.346 8
  21188948.279    21188955.112   -43640140.541 8  26507407.186 7
  20973790.062    20973795.038   -12111399.441 8 -10734993.469 7
  20096463.194    20096463.358   -33523685.176 7  13225827.662 6
 88  3 30  5 16 29.0800000  0  4G 6G13G11G 9
  21276820.813    21276823.305    -1731422.886 9  -2705582.731 8
  21179852.051    21179856.440   -43687952.122 8  26470151.452 7
  20981495.236    20981501.011   -12070904.130 7 -10703438.679 7
  20093799.403    20093799.771   -33537690.213 7  13214914.632 6
 88  3 30  5 16 59.0800000  0  4G 6G13G11G 9
  21290758.605    21290763.323    -1658175.403 8  -2648506.775 7
  21170839.253    21170843.780   -43735312.472 8  26433247.320 7
  20989265.716    20989271.079   -12030072.945 9 -10671622.188 8
  20091249.494    20091250.573   -33551085.465 8  13204476.780 6
 88  3 30  5 17 29.0800000  0  4G 6G13G11G 9
  21304794.186    21304798.294    -1584420.828 9  -2591035.684 8
  21161912.508    21161917.079   -43782221.922 8  26396694.520 7
  20997099.987    20997103.268   -11988907.998 8 -10639545.616 8
  20088816.115    20088818.475   -33563869.419 7  13194515.231 6
 88  3 30  5 17 59.0800000  0  4G 6G13G11G 9
  21318926.504    21318928.538    -1510160.773 9  -2533170.719 8
  21153070.873    21153075.679   -43828679.883 8  26360493.515 7
  21004995.015    21005001.194   -11947411.797 8 -10607210.904 7
  20086499.694    20086501.526   -33576040.603 8  13185031.210 6
 88  3 30  5 18 29.0800000  0  4G 6G13G11G 9
  21333153.366    21333155.166    -1435396.575 9  -2474912.934 8
  21144317.701    21144321.885   -43874686.129 8  26324644.508 7
  21012955.556    21012959.525   -11905586.091 9 -10574619.459 8
  20084300.514    20084303.337   -33587597.364 8  13176025.928 6
 88  3 30  5 18 59.0800000  0  4G 6G13G11G 9
  21347475.254    21347478.017    -1360130.207 9  -2416263.802 8
  21135648.165    21135653.316   -43920241.732 9  26289146.651 8
  21020974.656    21020980.732   -11863433.699 8 -10541773.446 8
  20082218.353    20082220.946   -33598538.651 8  13167500.254 7
 88  3 30  5 19 29.0800000  0  4G 6G13G11G 9
  21361894.409    21361896.932    -1284362.940 8  -2357224.424 7
  21127065.391    21127068.896   -43965345.817 9  26254000.622 8
  21029060.254    21029064.962   -11820956.643 9 -10508674.441 8
  20080255.071    20080256.329   -33608862.797 7  13159455.461 6
 88  3 30  5 19 59.0800000  0  4G 6G13G11G 9
  21376406.613    21376409.804    -1208096.204 9  -2297795.811 8
  21118568.438    21118571.856   -44009998.637 9  26219206.259 7
  21037204.806    21037208.886   -11778156.537 9 -10475323.712 8
  20078406.135    20078410.873   -33618568.071 6  13151892.907 6
 88  3 30  5 20 29.0800000  0  4G 6G13G11G 9
  21391013.466    21391018.436    -1131331.710 9  -2237979.329 8
  21110155.790    21110160.931   -44054200.729 8  26184763.096 8
  21045410.114    21045414.086   -11735036.070 8 -10441723.343 7
  20076678.167    20076681.332   -33627653.358 7  13144813.442 5
 88  3 30  5 20 59.0800000  0  4G 6G13G11G 9
  21405716.035    21405720.187    -1054071.160 9  -2177776.312 8
  21101831.345    21101835.125   -44097952.470 9  26150670.885 7
  21053674.892    21053680.202   -11691597.795 9 -10407875.334 8
  20075067.303    20075071.196   -33636117.289 8  13138218.169 5
 88  3 30  5 21 29.0800000  0  4G 6G13G11G 9
  21420513.032    21420516.411     -976316.287 8  -2117188.140 8
  21093590.816    21093594.622   -44141253.486 9  26116929.839 7
  21062001.124    21062007.783   -11647843.694 8 -10373781.244 8
  20073575.656    20073577.639   -33643958.671 7  13132108.003 7
 88  3 30  5 21 59.0800000  0  4G 6G13G11G 9
  21435402.764    21435405.414     -898068.675 9  -2056215.984 7
  21085437.113    21085442.485   -44184104.224 8  26083539.645 7
  21070388.073    21070391.711   -11603775.826 9 -10339442.644 7
  20072201.873    20072205.949   -33651176.160 7  13126483.991 7
 88  3 30  5 22 29.0800000  0  4G 6G13G11G 9
  21450386.079    21450391.575     -819329.816 9  -1994861.042 8
  21077368.051    21077371.742   -44226504.185 8  26050500.739 7
  21078832.888    21078838.527   -11559396.383 9 -10304861.273 8
  20070946.468    20070949.761   -33657768.014 7  13121347.468 5
 88  3 30  5 22 59.0800000  0  4G 6G13G11G 9
  21465463.350    21465467.229     -740101.081 9  -1933124.395 8
  21069385.633    21069390.553   -44268454.178 9  26017812.445 7
  21087336.893    21087341.649   -11514707.400 9 -10270038.672 8
  20069813.653    20069815.373   -33663732.927 7  13116699.485 6
 88  3 30  5 23 29.0800000  0  4G 6G13G11G 9
  21480632.228    21480635.495     -660384.505 9  -1871007.589 8
  21061487.951    21061493.167   -44309954.338 9  25985474.685 7
  21095899.491    21095903.128   -11469711.222 9 -10234976.723 7
  20068795.468    20068799.490   -33669069.947 7  13112540.767 6
 88  3 30  5 23 59.0800000  0  4G 6G13G11G 9
  21495895.304    21495898.081     -580181.660 8  -1808511.889 8
  21053677.659    21053680.772   -44351004.812 8  25953487.328 7
  21104520.527    21104524.075   -11424409.934 8 -10199677.014 7
  20067901.060    20067903.595   -33673777.735 7  13108872.360 6
 88  3 30  5 24 29.0800000  0  4G 6G13G11G 9
  21511248.579    21511252.526     -499494.408 9  -1745638.731 8
  21045950.423    21045954.529   -44391606.092 8  25921849.960 8
  21113197.873    21113202.683   -11378805.882 8 -10164141.403 7
  20067124.199    20067128.158   -33677854.921 7  13105695.318 6
 88  3 30  5 24 59.0800000  0  4G 6G13G11G 9
  21526694.653    21526699.791     -418325.245 9  -1682390.054 7
  21038309.632    21038314.279   -44431759.078 8  25890561.956 7
  21121933.227    21121936.207   -11332902.276 8 -10128372.355 8
  20066469.292    20066471.397   -33681301.315 7  13103009.799 5
 88  3 30  5 25 29.0800000  0  4G 6G13G11G 9
  21542232.353    21542237.632     -336675.278 8  -1618766.720 8
  21030754.150    21030757.805   -44471463.284 8  25859623.651 7
  21130726.054    21130729.131   -11286700.270 9 -10092370.788 8
  20065932.322    20065937.803   -33684115.006 7  13100817.311 6
 88  3 30  5 25 59.0800000  0  4G 6G13G11G 9
  21557861.582    21557866.106     -254546.486 9  -1554770.278 8
  21023283.613    21023287.584   -44510719.230 9  25829034.628 7
  21139572.598    21139576.573   -11240202.440 8 -10056138.721 7
  20065518.725    20065521.589   -33686295.186 7  13099118.474 6
 88  3 30  5 26 29.0800000  0  4G 6G13G11G 9
  21573580.976    21573585.673     -171940.900 9  -1490402.317 8
  21015898.759    21015902.584   -44549527.714 9  25798794.249 6
  21148477.534    21148480.945   -11193410.967 8 -10019677.839 8
  20065225.691    20065227.894   -33687840.803 7  13097914.116 6
 88  3 30  5 26 59.0800000  0  4G 6G13G11G 9
  21589389.735    21589394.700      -88859.613 8  -1425663.681 7
  21008599.008    21008602.744   -44587888.147 8  25768903.026 7
  21157438.007    21157442.866   -11146327.419 8  -9982989.375 8
  20065050.816    20065055.313   -33688750.063 7  13097205.578 6
 88  3 30  5 27 29.0800000  0  4G 6G13G11G 9
  21605290.252    21605294.247       -5305.551 9  -1360556.636 8
  21001383.087    21001389.093   -44625802.230 8  25739359.591 7
  21166450.801    21166456.633   -11098955.241 8  -9946076.005 7
  20065000.097    20065003.637   -33689023.037 6  13096992.877 6
 88  3 30  5 27 59.0800000  0  4G 6G13G11G 9
  21621279.609    21621284.225       78720.309 9  -1295081.971 8
  20994254.374    20994258.294   -44663268.827 8  25710164.839 6
  21175521.036    21175524.116   -11051295.761 8  -9908938.748 7
  20065070.238    20065071.732   -33688657.826 7  13097277.433 5
 88  3 30  5 28 29.0800000  0  4G 6G13G11G 9
  21637358.905    21637363.156      163215.132 9  -1229241.882 7
  20987209.519    20987214.160   -44700289.427 8  25681317.632 8
  21184644.114    21184649.145   -11003352.450 8  -9871580.311 8
  20065260.010    20065265.724   -33687654.642 7  13098059.122 6
 88  3 30  5 28 59.0800000  0  4G 6G13G11G 9
  21653526.963    21653530.312      248177.296 9  -1163037.595 8
  20980249.133    20980252.675   -44736864.367 9  25652817.711 7
  21193821.909    21193826.909   -10955126.735 8  -9834001.876 8
  20065574.479    20065577.331   -33686011.790 7  13099339.287 7
 88  3 30  5 29 29.0800000  0  4G 6G13G11G 9
  21669783.080    21669787.102      333605.624 9  -1096470.111 8
  20973373.964    20973378.521   -44772993.487 8  25624665.163 7
  21203053.124    21203055.610   -10906620.102 9  -9796204.474 7
  20066006.207    20066010.302   -33683727.768 7  13101119.020 5
 88  3 30  5 29 59.0800000  0  4G 6G13G11G 9
  21686127.227    21686131.008      419497.603 9  -1029541.320 7
  20966583.138    20966588.976   -44808677.620 8  25596859.350 6
  21212334.266    21212340.056   -10857835.509 9  -9758190.537 8
  20066564.848    20066568.722   -33680802.349 8  13103398.567 6
 88  3 30  5 30 29.0800000  0  4G 6G13G11G 9
  21702560.638    21702563.032      505851.256 9   -962252.759 7
  20959877.233    20959882.154   -44843917.351 8  25569399.815 7
  21221672.520    21221675.029   -10808775.096 9  -9719961.649 8
  20067242.617    20067246.377   -33677234.733 7  13106178.535 6
 88  3 30  5 30 59.0800000  0  4G 6G13G11G 9
  21719080.131    21719084.284      592665.558 8   -894605.278 8
  20953257.567    20953260.848   -44878711.934 9  25542287.177 8
  21231058.004    21231062.896   -10759440.013 9  -9681518.725 8
  20068044.399    20068048.239   -33673022.989 7  13109460.409 7
 88  3 30  5 31 29.0800000  0  4G 6G13G11G 9
  21735687.541    21735692.133      679937.260 8   -826601.377 8
  20946720.851    20946725.634   -44913062.862 9  25515520.226 7
  21240500.445    21240506.272   -10709834.009 9  -9642864.716 8
  20068968.712    20068972.271   -33668167.640 8  13113243.793 6
 88  3 30  5 31 59.0800000  0  4G 6G13G11G 9
  21752381.534    21752385.331      767664.616 8   -758242.395 8
  20940267.644    20940272.641   -44946971.109 8  25489098.242 7
  21249990.942    21249995.063   -10659958.939 8  -9604001.040 8
  20070014.335    20070017.997   -33662667.474 6  13117529.615 7
 88  3 30  5 32 29.0800000  0  4G 6G13G11G 9
  21769162.981    21769166.121      855845.954 9   -689529.710 8
  20933899.092    20933903.926   -44980436.379 8  25463021.437 7
  21259532.632    21259536.046   -10609816.652 9  -9564929.134 8
  20071182.215    20071188.349   -33656521.586 7  13122318.605 7
 88  3 30  5 32 59.0800000  0  4G 6G13G11G 9
  21786028.597    21786032.307      944478.662 8   -620465.279 8
  20927616.227    20927619.831   -45013459.801 9  25437288.901 7
  21269125.417    21269129.074   -10559410.251 8  -9525651.407 8
  20072477.116    20072481.119   -33649729.579 7  13127611.063 6
 88  3 30  5 33 29.0800000  0  4G 6G13G11G 9
  21802980.331    21802984.182     1033561.246 9   -551050.294 8
  20921414.822    20921419.656   -45046041.625 9  25411900.486 8
  21278765.279    21278771.899   -10508740.884 8  -9486168.829 9
  20073891.560    20073893.707   -33642290.300 7  13133407.909 7
 88  3 30  5 33 59.0800000  0  4G 6G13G11G 9
  21820017.385    21820021.679     1123091.376 9   -481286.598 8
  20915299.557    20915303.819   -45078182.486 9  25386855.682 7
  21288458.497    21288461.087   -10457811.186 9  -9446483.334 7
  20075431.675    20075435.156   -33634203.481 7  13139709.326 6
 88  3 30  5 34 29.0800000  0  4G 6G13G11G 9
  21837138.809    21837143.604     1213066.843 8   -411175.871 7
  20909265.469    20909269.666   -45109882.743 9  25362154.211 9
  21298197.516    21298202.525   -10406623.387 9  -9406596.745 8
  20077092.871    20077096.874   -33625468.220 7  13146516.007 6
 88  3 30  5 34 59.0800000  0  4G 6G13G11G 9
  21854346.674    21854350.039     1303485.800 9   -340719.563 8
  20903318.142    20903323.107   -45141143.570 9  25337795.154 7
  21307988.370    21307993.149   -10355179.393 8  -9366510.538 8
  20078879.113    20078884.182   -33616083.885 7  13153828.485 7
 88  3 30  5 35 29.0800000  0  4G 6G13G11G 9
  21871635.369    21871639.809     1394345.710 9   -269919.647 7
  20897452.845    20897456.876   -45171965.874 9  25313777.783 7
  21317826.460    21317831.282   -10303481.750 9  -9326226.642 8
  20080790.081    20080794.435   -33606050.218 7  13161646.898 6
 88  3 30  5 35 59.0800000  0  4G 6G13G11G 9
  21889009.367    21889012.488     1485644.053 8   -198778.124 8
  20891670.748    20891673.171   -45202350.043 9  25290101.811 7
  21327710.654    21327714.904   -10251533.063 8  -9285747.181 8
  20082820.285    20082824.906   -33595367.149 8  13169971.371 6
 88  3 30  5 36 29.0800000  0  4G 6G13G11G 9
  21906466.855    21906469.134     1577378.617 8   -127296.677 8
  20885971.358    20885976.112   -45232297.281 9  25266766.313 7
  21337645.349    21337650.239   -10199335.860 9  -9245074.047 9
  20084977.456    20084982.616   -33584034.381 8  13178802.094 6
 88  3 30  5 36 59.0800000  0  4G 6G13G11G 9
  21924004.104    21924008.629     1669547.379 8    -55476.892 8
  20880355.759    20880361.544   -45261807.738 8  25243771.122 8
  21347623.967    21347627.536   -10146892.021 8  -9204208.723 8
  20087258.436    20087263.411   -33572050.987 7  13188139.804 6
 88  3 30  5 37 29.0800000  0  4G 6G13G11G 9
  21941626.670    21941631.030     1762148.748 9     16679.996 8
  20874822.635    20874827.479   -45290881.793 9  25221116.034 7
  21357649.634    21357654.370   -10094202.996 8  -9163152.340 8
  20089665.632    20089667.249   -33559415.808 7  13197985.367 6
 88  3 30  5 37 59.0800000  0  4G 6G13G11G 9
  21959329.526    21959333.538     1855180.582 8     89172.314 8
  20869374.072    20869378.453   -45319519.915 9  25198800.615 7
  21367723.219    21367729.217   -10041271.112 8  -9121906.719 9
  20092190.304    20092196.936   -33546128.524 8  13208339.095 6
 88  3 30  5 38 29.0800000  0  4G 6G13G11G 9
  21977114.540    21977118.692     1948640.539 8    161998.227 9
  20864006.795    20864011.546   -45347722.791 9  25176824.348 7
  21377839.686    21377847.032    -9988098.403 9  -9080473.483 8
  20094845.862    20094847.695   -33532188.905 7  13219201.160 6
 88  3 30  5 38 59.0800000  0  4G 6G13G11G 9
  21994980.229    21994983.233     2042526.006 8    235155.698 8
  20858722.710    20858728.235   -45375491.646 9  25155186.281 7
  21388005.663    21388008.476    -9934687.617 9  -9038854.693 8
  20097620.640    20097624.390   -33517596.951 8  13230571.482 7
 88  3 30  5 39 29.0800000  0  4G 6G13G11G 9
  22012926.457    22012930.254     2136834.501 9    308642.802 8
  20853521.130    20853525.059   -45402827.652 8  25133885.515 7
  21398212.363    21398218.101    -9881040.987 8  -8997052.103 8
  20100523.187    20100526.110   -33502352.431 7  13242450.324 7
 88  3 30  5 39 59.0800000  0  4G 6G13G11G 9
  22030953.867    22030957.207     2231563.968 8    382457.947 8
  20848401.549    20848405.350   -45429731.457 8  25112921.516 8
  21408465.409    21408472.787    -9827160.437 8  -8955067.307 9
  20103545.763    20103550.760   -33486454.855 7  13254838.044 6
 88  3 30  5 40 29.0800000  0  4G 6G13G11G 9
  22049059.651    22049062.283     2326712.600 9    456599.694 7
  20843363.506    20843367.674   -45456203.366 9  25092294.060 7
  21418763.769    21418767.486    -9773047.731 9  -8912901.569 8
  20106696.146    20106700.260   -33469903.495 7  13267735.190 6
 88  3 30  5 40 59.0800000  0  4G 6G13G11G 9
  22067243.859    22067248.211     2422277.642 8    531065.937 7
  20838408.061    20838411.521   -45482244.235 9  25072002.477 6
  21429104.667    21429109.658    -9718705.418 8  -8870556.903 7
  20109973.126    20109975.383   -33452698.332 7  13281141.806 6
 88  3 30  5 41 29.0800000  0  4G 6G13G11G 9
  22085509.716    22085512.980     2518256.923 9    605854.949 8
  20833534.089    20833540.422   -45507854.911 9  25052046.095 8
  21439488.957    21439494.840    -9664135.968 9  -8828035.272 8
  20113368.715    20113374.604   -33434839.358 8  13295057.869 6
 88  3 30  5 41 59.0800000  0  4G 6G13G11G 9
  22103851.046    22103855.681     2614647.917 7    680964.780 8
  20828742.938    20828746.676   -45533036.197 9  25032424.344 7
  21449916.431    21449921.931    -9609341.220 9  -8785338.077 8
  20116893.143    20116895.237   -33416326.336 7  13309483.591 5
 88  3 30  5 42 29.0800000  0  4G 6G13G11G 9
  22122271.826    22122277.194     2711448.342 9    756393.635 8
  20824032.256    20824035.195   -45557789.657 8  25013135.947 7
  21460384.961    21460389.615    -9554323.857 8  -8742467.394 8
  20120538.942    20120544.008   -33397159.173 8  13324419.043 6
 88  3 30  5 42 59.0800000  0  4G 6G13G11G 9
  22140770.221    22140773.488     2808655.975 8    832139.829 8
  20819403.397    20819407.873   -45582115.367 9  24994180.848 7
  21470896.900    21470901.780    -9499085.073 9  -8699424.212 8
  20124311.076    20124314.956   -33377337.584 7  13339864.410 6
 88  3 30  5 43 29.0800000  0  4G 6G13G11G 9
  22159343.641    22159347.905     2906268.315 8    908201.363 8
  20814855.424    20814859.595   -45606014.275 8  24975558.340 8
  21481449.488    21481454.792    -9443627.566 9  -8656210.573 8
  20128208.246    20128212.318   -33356861.484 7  13355819.815 6
 88  3 30  5 43 59.0800000  0  4G 6G13G11G 9
  22177996.233    22178000.742     3004282.963 8    984576.381 8
  20810388.532    20810393.667   -45629486.985 8  24957267.910 7
  21492046.310    21492047.818    -9387953.190 9  -8612827.944 7
  20132229.637    20132235.150   -33335730.924 8  13372285.190 6
 88  3 30  5 44 29.0800000  0  4G 6G13G11G 9
  22196724.482    22196728.985     3102697.489 9   1061262.991 7
  20806003.216    20806007.733   -45652535.328 8  24939308.189 6
  21502681.393    21502685.537    -9332064.209 9  -8569278.071 9
  20136376.413    20136377.624   -33313945.860 8  13389260.552 6
 88  3 30  5 44 59.0800000  0  4G 6G13G11G 9
  22215526.988    22215533.613     3201509.136 9   1138259.032 8
  20801698.179    20801701.809   -45675160.351 9  24921678.298 7
  21513355.060    21513361.814    -9275963.349 9  -8525563.167 9
  20140644.611    20140647.477   -33291506.649 8  13406745.633 6
 88  3 30  5 45 29.0800000  0  4G 6G13G11G 9
  22234405.471    22234410.680     3300715.779 8   1215562.885 8
  20797471.251    20797476.390   -45697362.909 8  24904377.629 8
  21524073.028    21524075.490    -9219652.484 9  -8481684.579 7
  20145038.770    20145044.450   -33268413.050 7  13424740.634 7
 88  3 30  5 45 59.0800000  0  4G 6G13G11G 9
  22253359.760    22253363.326     3400315.195 9   1293172.789 8
  20793327.998    20793330.353   -45719142.962 9  24887406.159 7
  21534826.157    21534831.701    -9163133.435 8  -8437643.755 9
  20149558.760    20149561.818   -33244664.855 8  13443245.731 5
 88  3 30  5 46 29.0800000  0  4G 6G13G11G 9
  22272387.416    22272390.224     3500304.074 8   1371086.160 7
  20789262.857    20789268.455   -45740502.966 8  24870762.003 8
  21545620.438    21545625.864    -9106409.042 9  -8393442.953 8
  20154203.094    20154205.834   -33220262.999 8  13462260.142 6
 88  3 30  5 46 59.0800000  0  4G 6G13G11G 9
  22291487.633    22291492.855     3600680.410 9   1449301.443 8
  20785279.566    20785282.455   -45761443.410 8  24854444.781 6
  21556454.294    21556459.846    -9049481.297 9  -8349083.685 9
  20158971.509    20158973.135   -33195207.284 8  13481784.061 6
 88  3 30  5 47 29.0800000  0  4G 6G13G11G 9
  22310661.362    22310666.491     3701441.672 8   1527816.684 9
  20781372.604    20781376.180   -45781964.710 8  24838454.177 8
                  21567325.027   -71593779.523 8
  20163861.719    20163864.404   -33169497.476 8  13501817.680 6
 88  3 30  5 47 59.0800000  0  4G 6G13G11G 9
  22329907.429    22329912.209     3802585.557 8   1606630.055 7
  20777547.205    20777552.116   -45802068.027 8  24822789.273 8
  21578233.868    21578238.848   -71536451.463 8  90816698.231 8
  20168879.175    20168882.474   -33143133.938 8  13522360.704 7
 88  3 30  5 48 29.0800000  0  4G 6G13G11G 9
  22349227.509    22349232.668     3904109.958 8   1685739.930 7
  20773801.339    20773805.419   -45821753.994 8  24807449.560 7
  21589180.852    21589185.581   -71478924.836 9  90861524.148 9
  20174020.490    20174024.022   -33116116.291 8  13543413.392 7
 88  3 30  5 48 59.0800000  0  4G 6G13G11G 9
  22368619.439    22368623.297     4006012.831 8   1765144.728 8
  20770135.274    20770139.105   -45841023.365 8  24792434.485 7
  21600166.076    21600170.719   -71421201.936 9  90906503.028 8
  20179285.625    20179286.712   -33088444.693 8  13564975.688 7
 88  3 30  5 49 29.0800000  0  4G 6G13G11G 9
  22388082.819    22388086.475     4108290.481 8   1844841.574 9
  20766547.472    20766551.354   -45859878.449 7  24777742.204 7
  21611188.162    21611191.659   -71363286.101 8  90951632.248 9
  20184675.278    20184678.739   -33060120.104 7  13587046.779 6
 88  3 30  5 49 59.0800000  0  4G 6G13G11G 9
  22407614.690    22407619.868     4210940.848 8   1924828.832 8
  20763037.931    20763042.968   -45878319.631 8  24763372.463 7
  21622243.601    21622250.291   -71305179.011 8  90996910.477 9
  20190190.019    20190193.281   -33031142.600 7  13609626.640 5
 88  3 30  5 50 29.0800000  0  4G 6G13G11G 9
  22427219.056    22427224.335     4313960.487 8   2005103.854 8
  20759605.738    20759611.002   -45896348.476 8  24749324.030 7
  21633336.029    21633343.120   -71246883.391 8  91042335.604 8
  20195830.035    20195831.068   -33001513.194 8  13632714.483 7
 88  3 30  5 50 59.0800000  0  4G 6G13G11G 9
  22446893.143    22446898.489     4417347.209 8   2085664.905 8
  20756254.281    20756259.739   -45913965.981 7  24735596.114 8
  21644466.292    21644471.323   -71188401.078 9  91087906.242 8
  20201592.234    20201594.613   -32971232.098 8  13656310.124 7
 88  3 30  5 51 29.0800000  0  4G 6G13G11G 9
  22466637.454    22466641.525     4521098.877 8   2166510.328 8
  20752980.660    20752984.487   -45931172.445 7  24722188.491 8
  21655629.365    21655636.126   -71129733.588 8  91133621.182 8
  20207478.962    20207479.507   -32940299.035 7  13680413.822 7
 88  3 30  5 51 59.0800000  0  4G 6G13G11G 9
  22486448.581    22486453.991     4625212.863 8   2247638.067 8
  20749783.447    20749789.159   -45947969.565 8  24709099.838 7
  21666828.484    21666835.245   -71070883.367 8  91179478.439 8
  20213488.237    20213491.656   -32908714.855 7  13705024.844 7
 88  3 30  5 52 29.0800000  0  4G 6G13G11G 9
  22506330.223    22506334.531     4729686.241 8   2329045.853 8
  20746664.798    20746670.558   -45964358.701 8  24696329.102 8
  21678063.647    21678067.360   -71011852.453 9  91225476.557 8
  20219623.765    20219626.993   -32876479.897 7  13730142.972 6
 88  3 30  5 52 59.0800000  0  4G 6G13G11G 9
  22526279.507    22526283.027     4834516.519 8   2410731.757 8
  20743622.754    20743627.649   -45980340.990 7  24683875.382 7
  21689329.689    21689333.932   -70952642.985 7  91271613.855 8
  20225879.391    20225882.404   -32843594.884 8  13755767.662 7
 88  3 30  5 53 29.0800000  0  4G 6G13G11G 9
  22546295.657    22546298.417     4939701.279 8   2492693.857 8
  20740659.840    20740664.615   -45995917.518 8  24671737.817 8
  21700628.485    21700636.391   -70893256.564 8  91317888.944 8
  20232261.209    20232265.082   -32810059.981 8  13781898.734 7
 88  3 30  5 53 59.0800000  0  4G 6G13G11G 9
  22566379.636    22566383.094     5045238.057 8   2574930.287 8
  20737772.346    20737778.066   -46011088.599 8  24659916.220 8
  21711966.646    21711970.216   -70833695.270 9  91364300.332 7
  20238765.619    20238769.340   -32775875.374 7  13808536.075 6
 88  3 30  5 54 29.0800000  0  4G 6G13G11G 9
  22586527.031    22586532.133     5151123.960 8   2657438.733 8
  20734961.102    20734967.521   -46025855.902 8  24648409.247 7
  21723331.993    21723334.204   -70773961.348 8  91410846.290 7
  20245395.268    20245398.309   -32741042.317 7  13835678.715 7
 88  3 30  5 54 59.0800000  0  4G 6G13G11G 9
  22606742.687    22606746.594     5257356.334 8   2740217.184 8
  20732227.707    20732233.162   -46040220.516 7  24637216.031 8
  21734731.212    21734736.914   -70714056.775 8  91457525.160 9
  20252147.535    20252149.694   -32705561.061 7  13863326.442 7
 88  3 30  5 55 29.0800000  0  4G 6G13G11G 9
  22627023.349    22627028.578     5363932.668 8   2823263.613 8
  20729573.146    20729577.122   -46054184.235 9  24626335.234 7
  21746164.628    21746167.984   -70653983.678 9  91504335.357 9
  20259022.769    20259025.333   -32669432.209 7  13891478.780 8
 88  3 30  5 55 59.0800000  0  4G 6G13G11G 9
  22647368.810    22647375.113     5470850.095 8   2906575.849 8
  20726990.261    20726994.901   -46067748.279 7  24615765.871 7
  21757624.703    21757631.078   -70593743.875 9  91551275.438 8
  20266022.026    20266023.725   -32632656.642 7  13920135.071 7
 88  3 30  5 56 29.0800000  0  4G 6G13G11G 9
  22667778.840    22667783.313     5578105.767 8   2990151.677 7
  20724484.740    20724488.718   -46080914.049 8  24605506.845 7
  21769120.536    21769123.420   -70533339.446 9  91598343.840 9
  20273141.527    20273144.977   -32595235.246 8  13949294.577 7
 88  3 30  5 56 59.0800000  0  4G 6G13G11G 9
  22688253.613    22688258.344     5685697.679 8   3073989.484 9
  20722055.846    20722060.217   -46093681.632 8  24595558.080 8
  21780647.736    21780650.849   -70472771.934 9  91645539.326 8
  20280385.407    20280388.320   -32557168.018 7  13978957.344 6
 88  3 30  5 57 29.0800000  0  4G 6G13G11G 9
  22708789.530    22708796.041     5793623.026 9   3158087.124 8
  20719701.219    20719705.600   -46106052.469 8  24585918.491 8
  21792202.023    21792207.782   -70412043.312 8  91692860.312 8
  20287752.653    20287755.444   -32518455.710 8  14009122.760 8
 88  3 30  5 57 59.0800000  0  4G 6G13G11G 9
  22729393.208    22729396.185     5901878.956 9   3242442.364 8
  20717421.632    20717428.678   -46118027.610 7  24576587.206 8
  21803789.479    21803792.963   -70351156.232 8  91740304.767 8
  20295241.393    20295244.860   -32479099.379 7  14039790.022 8
 88  3 30  5 58 29.0800000  0  4G 6G13G11G 9
  22750054.909    22750058.488     6010461.658 8   3327052.228 7
  20715217.899    20715223.082   -46129609.772 8  24567562.167 6
  21815404.193    21815409.479   -70290113.502 8  91787870.542 8
  20302852.029    20302855.290   -32439100.854 7  14070957.680 7
 88  3 30  5 58 59.0800000  0  4G 6G13G11G 9
  22770778.548    22770784.409     6119369.067 9   3411915.118 8
  20713087.836    20713094.044   -46140799.770 8  24558842.678 8
  21827049.830    21827054.987   -70228915.961 8  91835556.914 9
  20310586.864    20310590.250   -32398460.411 8  14102625.550 6
 88  3 30  5 59 29.0800000  0  4G 6G13G11G 9
  22791562.900    22791568.402     6228598.731 8   3497029.098 9
  20711033.414    20711038.732   -46151599.076 8  24550427.666 8
  21838724.598    21838730.859   -70167565.339 8  91883362.577 9
  20318441.875    20318446.552   -32357178.457 8  14134793.292 7
 88  3 30  5 59 59.0800000  0  4G 6G13G11G 9
  22812411.358    22812415.622     6338147.804 8   3582391.963 8
  20709053.583    20709058.222   -46162007.979 8  24542316.840 8
  21850429.476    21850433.776   -70106063.814 9  91931285.863 8
  20326420.720    20326422.593   -32315256.157 8  14167460.006 6
 88  3 30  6  0 29.0800000  0  4G 6G13G11G 9
  22833317.767    22833322.771     6448014.302 8   3668002.179 8
  20707146.509    20707151.455   -46172027.541 8  24534509.405 7
  21862159.350    21862164.938   -70044412.766 8  91979325.616 9
  20334518.973    20334523.593   -32272693.679 7  14200625.543 7
 88  3 30  6  0 59.0800000  0  4G 6G13G11G 9
  22854284.907    22854288.585     6558194.701 9   3753857.003 8
  20705314.443    20705318.863   -46181659.922 8  24527003.653 8
  21873921.192    21873925.806   -69982615.033 9  92027479.672 8
  20342738.384    20342744.716   -32229492.709 7  14234288.623 7
 88  3 30  6  1 29.0800000  0  4G 6G13G11G 9
  22875309.640    22875314.362     6668685.861 8   3839953.957 8
  20703554.531    20703559.164   -46190906.762 8  24519798.347 7
  21885705.842    21885711.887   -69920672.628 8  92075746.478 9
  20351081.213    20351085.459   -32185654.465 8  14268448.306 7
 88  3 30  6  1 59.0800000  0  4G 6G13G11G 9
  22896395.322    22896398.856     6779485.310 8   3926291.148 8
  20701868.033    20701871.649   -46199769.124 8  24512892.603 7
  21897519.226    21897525.671   -69858587.222 8  92124124.725 9
  20359545.531    20359549.093   -32141179.984 7  14303103.710 7
 88  3 30  6  2 29.0800000  0  4G 6G13G11G 9
  22917536.489    22917542.134     6890590.943 8   4012866.933 8
  20700254.654    20700259.977   -46208247.651 8  24506285.976 8
  21909362.557    21909368.016   -69796360.232 8  92172613.277 9
  20368129.527    20368135.266   -32096069.336 8  14338254.865 7
 88  3 30  6  2 59.0800000  0  4G 6G13G11G 9
  22938738.369    22938742.770     7001999.204 9   4099678.518 9
  20698714.130    20698718.877   -46216344.414 8  24499976.821 8
  21921231.474    21921237.177   -69733994.120 8  92221210.222 9
  20376832.859    20376838.368   -32050324.490 7  14373900.178 7
 88  3 30  6  3 29.0800000  0  4G 6G13G11G 9
  22959995.575    22960000.772     7113707.193 8   4186723.661 7
  20697246.337    20697249.127   -46224060.935 8  24493963.956 8
  21933125.218    21933129.003   -69671490.601 8  92269914.244 8
  20385659.678    20385662.399   -32003946.710 7  14410038.689 7
 88  3 30  6  3 59.0800000  0  4G 6G13G11G 9
  22981310.843    22981314.700     7225712.327 9   4274000.370 8
  20695848.513    20695854.432   -46231398.586 8  24488246.307 7
  21945045.218    21945048.302   -69608851.763 9  92318723.767 8
  20394605.760    20394610.389   -31956936.649 7  14446669.895 6
 88  3 30  6  4 29.0800000  0  4G 6G13G11G 9
  23002679.383    23002683.289     7338011.797 9   4361506.419 8
  20694524.915    20694527.699   -46238358.312 8  24482823.170 9
  21956989.044    21956995.620   -69546079.409 8  92367637.279 8
  20403670.063    20403675.839   -31909295.735 7  14483792.647 7
 88  3 30  6  4 59.0800000  0  4G 6G13G11G 9
  23024105.294    23024108.723     7450602.922 9   4449239.735 8
  20693271.721    20693276.492   -46244941.832 9  24477693.138 8
  21968960.300    21968966.862   -69483175.112 8  92416653.582 7
  20412856.512    20412861.126   -31861025.182 8  14521406.064 8
 88  3 30  6  5 29.0800000  0  4G 6G13G11G 9
  23045584.638    23045588.946     7563482.621 9   4537197.918 8
  20692090.175    20692093.860   -46251150.400 9  24472855.312 8
  21980955.024    21980959.452   -69420141.073 8  92465771.044 8
  20422162.775    20422164.927   -31812125.954 8  14559509.345 7
 88  3 30  6  5 59.0800000  0  4G 6G13G11G 9
  23067120.101    23067123.100     7676648.156 9   4625378.847 8
  20690979.543    20690982.888   -46256985.309 8  24468308.639 8
  21992975.203    21992979.089   -69356979.196 8  92514988.081 8
  20431587.546    20431591.084   -31762599.628 8  14598101.280 7
 88  3 30  6  6 29.0800000  0  4G 6G13G11G 9
  23088708.243    23088712.388     7790096.494 8   4713780.106 7
  20689940.478    20689943.888   -46262448.322 8  24464051.751 8
  22005018.736    22005022.850   -69293691.202 9  92564303.404 8
  20441129.569    20441135.631   -31712447.353 8  14637180.960 7
 88  3 30  6  6 59.0800000  0  4G 6G13G11G 9
  23110350.467    23110356.062     7903824.870 8   4802399.596 8
  20688970.295    20688976.014   -46267540.706 8  24460083.662 8
  22017085.148    22017090.222   -69230279.052 8  92613715.486 9
  20450792.874    20450796.322   -31661670.549 8  14676747.290 8
 88  3 30  6  7 29.0800000  0  4G 6G13G11G 9
  23132044.435    23132048.978     8017830.667 9   4891235.268 7
  20688071.355    20688076.378   -46272263.853 9  24456403.296 8
  22029173.869    22029179.629   -69166744.274 8  92663223.074 8
  20460574.747    20460580.081   -31610270.391 8  14716799.354 7
 88  3 30  6  7 59.0800000  0  4G 6G13G11G 9
  23153791.088    23153796.076     8132111.506 8   4980285.227 9
  20687244.712    20687249.478   -46276618.401 8  24453010.143 7
  22041287.516    22041292.188   -69103088.440 8  92712824.998 8
  20470474.433    20470477.162   -31558247.603 8  14757336.570 6
 88  3 30  6  8 29.0800000  0  4G 6G13G11G 9
  23175589.911    23175593.726     8246663.500 8   5069546.493 8
  20686484.249    20686489.185   -46280607.192 8  24449902.016 8
  22053424.187    22053429.989   -69039313.843 8  92762519.507 8
  20480492.691    20480495.019   -31505604.456 9  14798357.198 6
 88  3 30  6  8 59.0800000  0  4G 6G13G11G 9
  23197439.203    23197444.342     8361484.092 8   5159017.056 8
  20685794.418    20685799.386   -46284231.453 8  24447077.921 7
  22065582.694    22065587.595   -68975422.421 8  92812305.027 9
  20490628.136    20490632.276   -31452342.210 8  14839860.216 8
 88  3 30  6  9 29.0800000  0  4G 6G13G11G 9
  23219340.046    23219342.994     8476570.680 8   5248694.900 8
  20685174.910    20685178.117   -46287492.288 7  24444537.022 7
  22077763.379    22077767.265   -68911415.981 7  92862180.186 8
  20500880.061    20500883.158   -31398462.121 8  14881844.723 7
 88  3 30  6  9 59.0800000  0  4G 6G13G11G 9
  23241289.726    23241293.724     8591919.716 8   5338577.255 8
  20684622.851    20684627.959   -46290391.605 8  24442277.809 8
  22089963.110    22089969.686   -68847296.434 8  92912143.436 9
  20511250.719    20511255.551   -31343965.850 8  14924309.325 7
 88  3 30  6 10 29.0800000  0  4G 6G13G11G 9
  23263289.278    23263294.909     8707528.691 8   5428662.130 8
  20684138.718    20684144.795   -46292931.165 7  24440298.944 8
  22102186.595    22102192.139   -68783065.268 8  92962193.677 9
  20521737.927    20521740.452   -31288855.246 8  14967252.638 7
 88  3 30  6 10 59.0800000  0  4G 6G13G11G 9
  23285338.577    23285343.737     8823394.642 9   5518947.274 9
  20683724.363    20683729.175   -46295111.779 9  24438599.767 9
  22114431.744    22114435.513   -68718724.055 9  93012329.706 8
  20532341.910    20532345.926   -31233131.344 8  15010673.854 7
 88  3 30  6 11 29.0800000  0  4G 6G13G11G 9
  23307436.300    23307441.344     8939514.862 8   5609430.524 8
  20683377.541    20683382.105   -46296934.989 7  24437179.099 8
  22126694.464    22126698.893   -68654274.733 9  93062549.930 8
  20543060.833    20543066.839   -31176795.719 8  15054571.736 7
 88  3 30  6 11 59.0800000  0  4G 6G13G11G 9
  23329580.081    23329584.425     9055886.385 8   5700109.637 8
  20683097.804    20683103.507   -46298402.490 8  24436035.595 8
  22138978.807    22138984.308   -68589718.999 8  93112853.098 9
  20553899.253    20553901.460   -31119850.008 7  15098945.000 6
 88  3 30  6 12 29.0800000  0  4G 6G13G11G 9
  23351772.310    23351776.251     9172506.114 8   5790982.088 9
  20682885.897    20682890.805   -46299516.318 8  24435167.685 8
  22151284.625    22151288.867   -68525058.841 9  93163237.613 8
  20564850.912    20564853.835   -31062295.942 8  15143792.324 7
 88  3 30  6 12 59.0800000  0  4G 6G13G11G 9
  23374010.891    23374015.992     9289371.414 7   5882045.931 9
  20682741.192    20682746.435   -46300276.308 9  24434575.490 8
  22163609.576    22163613.147   -68460295.924 8  93213702.237 8
  20575918.827    20575922.226   -31004134.684 7  15189112.760 7
 88  3 30  6 13 29.0800000  0  4G 6G13G11G 9
  23396294.788    23396301.171     9406479.362 6   5973298.840 7
  20682664.224    20682668.684   -46300685.232 8  24434256.855 8
  22175950.682    22175954.682   -68395431.562 8  93264245.893 9
  20587100.551    20587104.004   -30945368.139 7  15234904.866 7
 88  3 30  6 13 59.0800000  0  4G 6G13G11G 9
  23418624.992    23418630.437     9523826.797 8   6064738.357 8
  20682652.722    20682657.094   -46300744.568 8  24434210.628 9
  22188313.123    22188317.596   -68330467.902 8  93314866.921 9
  20598399.265    20598403.727   -30885998.345 8  15281167.021 8
 88  3 30  6 14 29.0800000  0  4G 6G13G11G 9
  23440999.065    23441006.651     9641410.773 7   6156362.212 9
  20682707.922    20682712.092   -46300455.800 9  24434435.636 8
  22200695.168    22200699.481   -68265406.371 9  93365564.232 8
  20609810.284    20609815.907   -30826026.719 8  15327898.146 8
 88  3 30  6 14 59.0800000  0  4G 6G13G11G 9
  23463421.921    23463426.866     9759228.371 8   6248168.076 8
  20682828.552    20682832.936   -46299821.004 8  24434930.295 7
  22213092.909    22213099.314   -68200249.118 7  93416336.082 8
  20621337.267    20621340.803   -30765455.221 7  15375096.688 7
 88  3 30  6 15 29.0800000  0  4G 6G13G11G 9
  23485883.428    23485890.009     9877276.683 8   6340153.762 7
  20683014.318    20683020.907   -46298841.251 8  24435693.739 8
  22225511.142    22225514.397   -68134997.528 8  93467181.430 9
  20632977.673    20632980.284   -30704285.516 8  15422761.370 8
 88  3 30  6 15 59.0800000  0  4G 6G13G11G 9
  23508393.153    23508397.683     9995552.910 8   6432317.020 7
  20683265.122    20683270.764   -46297517.699 8  24436725.083 7
  22237944.887    22237949.516   -68069653.063 8  93518099.229 7
  20644731.660    20644735.630   -30642518.981 8  15470891.131 7
 88  3 30  6 16 29.0800000  0  4G 6G13G11G 9
  23530943.731    23530947.060    10114054.270 8   6524655.727 8
  20683582.132    20683587.155   -46295851.740 8  24438023.247 8
  22250397.132    22250401.716   -68004217.458 8  93569088.045 8
  20656598.758    20656602.107   -30580157.585 7  15519484.403 7
 88  3 30  6 16 59.0800000  0  4G 6G13G11G 9
  23553536.144    23553540.151    10232777.562 8   6617167.363 7
  20683964.339    20683970.116   -46293845.861 8  24439586.274 8
  22262865.389    22262871.006   -67938692.619 8  93620146.325 9
  20668577.329    20668582.748   -30517203.295 8  15568539.677 7
 88  3 30  6 17 29.0800000  0  4G 6G13G11G 9
  23576170.546    23576173.652    10351720.002 8   6709849.780 7
  20684410.451    20684415.179   -46291500.896 9  24441413.534 8
  22275352.135    22275358.353   -67873079.809 8  93671273.123 9
  20680670.572    20680674.452   -30453657.698 8  15618055.694 7
 88  3 30  6 17 59.0800000  0  4G 6G13G11G 9
  23598844.527    23598848.892    10470878.299 9   6802700.349 8
  20684920.462    20684926.179   -46288819.631 7  24443502.842 7
  22287854.247    22287858.776   -67807380.976 8  93722467.046 8
  20692874.555    20692878.868   -30389523.099 8  15668030.705 7
 88  3 30  6 18 29.0800000  0  4G 6G13G11G 9
  23621560.887    23621563.940    10590249.783 8   6895717.071 8
  20685495.986    20685500.249   -46285802.643 8  24445853.732 8
  22300370.999    22300375.599   -67741597.691 9  93773726.786 9
  20705191.007    20705195.145   -30324801.156 9  15718463.382 8
 88  3 30  6 18 59.0800000  0  4G 6G13G11G 9
  23644316.265    23644319.742    10709831.754 8   6988897.800 8
  20686131.987    20686138.608   -46282451.086 9  24448465.345 8
  22312904.306    22312911.081   -67675731.020 7  93825051.458 8
  20717618.642    20717622.625   -30259493.467 9  15769352.457 7
 88  3 30  6 19 29.0800000  0  4G 6G13G11G 9
  23667110.994    23667116.025    10829620.643 8   7082239.756 8
  20686833.943    20686839.194   -46278767.442 8  24451335.729 8
  22325455.027    22325460.072   -67609783.177 8  93876439.366 9
  20730157.648    20730161.461   -30193602.606 8  15820695.985 7
 88  3 30  6 19 59.0800000  0  4G 6G13G11G 9
  23689943.814    23689949.168    10949613.761 7   7175740.824 8
  20687597.958    20687602.379   -46274753.081 9  24454463.817 7
  22338018.697    22338024.228   -67543755.873 9  93927889.199 8
  20742806.742    20742810.972   -30127130.445 9  15872492.454 7
 88  3 30  6 20 29.0800000  0  4G 6G13G11G 9
  23712817.473    23712821.273    11069808.405 7   7269398.960 8
  20688424.867    20688429.204   -46270409.206 7  24457848.646 8
  22350599.369    22350603.468   -67477650.150 9  93979400.146 8
  20755566.933    20755570.915   -30060078.605 9  15924740.631 7
 88  3 30  6 20 59.0800000  0  4G 6G13G11G 9
  23735725.833    23735732.945    11190201.220 7   7363211.486 9
  20689314.312    20689319.278   -46265737.620 9  24461488.842 8
  22363193.789    22363196.644   -67411468.004 7  94030970.683 7
  20768435.746    20768438.423   -29992449.493 9  15977438.633 7
 88  3 30  6 21 29.0800000  0  4G 6G13G11G 9
  23758673.471    23758679.710    11310789.565 8   7457176.319 9
  20690264.682    20690270.419   -46260740.326 8  24465382.859 8
  22375801.004    22375806.363   -67345210.566 8  94082599.840 8
  20781414.685    20781417.828   -29924244.808 7  16030585.113 7
 88  3 30  6 21 59.0800000  0  4G 6G13G11G 9
  23781657.475    23781662.898    11431570.217 8   7551291.085 8
  20691277.276    20691280.766   -46255418.727 9  24469529.566 8
  22388425.104    22388429.475   -67278879.857 9  94134286.109 8
  20794502.464    20794505.076   -29855466.716 9  16084178.440 7
 88  3 30  6 22 29.0800000  0  4G 6G13G11G 9
  23804678.755    23804681.889    11552540.278 8   7645553.467 8
  20692351.890    20692356.865   -46249774.510 9  24473927.650 9
  22401059.863    22401065.866   -67212477.201 9  94186028.439 8
  20807699.510    20807703.317   -29786117.331 8  16138216.905 7
 88  3 30  6 22 59.0800000  0  4G 6G13G11G 9
  23827733.617    23827738.062    11673696.877 8   7739961.166 8
  20693487.153    20693490.664   -46243809.034 7  24478576.084 7
  22413708.346    22413713.675   -67146004.026 8  94237825.741 8
  20821003.880    20821008.386   -29716198.754 8  16192698.885 9
 88  3 30  6 23 29.0800000  0  4G 6G13G11G 9
  23850823.080    23850828.619    11795036.803 9   7834511.711 8
  20694681.645    20694687.398   -46237524.188 8  24483473.364 8
  22426371.025    22426376.058   -67079462.003 8  94289676.664 8
  20834416.645    20834420.703   -29645713.087 8  16247622.770 8
 88  3 30  6 23 59.0800000  0  4G 6G13G11G 9
  23873948.810    23873952.861    11916556.963 8   7929202.720 8
  20695938.838    20695944.517   -46230921.858 8  24488618.038 7
  22439047.492    22439052.064   -67012853.254 8  94341579.574 8
  20847938.148    20847942.054   -29574663.056 8  16302986.412 8
 88  3 30  6 24 29.0800000  0  4G 6G13G11G 9
  23897107.544    23897110.972    12038254.475 8   8024031.910 8
  20697255.640    20697259.961   -46224003.681 8  24494008.824 8
  22451734.693    22451739.834   -66946178.318 9  94393534.079 8
  20861565.315    20861567.954   -29503050.187 7  16358788.627 8
 88  3 30  6 24 59.0800000  0  4G 6G13G11G 9
  23920297.816    23920301.980    12160125.336 9   8118996.177 8
  20698630.282    20698637.336   -46216772.296 8  24499643.680 9
  22464434.398    22464439.618   -66879440.129 8  94445537.880 8
  20875298.547    20875302.965   -29430878.243 8  16415026.500 7
 88  3 30  6 25 29.0800000  0  4G 6G13G11G 9
  23943521.419    23943527.173    12282168.148 8   8214094.443 7
  20700067.426    20700071.719   -46209227.693 7  24505522.590 8
  22477146.013    22477151.829   -66812638.503 7  94497591.059 8
  20889137.889    20889143.164   -29358147.344 7  16471699.874 7
 88  3 30  6 25 59.0800000  0  4G 6G13G11G 9
  23966778.866    23966783.046    12404379.206 9   8309323.791 7
  20701561.249    20701567.859   -46201371.821 7  24511644.045 8
  22489871.539    22489874.538   -66745775.741 8  94549691.931 9
  20903084.734    20903089.608   -29284860.863 8  16528806.226 8
 88  3 30  6 26 29.0800000  0  4G 6G13G11G 9
  23990064.851    23990069.659    12526755.665 7   8404682.027 8
  20703115.199    20703121.983   -46193206.543 8  24518006.611 9
  22502605.060    22502610.422   -66678852.775 9  94601839.716 7
  20917135.969    20917139.015   -29211020.941 9  16586343.810 8
 88  3 30  6 26 59.0800000  0  4G 6G13G11G 9
  24013383.649    24013389.421    12649294.654 6   8500166.930 8
  20704727.587    20704733.599   -46184733.299 8  24524609.139 8
  22515350.497    22515356.096   -66611870.935 6  94654033.342 8
  20931293.643    20931297.279   -29136629.294 8  16644311.310 9
 88  3 30  6 27 29.0800000  0  4G 6G13G11G 9
  24036732.980    24036737.453    12771993.140 7   8595776.071 7
  20706398.474    20706404.598   -46175953.948 8  24531450.192 8
  22528107.779    22528113.565   -66544832.548 8  94706271.035 9
  20945554.600    20945559.235   -29061688.778 8  16702706.493 8
 88  3 30  6 27 59.0800000  0  4G 6G13G11G 9
  24060108.971    24060117.750    12894848.692 7   8691507.618 9
  20708127.839    20708132.062   -46166869.522 8  24538528.972 8
  22540877.624    22540881.274   -66477737.824 8  94758552.633 8
  20959917.741    20959921.721   -28986200.866 8  16761528.243 8
 88  3 30  6 28 29.0800000  0  4G 6G13G11G 9
  24083518.902    24083523.875    13017857.633 7   8787358.683 8
  20709913.729    20709919.222   -46157482.208 8  24545843.765 8
  22553654.198    22553658.220   -66410589.128 8  94810876.291 8
  20974386.941    20974391.048   -28910168.609 8  16820774.148 8
 88  3 30  6 28 59.0800000  0  4G 6G13G11G 9
  24106956.344    24106961.467    13141017.022 8   8883326.965 9
  20711758.241    20711762.877   -46147794.105 8  24553392.942 8
  22566441.647    22566446.771   -66343387.556 7  94863241.162 8
  20988958.374    20988961.459   -28833594.333 9  16880442.405 8
 88  3 30  6 29 29.0800000  0  4G 6G13G11G 9
  24130419.900    24130425.201    13264324.209 8   8979410.431 8
  20713656.156    20713663.825   -46137806.031 8  24561175.843 7
  22579239.335    22579244.132   -66276134.245 8  94915646.349 8
  21003632.350    21003636.167   -28756480.033 8  16940531.477 8
 88  3 30  6 29 59.0800000  0  4G 6G13G11G 9
  24153912.172    24153916.438    13387776.001 9   9075606.628 7
  20715615.700    20715620.636   -46127519.860 9  24569191.057 8
  22592046.788    22592052.189   -66208830.933 8  94968090.493 9
  21018410.732    21018414.108   -28678828.443 9  17001039.186 8
 88  3 30  6 30 29.0800000  0  4G 3G13G11G 9
                  23071185.126   -87016878.510 8
  20717629.055    20717633.886   -46116938.295 7  24577436.431 8
  22604863.890    22604869.694   -66141479.506 7  95020572.090 9
  21033288.177    21033292.740   -28600642.692 9  17061963.140 8
 88  3 30  6 30 59.0800000  0  4G 3G13G11G 9
  23059386.080    23059390.953   -87079017.710 8 110392675.653 9
  20719698.651    20719702.623   -46106063.478 9  24585910.322 8
  22617688.886    22617694.436   -66074081.924 9  95073089.686 8
  21048268.389    21048270.382   -28521925.683 9  17123301.045 7
 88  3 30  6 31 29.0800000  0  4G 3G13G11G 9
  23047604.192    23047610.688   -87140920.002 8 110344440.161 8
  20721823.667    20721827.253   -46094896.284 9  24594612.020 8
  22630523.355    22630529.041   -66006639.059 8  95125642.576 8
  21063347.184    21063351.235   -28442679.601 9  17185051.230 8
 88  3 30  6 31 59.0800000  0  4G 3G13G11G 9
  23035870.920    23035875.772   -87202586.279 8 110296388.557 8
  20724003.944    20724009.864   -46083437.662 9  24603540.827 8
  22643364.127    22643371.005   -65939151.685 7  95178230.168 8
  21078527.180    21078532.865   -28362906.199 9  17247212.305 9
 88  3 30  6 32 29.0800000  0  4G 3G13G11G 9
  23024180.061    23024184.695   -87264015.559 7 110248521.629 8
  20726240.315    20726243.500   -46071688.929 8  24612695.692 8
  22656216.797    22656220.652   -65871620.021 7  95230852.251 9
  21093809.512    21093812.677   -28282606.886 8  17309783.185 7
 88  3 30  6 32 59.0800000  0  4G 3G13G11G 9
  23012535.570    23012541.921   -87325208.790 7 110200838.620 8
  20728530.859    20728536.119   -46059652.729 9  24622074.539 9
  22669073.646    22669080.052   -65804046.330 8  95283507.073 8
  21109188.311    21109191.961   -28201785.503 8  17372760.878 8
 88  3 30  6 33 29.0800000  0  4G 3G13G11G 9
  23000937.874    23000941.417   -87386166.674 8 110153339.001 8
  20730876.379    20730880.251   -46047330.611 8  24631676.214 8
  22681940.786    22681946.978   -65736432.409 8  95336193.225 9
  21124667.409    21124670.866   -28120444.497 8  17436143.473 7
 88  3 30  6 33 59.0800000  0  4G 3G13G11G 9
  22989380.492    22989386.916   -87446889.190 7 110106022.795 8
  20733275.802    20733279.246   -46034723.856 8  24641499.672 8
  22694816.273    22694821.690   -65668779.472 9  95388909.825 8
  21140243.123    21140247.052   -28038586.155 8  17499929.138 8
 88  3 30  6 34 29.0800000  0  4G 3G13G11G 9
  22977869.106    22977875.909   -87507376.777 7 110058889.670 8
  20735726.939    20735731.956   -46021834.976 8  24651542.949 8
  22707696.702    22707702.746   -65601089.086 8  95441655.576 9
  21155919.170    21155922.463   -27956214.049 8  17564115.189 8
 88  3 30  6 34 59.0800000  0  4G 3G13G11G 9
  22966404.316    22966410.583   -87567629.346 7 110011939.664 8
  20738232.050    20738237.210   -46008665.220 7  24661805.081 8
  22720585.070    22720589.763   -65533361.700 8  95494430.158 9
  21171689.624    21171696.359   -27873329.339 9  17628700.655 7
 88  3 30  6 35 29.0800000  0  4G 3G13G11G 9
  22954986.325    22954989.380   -87627646.502 8 109965173.062 8
  20740792.122    20740798.126   -45995215.138 9  24672285.673 9
  22733479.252    22733485.018   -65465598.331 8  95547232.802 8
  21187562.673    21187564.682   -27789934.871 9  17693683.357 8
 88  3 30  6 35 59.0800000  0  4G 3G13G11G 9
  22943607.404    22943612.449   -87687429.262 8 109918589.125 8
  20743404.350    20743409.526   -45981487.350 8  24682982.649 8
  22746381.207    22746386.397   -65397800.634 9  95600062.191 9
  21203527.064    21203529.980   -27706033.683 9  17759060.871 8
 88  3 30  6 36 29.0800000  0  4G 3G13G11G 9
  22932277.595    22932280.643   -87746977.818 7 109872187.669 8
  20746068.523    20746072.925   -45967484.160 8  24693894.237 8
  22759288.016    22759294.010   -65329970.031 8  95652917.193 9
  21219586.260    21219591.297   -27621628.488 8  17824831.137 8
 88  3 30  6 36 59.0800000  0  4G 3G13G11G 9
  22920990.690    22920993.967   -87806292.610 9 109825968.396 7
  20748786.741    20748791.701   -45953206.981 8  24705019.307 8
  22772202.274    22772208.142   -65262107.938 8  95705796.745 8
  21235745.322    21235748.523   -27536722.275 9  17890991.811 8
 88  3 30  6 37 29.0800000  0  4G 3G13G11G 9
  22909746.807    22909751.435   -87865373.816 8 109779931.112 8
  20751555.440    20751559.270   -45938657.363 9  24716356.677 7
  22785122.237    22785128.505   -65194215.324 8  95758700.072 8
  21251998.206    21252000.161   -27451317.236 9  17957541.190 9
 88  3 30  6 37 59.0800000  0  4G 3G13G11G 9
  22898547.868    22898553.670   -87924221.685 8 109734075.662 8
  20754374.066    20754379.869   -45923836.416 8  24727905.474 8
  22798046.448    22798052.193   -65126293.221 9  95811626.358 8
  21268344.424    21268348.400   -27365416.020 9  18024477.196 6
 88  3 30  6 38 29.0800000  0  4G 3G13G11G 9
  22887392.108    22887399.755   -87982836.980 8 109688401.434 8
  20757245.577    20757251.553   -45908746.706 9  24739663.690 8
  22810978.341    22810982.315   -65058343.339 9  95864574.319 9
  21284784.184    21284787.076   -27279021.880 9  18091797.295 8
 88  3 30  6 38 59.0800000  0  4G 3G13G11G 9
  22876284.740    22876289.856   -88041219.701 8 109642908.425 7
  20760169.319    20760173.404   -45893389.730 9  24751630.177 8
  22823914.077    22823916.561   -64990366.624 8  95917543.211 9
  21301318.350    21301322.185   -27192136.942 8  18159499.836 7
 88  3 30  6 39 29.0800000  0  4G 3G13G11G 9
  22865218.111    22865222.991   -88099370.874 8 109597595.858 8
  20763141.625    20763146.855   -45877767.175 8  24763803.590 8
  22836853.715    22836859.287   -64922364.229 8  95970532.112 8
  21317943.721    21317947.679   -27104764.673 9  18227582.129 8
 88  3 30  6 39 59.0800000  0  4G 3G13G11G 9
  22854195.999    22854201.322   -88157290.275 7 109552463.895 8
  20766163.769    20766170.188   -45861880.626 8  24776182.734 9
  22849798.181    22849803.833   -64854337.408 8  96023540.011 9
  21334662.295    21334667.362   -27016907.451 8  18296042.297 9
 88  3 30  6 40 29.0800000  0  4G 3G13G11G 9
  22843218.258    22843223.417   -88214978.043 8 109507512.422 8
  20769238.673    20769242.974   -45845731.217 9  24788766.668 8
  22862749.006    22862754.264   -64786286.981 8  96076566.304 9
  21351473.390    21351477.108   -26928568.048 8  18364878.178 8
 88  3 30  6 40 59.0800000  0  4G 3G13G11G 9
  22832284.411    22832289.756   -88272434.647 7 109462741.074 8
  20772360.667    20772364.352   -45829321.339 9  24801553.602 8
  22875702.627    22875706.462   -64718214.444 8  96129609.844 8
  21368376.819    21368378.794   -26839749.218 8  18434087.654 8
 88  3 30  6 41 29.0800000  0  4G 3G13G11G 9
  22821396.040    22821400.484   -88329660.047 8 109418149.869 7
  20775532.328    20775537.474   -45812652.607 8  24814542.232 7
  22888660.007    22888664.018   -64650120.985 9  96182669.726 8
  21385367.179    21385371.515   -26750453.980 8  18503668.344 9
 88  3 30  6 41 59.0800000  0  4G 3G13G11G 9
  22810549.731    22810553.800   -88386655.105 8 109373738.181 8
  20778754.329    20778758.473   -45795726.787 8  24827731.166 9
  22901622.429    22901626.447   -64582007.753 8  96235744.997 8
  21402448.487    21402454.820   -26660685.300 8  18573617.933 8
 88  3 30  6 42 29.0800000  0  4G 3G13G11G 9
  22799747.393    22799754.139   -88443420.292 8 109329505.599 8
  20782024.151    20782028.582   -45778545.244 8  24841119.402 8
  22914587.494    22914591.896   -64513875.745 8  96288834.869 8
  21419622.063    21419625.487   -26570445.456 8  18643934.716 8
 88  3 30  6 42 59.0800000  0  4G 3G13G11G 9
  22788988.825    22788994.371   -88499955.580 7 109285452.160 9
  20785341.638    20785345.281   -45761109.552 8  24854705.652 9
  22927555.517    22927560.900   -64445726.145 9  96341938.433 9
  21436884.051    21436887.036   -26479738.182 8  18714615.687 8
 88  3 30  6 43 29.0800000  0  4G 3G13G11G 9
  22778274.826    22778277.451   -88556261.397 8 109241577.532 8
  20788707.705    20788711.892   -45743421.542 8  24868488.529 8
  22940526.621    22940531.470   -64377559.910 9  96395054.993 8
  21454231.928    21454236.394   -26388565.577 7  18785659.261 7
 88  3 30  6 43 59.0800000  0  4G 3G13G11G 9
  22767603.188    22767609.499   -88612339.552 8 109197880.305 8
  20792121.263    20792125.635   -45725484.134 9  24882465.717 8
  22953502.175    22953505.696   -64309379.092 9  96448182.910 8
  21471668.016    21471674.173   -26296931.769 8  18857062.214 8
 88  3 30  6 44 29.0800000  0  4G 3G13G11G 9
  22756974.084    22756981.047   -88668189.554 7 109154360.868 8
  20795579.064    20795587.515   -45707298.147 9  24896636.608 8
  22966477.196    22966482.722   -64241184.346 7  96501321.694 8
  21489194.493    21489199.112   -26204838.867 9  18928822.908 8
 88  3 30  6 44 59.0800000  0  4G 3G13G11G 9
  22746391.815    22746395.521   -88723810.478 8 109111019.917 9
  20799090.183    20799093.754   -45688864.349 8  24911000.628 8
  22979457.546    22979462.897   -64172975.622 8  96554471.352 8
  21506806.039    21506808.819   -26112289.280 9  19000939.464 8
 88  3 30  6 45 29.0800000  0  4G 3G13G11G 9
  22735848.924    22735855.298   -88779204.069 8 109067856.125 8
  20802643.915    20802647.529   -45670185.358 8  24925555.686 8
  22992438.151    22992444.143   -64104754.751 7  96607630.428 8
  21524503.619    21524507.381   -26019286.166 9  19073409.427 8
 88  3 30  6 45 59.0800000  0  4G 3G13G11G 9
  22725351.687    22725356.587   -88834370.045 7 109024869.694 8
  20806243.621    20806248.495   -45651262.107 8  24940301.086 7
  23005423.900    23005429.424   -64036522.225 7  96660798.641 9
  21542287.217    21542291.845   -25925832.394 9  19146230.546 7
 88  3 30  6 46 29.0800000  0  4G 3G13G11G 9
  22714896.185    22714902.807   -88889308.996 7 108982060.178 9
  20809893.297    20809896.310   -45632096.394 9  24955235.413 7
  23018410.391    23018415.166   -63968279.224 8  96713975.015 9
  21560157.361    21560160.327   -25831930.367 9  19219400.930 8
 88  3 30  6 46 59.0800000  0  4G 3G13G11G 9
  22704486.138    22704492.184   -88944022.118 7 108939426.607 9
  20813584.094    20813588.196   -45612690.789 8  24970356.672 8
  23031399.239    23031404.288   -63900027.652 9  96767158.085 9
  21578109.831    21578114.855   -25737584.777 8  19292916.988 8
 88  3 30  6 47 29.0800000  0  4G 3G13G11G 9
  22694116.281    22694122.291   -88998509.403 8 108896968.999 8
  20817323.574    20817327.789   -45593046.753 9  24985663.722 8
  23044387.307    23044392.188   -63831768.155 7  96820347.317 9
  21596146.672    21596150.955   -25642797.728 8  19366777.002 9
 88  3 30  6 47 59.0800000  0  4G 3G13G11G 9
  22683791.419    22683796.084   -89052771.067 7 108854687.234 9
  20821106.409    20821111.311   -45573165.399 9  25001155.675 8
  23057376.215    23057383.242   -63763501.202 6  96873542.257 9
  21614269.493    21614271.327   -25547572.276 9  19440978.653 7
 88  3 30  6 48 29.0800000  0  4G 3G13G11G 9
  22673506.853    22673513.965   -89106808.152 8 108812580.437 8
  20824933.374    20824938.334   -45553049.031 8  25016830.786 9
  23070368.625    23070375.277   -63695228.403 8  96926741.864 8
  21632470.840    21632476.410   -25451911.929 8  19515519.173 8
 88  3 30  6 48 59.0800000  0  4G 3G13G11G 9
  22663269.184    22663273.798   -89160620.713 8 108770648.607 7
  20828806.644    20828811.546   -45532698.601 9  25032688.265 8
  23083362.845    23083367.433   -63626950.150 9  96979945.727 9
  21650757.265    21650761.847   -25355818.978 8  19590396.766 9
 88  3 30  6 49 29.0800000  0  4G 3G13G11G 9
  22653071.646    22653075.323   -89214208.907 8 108728891.624 8
  20832723.529    20832728.488   -45512115.644 9  25048726.941 8
  23096356.941    23096361.932   -63558667.593 9  97033152.907 9
  21669125.862    21669129.727   -25259296.205 8  19665609.323 8
 88  3 30  6 49 59.0800000  0  4G 3G13G11G 9
  22642916.190    22642920.468   -89267574.242 8 108687308.282 8
  20836684.428    20836687.670   -45491303.148 9  25064944.494 8
  23109351.543    23109356.007   -63490382.206 9  97086362.311 9
  21687574.884    21687578.419   -25162347.532 7  19741153.728 8
 88  3 30  6 50 29.0800000  0  4G 3G13G11G 9
  22632803.212    22632807.497   -89320716.565 9 108645898.680 7
  20840688.756    20840692.469   -45470261.873 8  25081340.292 8
  23122346.350    23122350.390   -63422094.539 9  97139573.515 9
  21706102.655    21706107.499   -25064975.781 9  19817027.799 8
 88  3 30  6 50 59.0800000  0  4G 3G13G11G 9
  22622731.888    22622738.478   -89373635.484 8 108604663.206 8
  20844735.138    20844739.826   -45448991.907 8  25097914.294 8
  23135340.788    23135346.211   -63353804.631 8  97192786.395 8
  21724711.886    21724717.375   -24967182.585 8  19893230.269 8
 88  3 30  6 51 29.0800000  0  4G 3G13G11G 9
  22612705.745    22612709.722   -89426331.598 8 108563601.352 8
  20848826.293    20848831.139   -45427496.237 8  25114664.154 8
  23148334.333    23148340.928   -63285514.232 8  97245999.682 9
  21743401.924    21743405.545   -24868972.486 8  19969757.594 8
 88  3 30  6 51 59.0800000  0  4G 3G13G11G 9
  22602719.703    22602724.019   -89478806.456 8 108522711.872 8
  20852958.402    20852963.462   -45405776.822 9  25131588.373 8
  23161331.999    23161336.000   -63217224.536 8  97299212.428 9
  21762168.140    21762172.540   -24770348.248 8  20046607.655 8
 88  3 30  6 52 29.0800000  0  4G 3G13G11G 9
  22592777.655    22592781.018   -89531060.459 8 108481994.511 8
  20857134.225    20857139.114   -45383835.001 9  25148685.899 8
  23174325.706    23174329.640   -63148936.106 9  97352424.191 8
  21781014.171    21781020.581   -24671312.987 7  20123777.955 7
 88  3 30  6 52 59.0800000  0  4G 3G13G11G 9
  22582874.900    22582877.735   -89583093.975 8 108441448.981 8
  20861351.559    20861355.117   -45361673.038 9  25165954.972 8
  23187321.741    23187325.603   -63080650.067 9  97405634.113 9
  21799938.983    21799942.451   -24571870.129 9  20201265.881 7
 88  3 30  6 53 29.0800000  0  4G 3G13G11G 9
  22573012.963    22573021.083   -89634907.553 8 108401074.777 9
  20865611.421    20865613.877   -45339292.225 9  25183394.572 7
  23200314.172    23200318.399   -63012366.914 7  97458841.768 8
  21818938.166    21818942.228   -24472022.462 9  20279069.249 8
 88  3 30  6 53 59.0800000  0  4G 3G13G11G 9
  22563195.792    22563200.793   -89686501.358 8 108360871.844 8
  20869912.193    20869913.761   -45316693.866 8  25201003.697 8
  23213306.398    23213311.758   -62944087.461 7  97512046.545 8
  21838015.133    21838019.004   -24371773.122 9  20357185.600 9
 88  3 30  6 54 29.0800000  0  4G 3G13G11G 9
  22553420.374    22553424.710   -89737875.929 7 108320839.750 8
  20874252.871    20874256.629   -45293879.444 9  25218781.169 8
  23226297.275    23226306.257   -62875812.705 6  97565247.626 8
  21857166.663    21857172.631   -24271124.918 8  20435612.778 8
 88  3 30  6 54 59.0800000  0  4G 3G13G11G 9
  22543685.883    22543689.258   -89789031.687 8 108280978.151 8
  20878636.450    20878637.933   -45270850.221 8  25236726.028 7
  23239289.791    23239295.690   -62807543.120 7  97618444.712 8
  21876395.624    21876399.539   -24170081.257 8  20514348.071 8
 88  3 30  6 55 29.0800000  0  4G 3G13G11G 9
  22533992.986    22533997.879   -89839968.617 8 108241287.067 8
  20883058.992    20883062.249   -45247608.067 9  25254836.806 8
  23252279.411    23252286.208   -62739279.282 7  97671637.293 8
  21895699.466    21895702.612   -24068644.615 8  20593389.614 7
 88  3 30  6 55 59.0800000  0  4G 3G13G11G 9
  22524339.617    22524348.170   -89890687.691 9 108201765.717 9
  20887519.240    20887524.429   -45224154.861 8  25273112.030 8
  23265269.979    23265274.108   -62671022.861 9  97724824.124 9
  21915076.410    21915080.364   -23966818.829 9  20672734.365 8
 88  3 30  6 56 29.0800000  0  4G 3G13G11G 9
  22514731.490    22514735.575   -89941189.985 8 108162413.328 9
  20892023.702    20892027.732   -45200492.116 9  25291550.529 8
  23278258.160    23278263.160   -62602774.704 8  97778004.505 8
  21934525.688    21934529.042   -23864607.422 8  20752379.601 7
 88  3 30  6 56 59.0800000  0  4G 3G13G11G 9
  22505162.104    22505166.417   -89991475.798 8 108123229.596 8
  20896564.482    20896570.327   -45176620.758 8  25310151.602 8
  23291241.806    23291247.908   -62534535.072 8  97831178.261 8
  21954049.689    21954051.974   -23762013.027 8  20832323.276 8
 88  3 30  6 57 29.0800000  0  4G 3G13G11G 9
  22495634.184    22495638.313   -90041546.105 8 108084213.796 9
  20901146.428    20901152.875   -45152543.621 8  25328912.998 8
  23304226.514    23304231.628   -62466304.734 7  97884344.761 8
  21973644.043    21973648.736   -23659039.114 8  20912562.662 8
 88  3 30  6 57 59.0800000  0  4G 3G13G11G 9
  22486146.482    22486151.140   -90091401.677 8 108045365.307 8
  20905767.911    20905772.885   -45128262.846 9  25347833.086 8
  23317208.370    23317212.716   -62398085.361 8  97937502.688 7
  21993311.219    21993315.501   -23555689.424 7  20993094.881 8
 88  3 30  6 58 29.0800000  0  4G 3G13G11G 9
  22476699.541    22476704.891   -90141042.533 8 108006684.175 8
  20910428.258    20910431.901   -45103778.612 9  25366911.718 8
  23330187.645    23330192.767   -62329877.402 8  97990651.739 8
  22013048.110    22013054.254   -23451966.739 9  21073917.729 9
 88  3 30  6 58 59.0800000  0  4G 3G13G11G 9
  22467294.208    22467298.780   -90190469.381 7 107968169.751 7
  20915126.367    20915128.807   -45079093.163 9  25386147.141 8
  23343166.277    23343170.180   -62261681.672 8  98043791.282 8
  22032857.423    22032860.574   -23347874.353 8  21155028.665 9
 88  3 30  6 59 29.0800000  0  4G 3G13G11G 9
  22457929.481    22457933.499   -90239682.342 8 107929822.005 8
  20919860.707    20919865.180   -45054207.247 8  25405538.762 7
  23356139.673    23356144.914   -62193498.274 9  98096921.184 9
  22052734.946    22052739.124   -23243415.225 7  21236425.366 8
 88  3 30  6 59 59.0800000  0  4G 3G13G11G 9
  22448605.811    22448610.140   -90288682.553 8 107891640.075 7
  20924632.493    20924637.467   -45029122.896 8  25425085.013 8
  23369112.215    23369116.498   -62125328.212 9  98150040.731 8
  22072682.716    22072686.619   -23138592.857 8  21318105.125 8
 88  3 30  7  0 29.0800000  0  4G 3G13G12G 9
  22439320.549    22439326.741   -90337469.679 7 107853624.134 8
  20929445.514    20929449.883   -45003841.199 8  25444785.021 7
                  20685150.532   -97750015.569 9
  22092696.265    22092702.372   -23033409.512 7  21400066.145 7
 88  3 30  7  0 59.0800000  0  4G 3G13G12G 9
  22430076.297    22430080.257   -90386044.962 7 107815773.317 7
  20934290.877    20934295.441   -44978365.152 8  25464636.490 8
  20688300.888    20688305.653   -97733599.539 8 124113982.538 7
  22112781.221    22112785.044   -22927869.273 9  21482305.281 8
 88  3 30  7  1 29.0800000  0  4G 3G13G12G 9
  22420873.798    22420878.389   -90434408.675 8 107778087.327 8
  20939178.538    20939182.399   -44952694.472 9  25484639.625 7
  20691547.351    20691552.670   -97716537.496 9 124127277.637 7
  22132931.733    22132936.450   -22821975.298 8  21564820.051 8
 88  3 30  7  1 59.0800000  0  4G 3G13G12G 9
  22411712.077    22411715.934   -90482561.673 7 107740565.524 8
  20944101.045    20944103.511   -44926831.362 9  25504792.706 8
  20694916.418    20694922.079   -97698830.212 9 124141075.506 7
  22153150.301    22153154.549   -22715730.622 8  21647608.081 8
 88  3 30  7  2 29.0800000  0  4G 3G13G12G 9
  22402588.630    22402592.200   -90530503.908 8 107703207.978 8
  20949057.441    20949060.813   -44900776.534 8  25525095.163 8
  20698409.751    20698413.679   -97680477.626 8 124155376.200 7
  22173434.067    22173437.490   -22609137.933 8  21730667.311 7
 88  3 30  7  2 59.0800000  0  4G 3G13G12G 9
  22393503.500    22393509.797   -90578236.701 8 107666013.595 7
  20954051.811    20954055.993   -44874532.649 8  25545544.941 7
  20702025.000    20702029.591   -97661480.867 6 124170178.889 6
  22193783.852    22193786.243   -22502201.560 9  21813994.317 7
 88  3 30  7  3 29.0800000  0  4G 3G13G12G 9
  22384461.260    22384465.749   -90625761.378 8 107628981.418 8
  20959080.524    20959084.512   -44848101.932 9  25566140.309 7
  20705761.718    20705767.217   -97641840.455 6 124185483.077 6
  22214197.860    22214199.510   -22394924.928 9  21897586.512 8
 88  3 30  7  3 59.0800000  0  4G 3G13G12G 9
  22375457.288    22375461.357   -90673077.668 8 107592111.626 8
  20964145.333    20964150.184   -44821484.863 9  25586880.878 7
  20709621.862    20709626.447   -97621556.786 9 124201288.537 7
  22234675.235    22234678.321   -22287311.359 8  21981441.220 7
 88  3 30  7  4 29.0800000  0  4G 3G13G12G 9
  22366492.581    22366497.502   -90720186.574 8 107555403.397 9
  20969246.453    20969249.690   -44794683.316 9  25607765.201 7
  20713604.108    20713608.869   -97600630.382 8 124217594.814 9
  22255217.156    22255220.745   -22179363.420 8  22065556.483 8
 88  3 30  7  4 59.0800000  0  4G 3G13G12G 9
  22357567.152    22357571.406   -90767088.512 9 107518856.467 8
  20974380.086    20974385.645   -44767698.069 9  25628792.646 7
  20717707.392    20717713.540   -97579061.624 8 124234401.642 7
  22275821.619    22275826.984   -22071084.724 8  22149929.488 8
 88  3 30  7  5 29.0800000  0  4G 3G13G12G 9
  22348682.158    22348686.130   -90813784.281 7 107482470.179 7
  20979550.862    20979554.642   -44740531.826 8  25649961.152 7
  20721933.928    20721938.630   -97556851.253 8 124251708.411 7
  22296489.787    22296493.146   -21962478.659 7  22234557.551 7
 88  3 30  7  5 59.0800000  0  4G 3G13G12G 9
  22339834.345    22339840.026   -90860274.142 7 107446244.337 7
  20984753.684    20984758.897   -44713185.866 8  25671269.696 8
  20726282.681    20726287.212   -97534000.224 8 124269514.401 7
  22317218.219    22317221.370   -21853548.373 8  22319438.302 8
 88  3 30  7  6 29.0800000  0  4G 3G13G12G 9
  22331027.739    22331030.421   -90906558.876 8 107410178.336 8
  20989994.183    20989997.858   -44685661.114 8  25692717.561 7
  20730754.102    20730757.562   -97510508.727 7 124287819.450 8
  22338008.832    22338011.054   -21744297.492 8  22404568.845 8
 88  3 30  7  6 59.0800000  0  4G 3G13G12G 9
  22322259.363    22322261.666   -90952639.196 8 107374271.610 8
  20995264.382    20995268.136   -44657959.395 9  25714303.311 7
  20735346.259    20735349.702   -97486377.425 9 124306623.034 8
  22358858.664    22358863.002   -21634728.989 7  22489946.881 8
 88  3 30  7  7 29.0800000  0  4G 3G13G12G 9
  22313528.523    22313533.245   -90998515.625 8 107338523.799 8
  21000569.104    21000571.887   -44630081.799 9  25736026.105 6
  20740059.119    20740063.764   -97461607.248 8 124325924.463 7
  22379767.286    22379772.552   -21524846.639 8  22575569.476 8
 88  3 30  7  7 59.0800000  0  4G 3G13G12G 9
  22304838.350    22304841.212   -91044188.597 9 107302934.501 7
  21005905.539    21005909.971   -44602030.054 9  25757884.625 8
  20744894.763    20744899.521   -97436198.204 8 124345723.721 7
  22400737.255    22400739.281   -21414653.079 9  22661434.566 7
 88  3 30  7  8 29.0800000  0  4G 3G13G12G 9
  22296184.638    22296187.944   -91089659.552 9 107267502.581 7
  21011277.634    21011281.285   -44573805.891 8  25779877.478 7
  20749850.237    20749856.255   -97410151.970 8 124366019.468 8
  22421765.119    22421767.489   -21304152.176 8  22747539.179 7
 88  3 30  7  8 59.0800000  0  4G 3G13G12G 9
  22287568.787    22287574.081   -91134928.865 8 107232227.822 8
  21016679.758    21016683.657   -44545410.707 8  25802003.603 9
  20754928.655    20754933.462   -97383469.623 8 124386810.902 7
  22442851.009    22442854.181   -21193347.511 8  22833880.452 7
 88  3 30  7  9 29.0800000  0  4G 3G13G12G 9
  22278994.804    22278996.908   -91179996.634 8 107197110.114 8
  21022116.557    21022123.162   -44516845.756 8  25824261.972 7
  20760125.820    20760132.419   -97356151.553 9 124408097.696 8
  22463992.497    22463995.245   -21082241.886 7  22920456.258 7
 88  3 30  7  9 59.0800000  0  4G 3G13G12G 9
  22270454.965    22270457.828   -91224864.080 8 107162148.486 8
  21027584.459    21027590.396   -44488112.626 9  25846651.420 8
  20765445.608    20765449.609   -97328198.286 8 124429879.446 7
  22485190.540    22485196.116   -20970838.890 7  23007263.770 7
 88  3 30  7 10 29.0800000  0  4G 3G13G12G 9
  22261956.190    22261958.636   -91269532.020 8 107127342.347 8
  21033083.704    21033089.025   -44459212.816 9  25869170.771 6
  20770885.021    20770892.099   -97299611.113 8 124452155.165 7
  22506446.552    22506451.218   -20859141.930 7  23094300.361 7
 88  3 30  7 10 59.0800000  0  4G 3G13G12G 9
  22253492.931    22253497.153   -91314001.018 9 107092691.172 8
  21038615.047    21038618.605   -44430147.757 8  25891818.863 7
  20776447.299    20776451.251   -97270391.015 8 124474924.065 7
  22527757.466    22527762.298   -20747154.401 8  23181563.375 7
 88  3 30  7 11 29.0800000  0  4G 3G13G12G 9
  22245068.996    22245072.216   -91358271.395 9 107058194.824 8
  21044176.338    21044181.253   -44400918.749 8  25914594.707 7
  20782126.670    20782131.706   -97240538.680 9 124498185.630 8
  22549121.334    22549126.058   -20634879.617 8  23269050.200 7
 88  3 30  7 11 59.0800000  0  4G 3G13G12G 9
  22236680.746    22236685.453   -91402344.371 8 107023852.264 8
  21049770.722    21049774.562   -44371527.134 9  25937497.263 7
  20787927.042    20787932.879   -97210055.358 8 124521938.851 8
  22570541.835    22570544.737   -20522321.050 7  23356758.173 7
 88  3 30  7 12 29.0800000  0  4G 3G13G12G 9
  22228332.106    22228336.198   -91446220.321 8 106989663.259 8
  21055393.093    21055397.227   -44341974.741 8  25960525.116 7
  20793849.107    20793852.691   -97178941.866 8 124546183.101 7
  22592014.561    22592019.463   -20409481.926 8  23444684.747 7
 88  3 30  7 12 59.0800000  0  4G 3G13G12G 9
  22220021.297    22220026.504   -91489899.720 9 106955627.389 8
  21061047.663    21061050.602   -44312262.198 9  25983677.752 7
  20799890.271    20799891.672   -97147199.003 9 124570917.806 8
  22613540.670    22613543.092   -20296365.396 8  23532827.484 7
 88  3 30  7 13 29.0800000  0  4G 3G13G12G 9
  22211745.032    22211748.495   -91533382.331 8 106921744.872 8
  21066732.039    21066735.351   -44282390.257 8  26006954.578 8
  20806049.325    20806053.721   -97114827.349 9 124596142.448 7
  22635116.866    22635121.766   -20182974.230 8  23621184.248 7
 88  3 30  7 13 59.0800000  0  4G 3G13G12G 9
  22203509.233    22203512.337   -91576670.813 8 106888013.613 8
  21072446.456    21072451.303   -44252362.129 9  26030353.134 7
  20812328.909    20812331.433   -97081829.587 9 124621854.978 8
  22656745.673    22656750.376   -20069313.469 8  23709751.055 7
 88  3 30  7 14 29.0800000  0  4G 3G13G12G 9
  22195308.949    22195312.025   -91619765.160 8 106854433.641 8
  21078189.540    21078193.296   -44222178.694 8  26053872.678 7
  20818727.385    20818731.255   -97048206.213 8 124648054.996 7
  22678425.866    22678430.432   -19955386.147 8  23798525.611 7
 88  3 30  7 14 59.0800000  0  4G 3G13G12G 9
  22187143.551    22187146.413   -91662666.002 8 106821004.436 7
  21083962.949    21083965.345   -44191841.529 9  26077512.039 7
  20825243.955    20825248.764   -97013958.475 9 124674741.537 7
  22700156.920    22700160.115   -19841195.123 8  23887505.624 8
 88  3 30  7 15 29.0800000  0  4G 3G13G12G 9
  22179016.960    22179021.252   -91705373.737 9 106787725.693 8
  21089764.771    21089769.877   -44161351.330 8  26101270.635 7
  20831880.130    20831883.837   -96979087.112 9 124701914.008 7
  22721935.952    22721940.014   -19726743.656 8  23976688.556 7
 88  3 30  7 15 59.0800000  0  4G 3G13G12G 9
  22170927.630    22170929.217   -91747889.119 8 106754596.828 7
  21095596.001    21095600.442   -44130709.610 9  26125147.291 7
  20838634.430    20838638.808   -96943593.330 8 124729571.499 7
  22743765.012    22743767.161   -19612035.024 8  24066071.881 8
 88  3 30  7 16 29.0800000  0  4G 3G13G12G 9
  22162873.415    22162877.534   -91790212.489 8 106721617.592 8
  21101456.132    21101459.965   -44099917.291 9  26149141.314 8
  20845506.206    20845511.207   -96907478.208 8 124757713.152 8
  22765640.103    22765644.912   -19497072.533 8  24155653.057 8
 88  3 30  7 16 59.0800000  0  4G 3G13G12G 9
  22154854.457    22154859.251   -91832345.130 7 106688786.988 7
  21107343.967    21107345.966   -44068976.298 9  26173251.198 7
  20852497.754    20852501.801   -96870743.739 8 124786337.393 7
  22787564.110    22787569.192   -19381859.914 8  24245429.112 9
 88  3 30  7 17 29.0800000  0  4G 3G13G12G 9
  22146873.016    22146876.954   -91874288.053 8 106656104.177 7
  21113259.920    21113263.675   -44037888.065 9  26197475.793 7
  20859604.835    20859608.678   -96833391.127 8 124815443.307 8
  22809535.847    22809541.027   -19266401.018 7  24335397.060 8
 88  3 30  7 17 59.0800000  0  4G 3G13G12G 9
  22138927.838    22138933.318   -91916041.128 9 106623569.318 8
  21119202.205    21119206.136   -44006653.405 9  26221814.497 8
  20866830.726    20866834.598   -96795421.152 8 124845030.294 8
  22831552.978    22831558.036   -19150698.571 9  24425554.784 8
 88  3 30  7 18 29.0800000  0  4G 3G13G12G 9
  22131017.574    22131023.397   -91957605.611 7 106591181.438 8
  21125173.713    21125178.563   -43975274.154 9  26246265.861 7
  20874171.736    20874177.789   -96756835.278 9 124875097.190 8
  22853616.042    22853620.429   -19034756.174 8  24515899.515 8
 88  3 30  7 18 59.0800000  0  4G 3G13G12G 9
  22123146.489    22123149.764   -91998981.805 8 106558940.257 8
  21131173.840    21131178.776   -43943751.404 8  26270829.032 9
  20881633.346    20881637.093   -96717634.774 9 124905643.030 8
  22875726.154    22875729.596   -18918576.970 8  24606428.749 7
 88  3 30  7 19 29.0800000  0  4G 3G13G12G 9
  22115305.394    22115310.802   -92040171.015 8 106526844.781 8
  21137198.800    21137204.005   -43912086.318 9  26295503.114 8
  20889208.663    20889214.135   -96677821.633 8 124936666.237 8
  22897878.621    22897881.228   -18802164.554 8  24697139.710 8
 88  3 30  7 19 59.0800000  0  4G 3G13G12G 9
  22107505.107    22107509.688   -92081173.308 8 106494894.948 8
  21143251.792    21143255.412   -43880280.577 9  26320286.810 8
  20896901.705    20896906.704   -96637397.298 8 124968165.717 8
  22920074.138    22920077.854   -18685522.510 8  24788029.598 8
 88  3 30  7 20 29.0800000  0  4G 3G13G12G 9
  22099736.761    22099741.827   -92121989.717 7 106463089.969 8
  21149332.025    21149333.088   -43848334.938 9  26345179.550 8
  20904709.265    20904715.572   -96596362.997 8 125000140.471 7
  22942312.604    22942317.478   -18568654.118 9  24879095.878 8
 88  3 30  7 20 59.0800000  0  4G 3G13G12G 9
  22092005.848    22092010.182   -92162620.699 9 106431429.435 8
  21155436.364    21155438.700   -43816250.874 9  26370180.151 8
  20912634.338    20912638.314   -96554719.826 8 125032589.690 8
  22964594.535    22964598.321   -18451562.463 8  24970336.128 8
 88  3 30  7 21 29.0800000  0  4G 3G13G12G 9
  22084309.164    22084311.651   -92203066.827 8 106399912.955 8
  21161566.808    21161570.601   -43784029.311 8  26395287.852 8
  20920673.582    20920679.257   -96512469.440 8 125065512.041 8
  22986918.325    22986922.484   -18334251.081 7  25061747.589 9
 88  3 30  7 21 59.0800000  0  4G 3G13G12G 9
  22076647.248    22076652.842   -92243329.442 7 106368539.504 8
  21167724.509    21167727.542   -43751671.955 9  26420501.377 9
  20928828.041    20928835.364   -96469613.673 8 125098906.144 8
  23009282.614    23009287.774   -18216723.675 7  25153327.359 8
 88  3 30  7 22 29.0800000  0  4G 3G13G12G 9
  22069020.476    22069022.980   -92283408.947 8 106337308.703 8
  21173907.210    21173911.774   -43719180.473 9  26445819.419 8
  20937099.683    20937105.050   -96426154.304 8 125132770.555 8
  23031689.176    23031692.055   -18098983.667 8  25245072.804 8
 88  3 30  7 22 59.0800000  0  4G 3G13G12G 9
  22061427.960    22061433.055   -92323306.143 7 106306220.001 8
  21180117.380    21180121.097   -43686555.908 9  26471241.142 9
  20945484.581    20945488.162   -96382092.475 8 125167104.450 8
  23054133.128    23054138.331   -17981034.214 7  25336981.455 7
 88  3 30  7 23 29.0800000  0  4G 3G13G12G 9
  22053872.107    22053874.553   -92363021.468 8 106275273.008 8
  21186351.163    21186354.728   -43653799.335 9  26496765.744 9
  20953983.640    20953988.026   -96337429.773 8 125201906.531 8
  23076617.342    23076621.957   -17862878.671 8  25429050.695 8
 88  3 30  7 23 59.0800000  0  4G 3G13G12G 9
  22046347.304    22046351.222   -92402555.934 8 106244466.935 8
  21192608.834    21192612.645   -43620911.939 9  26522392.293 9
  20962595.934    20962600.867   -96292168.053 9 125237175.381 8
  23099139.624    23099144.055   -17744520.370 8  25521277.924 8
 88  3 30  7 24 29.0800000  0  4G 3G13G12G 9
  22038858.473    22038862.692   -92441909.742 8 106213801.665 8
  21198890.954    21198893.842   -43587894.895 9  26548119.867 9
  20971323.839    20971328.817   -96246308.581 8 125272910.024 8
  23121701.262    23121705.614   -17625962.452 8  25613660.697 8
 88  3 30  7 24 59.0800000  0  4G 3G13G12G 9
  22031404.499    22031407.948   -92481084.529 8 106183275.864 8
  21205196.733    21205201.857   -43554749.585 9  26573947.382 9
  20980162.711    20980168.012   -96199854.262 8 125309108.175 8
  23144299.877    23144303.291   -17507209.204 8  25706195.686 8
 88  3 30  7 25 29.0800000  0  4G 3G13G12G 9
  22023983.495    22023987.844   -92520080.297 8 106152889.550 8
  21211528.400    21211532.564   -43521476.320 8  26599874.599 7
  20989116.080    20989119.252   -96152805.874 8 125345769.238 9
  23166932.268    23166938.072   -17388263.302 7  25798880.781 8
 88  3 30  7 25 59.0800000  0  4G 3G13G12G 9
  22016598.118    22016600.192   -92558897.889 8 106122642.105 8
  21217884.474    21217888.041   -43488077.174 9  26625899.917 8
  20998182.829    20998185.532   -96105165.326 9 125382891.727 8
  23189605.496    23189608.747   -17269128.281 8  25891713.245 8
 88  3 30  7 26 29.0800000  0  4G 3G13G12G 9
  22009243.764    22009248.200   -92597538.095 8 106092532.859 9
  21224264.596    21224267.425   -43454553.185 8  26652022.528 8
  21007360.485    21007364.835   -96056934.588 9 125420474.116 8
  23212311.654    23212315.409   -17149807.683 8  25984690.328 8
 88  3 30  7 26 59.0800000  0  4G 3G13G12G 9
  22001924.384    22001928.247   -92636001.290 8 106062561.561 7
  21230667.399    21230671.686   -43420905.384 9  26678241.578 9
  21016650.594    21016654.004   -96008115.273 8 125458515.122 8
  23235052.406    23235053.682   -17030304.466 8  26077809.700 7
 88  3 30  7 27 29.0800000  0  4G 3G13G12G 9
  21994639.716    21994643.008   -92674288.405 9 106032727.465 8
  21237095.530    21237099.553   -43387134.960 9  26704556.182 9
  21026052.680    21026056.508   -95958708.985 9 125497013.499 8
  23257826.000    23257829.944   -16910622.359 8  26171068.479 8
 88  3 30  7 27 59.0800000  0  4G 3G13G12G 9
  21987386.473    21987390.478   -92712400.642 9 106003029.632 8
  21243545.141    21243548.570   -43353243.413 9  26730965.202 9
  21035564.181    21035569.942   -95908718.180 9 125535967.351 9
  23280633.700    23280638.939   -16790764.877 7  26264463.894 8
 88  3 30  7 28 29.0800000  0  4G 3G13G12G 9
  21980166.341    21980171.335   -92750338.237 8 105973467.865 8
  21250015.160    21250021.677   -43319231.662 9  26757467.862 9
  21045188.841    21045194.507   -95858144.055 9 125575375.746 7
  23303474.175    23303478.849   -16670735.222 8  26357993.491 8
 88  3 30  7 28 59.0800000  0  4G 3G13G12G 9
  21972980.778    21972984.757   -92788101.931 8 105944041.631 8
  21256507.277    21256515.617   -43285100.499 9  26784063.540 8
  21054923.257    21054928.631   -95806988.931 7 125615236.857 8
  23326349.121    23326352.343   -16550536.988 7  26451654.409 8
 88  3 30  7 29 29.0800000  0  4G 3G13G12G 9
  21965827.814    21965832.949   -92825692.399 8 105914750.371 8
  21263026.555    21263033.017   -43250851.216 9  26810751.287 8
  21064767.409    21064772.156   -95755254.737 8 125655549.193 8
  23349252.299    23349255.608   -16430173.243 7  26545444.336 8
 88  3 30  7 29 59.0800000  0  4G 3G13G12G 9
  21958706.042    21958711.737   -92863110.802 8 105885593.199 8
  21269565.444    21269570.390   -43216485.453 8  26837529.813 8
  21074722.058    21074726.761   -95702943.398 8 125696311.260 8
  23372188.970    23372192.283   -16309647.582 8  26639360.413 8
 88  3 30  7 30 29.0800000  0  4G 3G13G12G 9
  21951618.585    21951623.434   -92900357.694 8 105856569.660 8
  21276128.730    21276132.953   -43182004.000 8  26864398.483 8
  21084785.113    21084791.100   -95650057.104 9 125737521.338 8
  23395153.376    23395156.805   -16188963.400 8  26733399.999 8
 88  3 30  7 30 59.0800000  0  4G 3G13G12G 9
  21944564.038    21944568.688   -92937433.319 9 105827679.572 9
  21282713.544    21282716.219   -43147407.861 9  26891356.521 8
  21094957.874    21094963.989   -95596597.428 8 125779178.199 8
  23418149.078    23418151.913   -16068123.823 8  26827560.683 8
 88  3 30  7 31 29.0800000  0  4G 3G13G12G 9
  21937541.001    21937544.634   -92974338.350 8 105798922.418 7
  21289318.079    21289322.430   -43112697.660 8  26918403.444 9
  21105241.005    21105245.971   -95542566.479 8 125821280.216 7
  23441172.266    23441176.375   -15947132.303 8  26921839.816 9
 88  3 30  7 31 59.0800000  0  4G 3G13G12G 9
  21930550.674    21930554.923   -93011074.009 8 105770297.229 8
  21295942.589    21295947.844   -43077874.838 8  26945538.109 9
  21115630.729    21115634.802   -95487966.852 8 125863825.365 8
  23464223.377    23464228.687   -15825992.410 8  27016234.495 8
 88  3 30  7 32 29.0800000  0  4G 3G13G12G 9
  21923590.825    21923595.117   -93047640.944 8 105741803.527 8
  21302588.483    21302596.459   -43042940.437 8  26972759.693 8
  21126129.246    21126133.906   -95432800.314 8 125906812.261 7
  23487303.316    23487309.131   -15704707.301 8  27110742.339 8
 88  3 30  7 32 59.0800000  0  4G 3G13G12G 9
  21916664.346    21916670.211   -93084039.889 8 105713440.734 8
  21309260.207    21309265.994   -43007896.178 9  27000066.869 8
  21136734.777    21136739.426   -95377069.394 8 125950238.920 7
  23510411.109    23510415.369   -15583280.649 8  27205360.481 8
 88  3 30  7 33 29.0800000  0  4G 3G13G12G 9
  21909771.521    21909775.271   -93120271.095 9 105685208.648 7
  21315951.334    21315954.873   -42972742.465 8  27027459.374 8
  21147445.571    21147451.321   -95320775.815 7 125994104.028 8
  23533543.477    23533547.594   -15461715.588 8  27300086.487 8
 88  3 30  7 33 59.0800000  0  4G 3G13G12G 9
  21902908.489    21902911.180   -93156335.155 8 105657106.803 8
  21322660.796    21322664.752   -42937480.085 9  27054936.549 9
  21158265.193    21158271.487   -95263921.424 8 126038406.116 8
  23556701.399    23556706.735   -15340015.342 8  27394917.835 8
 88  3 30  7 34 29.0800000  0  4G 3G13G12G 9
  21896077.596    21896080.630   -93192233.526 8 105629134.050 8
  21329390.821    21329393.973   -42902110.779 8  27082497.059 8
  21169190.103    21169195.855   -95206508.901 8 126083143.121 8
  23579885.720    23579889.983   -15218183.510 8  27489851.689 8
 88  3 30  7 34 59.0800000  0  4G 3G13G12G 9
  21889277.553    21889281.515   -93227966.500 8 105601290.197 8
  21336142.327    21336144.387   -42866634.921 8  27110140.608 8
  21180222.058    21180226.201   -95148540.070 9 126128313.632 8
  23603094.431    23603099.238   -15096223.153 8  27584885.717 8
 88  3 30  7 35 29.0800000  0  4G 3G13G12G 9
  21882509.161    21882512.064   -93263534.963 8 105573574.500 9
  21342910.890    21342914.932   -42831053.666 9  27137866.259 8
  21191360.140    21191363.215   -95090017.137 8 126173915.914 9
  23626325.757    23626331.525   -14974137.790 7  27680017.128 7
 88  3 30  7 35 59.0800000  0  4G 3G13G12G 9
  21875771.334    21875774.911   -93298940.174 8 105545986.036 7
  21349702.435    21349708.070   -42795368.674 8  27165672.718 9
  21202600.666    21202605.296   -95030942.897 8 126219947.761 8
  23649579.621    23649587.439   -14851931.400 8  27775242.838 8
 88  3 30  7 36 29.0800000  0  4G 3G13G12G 9
  21869064.356    21869068.306   -93334182.324 8 105518524.628 8
  21356514.582    21356518.787   -42759580.764 8  27193559.389 9
  21213945.378    21213950.200   -94971319.523 9 126266407.532 7
  23672856.954    23672864.596   -14729606.755 6  27870560.691 8
 88  3 30  7 36 59.0800000  0  4G 3G13G12G 9
  21862388.862    21862394.785   -93369262.338 8 105491189.571 8
  21363343.731    21363347.573   -42723690.491 9  27221525.823 9
  21225395.945    21225401.559   -94911149.442 9 126313293.296 8
  23696159.046    23696161.136   -14607167.567 8  27965967.839 7
 88  3 30  7 37 29.0800000  0  4G 3G13G12G 9
  21855743.501    21855747.936   -93404180.773 8 105463980.409 8
  21370192.080    21370195.506   -42687698.728 9  27249571.358 7
  21236949.721    21236954.380   -94850434.855 8 126360603.338 8
  23719479.809    23719483.579   -14484616.719 8  28061461.998 8
 88  3 30  7 37 59.0800000  0  4G 3G13G12G 9
  21849130.878    21849135.042   -93438937.927 9 105436896.911 8
  21377059.934    21377065.323   -42651606.938 9  27277694.826 9
  21248607.546    21248611.319   -94789177.579 9 126408336.279 8
  23742822.484    23742825.061   -14361957.715 9  28157040.446 7
 88  3 30  7 38 29.0800000  0  4G 3G13G12G 9
  21842546.933    21842551.254   -93473535.151 8 105409938.054 8
  21383947.206    21383950.599   -42615416.299 9  27305895.312 8
  21260366.489    21260369.303   -94727380.690 8 126456489.671 8
  23766182.379    23766185.342   -14239194.156 8  28252700.370 8
 88  3 30  7 38 59.0800000  0  4G 3G13G12G 9
  21835993.037    21835998.359   -93507973.053 8 105383103.334 8
  21390851.673    21390855.367   -42579128.066 9  27334171.851 9
  21272227.836    21272232.415   -94665046.764 8 126505061.548 8
  23789562.901    23789567.377   -14116329.380 7  28348439.112 8
 88  3 30  7 39 29.0800000  0  4G 3G13G12G 9
  21829471.422    21829475.656   -93542251.941 7 105356392.513 8
  21397776.488    21397778.048   -42542742.096 9  27362524.564 8
  21284190.828    21284196.930   -94602177.711 8 126554050.405 8
  23812962.501    23812966.320   -13993366.389 7  28444254.370 8
 88  3 30  7 39 59.0800000  0  4G 3G13G12G 9
  21822976.335    21822982.044   -93576372.565 8 105329805.012 8
  21404719.007    21404722.702   -42506259.667 9  27390952.442 8
  21296256.452    21296261.788   -94538775.781 8 126603454.497 8
  23836379.162    23836383.244   -13870308.430 8  28540143.670 8
 88  3 30  7 40 29.0800000  0  4G 3G13G12G 9
  21816514.333    21816517.493   -93610335.343 8 105303340.537 8
  21411681.129    21411684.720   -42469681.107 9  27419455.237 9
  21308423.100    21308427.606   -94474842.974 8 126653272.242 7
  23859813.035    23859818.196   -13747158.422 9  28636104.711 7
 88  3 30  7 40 59.0800000  0  4G 3G13G12G 9
  21810081.577    21810085.827   -93644141.392 7 105276998.167 8
  21418658.016    21418663.890   -42433007.740 8  27448031.851 8
  21320689.325    21320693.086   -94410382.095 8 126703501.474 8
  23883264.135    23883269.834   -13623920.203 7  28732134.444 9
 88  3 30  7 41 29.0800000  0  4G 3G13G12G 9
  21803676.355    21803681.934   -93677791.655 8 105250777.187 8
  21425655.537    21425660.126   -42396240.672 9  27476681.493 9
  21333054.825    21333060.520   -94345395.967 7 126754139.996 8
  23906731.886    23906736.568   -13500597.222 8  28828230.250 8
 88  3 30  7 41 59.0800000  0  4G 3G13G12G 9
  21797303.554    21797309.750   -93711286.027 8 105224677.686 7
  21432669.791    21432674.338   -42359380.327 9  27505403.842 8
  21345522.594    21345526.149   -94279886.738 7 126805186.110 8
  23930214.979    23930218.869   -13377192.333 6  28924389.871 7
 88  3 30  7 42 29.0800000  0  4G 3G13G12G 9
  21790960.633    21790964.882   -93744625.763 8 105198698.661 9
  21439701.471    21439705.108   -42322428.174 9  27534197.732 8
  21358086.967    21358091.043   -94213857.402 8 126856637.531 9
  23953714.723    23953718.570   -13253709.168 7  29020610.470 8
 88  3 30  7 42 59.0800000  0  4G 3G13G12G 9
  21784644.697    21784649.162   -93777811.646 9 105172839.545 8
  21446748.183    21446754.128   -42285384.938 9  27563062.586 7
  21370750.313    21370755.030   -94147310.113 8 126908492.522 8
  23977225.054    23977229.657   -13130151.199 7  29116889.378 9
 88  3 30  7 43 29.0800000  0  4G 3G13G12G 9
  21778358.555    21778362.345   -93810843.558 7 105147100.407 9
  21453815.572    21453820.535   -42248251.057 8  27591998.069 8
  21383511.680    21383516.859   -94080247.574 8 126960749.023 8
  24000752.749    24000757.883   -13006521.149 8  29213224.438 8
 88  3 30  7 43 59.0800000  0  4G 3G13G12G 9
  21772102.661    21772105.752   -93843723.037 7 105121480.032 8
  21460899.484    21460902.491   -42211028.044 9  27621003.025 8
  21396372.214    21396375.729   -94012672.656 8 127013404.782 8
  24024292.451    24024294.840   -12882822.797 8  29309612.753 8
 88  3 30  7 44 29.0800000  0  4G 3G13G12G 9
  21765873.583    21765878.663   -93876450.842 8 105095977.839 8
  21468001.161    21468002.813   -42173716.445 9  27650077.016 8
  21409326.011    21409331.340   -93944587.933 8 127066457.799 9
  24047842.606    24047846.757   -12759059.490 8  29406051.687 8
 88  3 30  7 44 59.0800000  0  4G 3G13G12G 9
  21759674.070    21759679.835   -93909027.312 8 105070593.611 8
  21475117.147    21475120.590   -42136317.077 8  27679219.387 9
  21422378.361    21422384.006   -93875996.046 8 127119905.993 7
  24071406.047    24071409.532   -12635234.342 8  29502538.771 8
 88  3 30  7 45 29.0800000  0  4G 3G13G12G 9
  21753503.572    21753510.169   -93941452.963 8 105045326.850 8
  21482251.409    21482254.839   -42098830.663 9  27708429.572 9
  21435527.769    21435534.617   -93806899.132 7 127173747.736 8
  24094981.140    24094984.445   -12511350.622 7  29599071.563 7
 88  3 30  7 45 59.0800000  0  4G 3G13G12G 9
  21747364.040    21747366.915   -93973728.470 9 105020177.108 8
  21489399.362    21489404.989   -42061258.232 9  27737706.773 8
  21448772.443    21448776.941   -93737299.604 9 127227981.117 8
  24118564.040    24118569.180   -12387411.163 7  29695647.733 7
 88  3 30  7 46 29.0800000  0  4G 3G13G12G 9
  21741248.321    21741253.831   -94005854.574 8 104995143.793 8
  21496564.003    21496570.681   -42023600.486 8  27767050.462 9
  21462112.545    21462116.150   -93667200.953 8 127282603.443 7
  24142159.720    24142165.153   -12263419.641 8  29792264.481 8
 88  3 30  7 46 59.0800000  0  4G 3G13G12G 9
  21735165.083    21735169.344   -94037831.889 9 104970226.398 8
  21503747.442    21503752.121   -41985858.000 8  27796460.160 9
  21475546.356    21475549.783   -93596605.586 8 127337612.814 8
  24165763.261    24165768.941   -12139379.344 7  29888919.224 8
 88  3 30  7 47 29.0800000  0  4G 3G13G12G 9
  21729107.743    21729111.234   -94069661.267 8 104945424.294 8
  21510945.214    21510950.932   -41948031.950 9  27825935.011 9
  21489072.648    21489079.304   -93525516.333 9 127393007.025 7
  24189376.485    24189381.265   -12015293.436 7  29985609.528 8
 88  3 30  7 47 59.0800000  0  4G 3G13G12G 9
  21723079.395    21723083.343   -94101343.063 9 104920737.186 9
  21518159.582    21518163.544   -41910122.446 8  27855474.878 7
  21502695.148    21502699.334   -93453935.801 9 127448784.060 7
  24212998.036    24213002.915   -11891165.242 7  30082332.761 8
 88  3 30  7 48 29.0800000  0  4G 3G13G12G 9
  21717078.464    21717082.940   -94132877.822 7 104896164.649 7
  21525390.256    21525392.334   -41872130.275 9  27885079.175 8
  21516409.429    21516413.314   -93381866.968 8 127504941.572 8
  24236624.254    24236632.103   -11766997.701 6  30179086.642 8
 88  3 30  7 48 59.0800000  0  4G 3G13G12G 9
  21711104.347    21711108.467   -94164266.486 8 104871705.952 8
  21532634.550    21532638.312   -41834056.777 8  27914746.846 8
  21530216.545    21530220.925   -93309312.602 9 127561477.422 7
  24260260.525    24260266.543   -11642794.326 6  30275868.437 8
 88  3 30  7 49 29.0800000  0  4G 3G13G12G 9
  21705159.248    21705165.201   -94195510.050 8 104847360.308 9
  21539895.648    21539898.890   -41795903.096 9  27944476.986 9
  21544113.982    21544118.590   -93236275.836 8 127618389.190 8
  24283903.097    24283907.432   -11518558.801 7  30372675.284 8
 88  3 30  7 49 59.0800000  0  4G 3G13G12G 9
  21699242.655    21699245.745   -94226609.442 9 104823127.022 7
  21547172.126    21547175.693   -41757669.341 9  27974269.511 9
  21558106.018    21558108.615   -93162759.143 8 127675674.898 9
  24307549.440    24307553.165   -11394294.348 8  30469504.729 7
 88  3 30  7 50 29.0800000  0  4G 3G13G12G 9
  21693352.648    21693354.493   -94257564.492 8 104799006.200 8
  21554462.373    21554467.119   -41719355.771 9  28004124.233 8
  21572184.465    21572189.109   -93088764.864 7 127733332.760 9
  24331201.302    24331205.096   -11270003.401 8  30566354.803 7
 88  3 30  7 50 59.0800000  0  4G 3G13G12G 9
  21687487.854    21687491.429   -94288376.275 8 104774997.009 8
  21561766.377    21561771.845   -41680964.184 8  28034039.736 8
  21586356.188    21586360.123   -93014296.787 8 127791359.832 8
  24354855.671    24354861.645   -11145689.734 8  30663222.572 8
 88  3 30  7 51 29.0800000  0  4G 3G13G12G 9
  21681651.733    21681656.155   -94319044.954 9 104751099.350 8
  21569089.416    21569091.658   -41642494.584 9  28064016.043 8
  21600614.482    21600621.208   -92939356.884 8 127849754.541 8
  24378515.828    24378521.521   -11021356.045 7  30760105.924 8
 88  3 30  7 51 59.0800000  0  4G 3G13G12G 9
  21675843.833    21675846.953   -94349570.916 8 104727312.887 7
  21576424.383    21576427.036   -41603947.475 9  28094052.780 8
  21614966.708    21614969.870   -92863948.067 8 127908514.642 8
  24402179.239    24402183.293   -10897005.545 7  30857002.415 8
 88  3 30  7 52 29.0800000  0  4G 3G13G12G 9
  21670061.230    21670063.690   -94379955.464 8 104703636.619 7
  21583774.681    21583777.728   -41565323.583 8  28124149.316 9
  21629405.045    21629408.417   -92788073.024 8 127967638.017 8
  24425844.710    24425850.068   -10772641.635 8  30953909.352 7
 88  3 30  7 52 59.0800000  0  4G 3G13G12G 9
  21664305.958    21664311.094   -94410198.819 8 104680070.375 7
  21591136.440    21591142.773   -41526623.791 8  28154304.976 8
  21643931.558    21643935.743   -92711735.429 9 128027121.848 8
  24449512.684    24449518.455   -10648267.787 7  31050824.015 8
 88  3 30  7 53 29.0800000  0  4G 3G13G12G 9
  21658576.645    21658582.323   -94440301.906 8 104656613.424 7
  21598515.551    21598521.535   -41487849.035 8  28184519.051 9
  21658546.085    21658549.478   -92634938.238 8 128086963.790 8
  24473182.392    24473186.771   -10523887.096 6  31147743.981 7
 88  3 30  7 53 59.0800000  0  4G 3G13G12G 9
  21652877.094    21652879.279   -94470265.112 7 104633265.484 8
  21605910.057    21605913.958   -41448999.476 9  28214791.437 9
  21673246.297    21673250.783   -92557683.757 8 128147162.073 8
  24496850.809    24496854.006   -10399502.443 6  31244667.069 7
 88  3 30  7 54 29.0800000  0  4G 3G13G12G 9
  21647200.807    21647204.713   -94500089.261 9 104610025.884 9
  21613315.022    21613319.904   -41410075.579 9  28245121.744 8
  21688032.149    21688039.155   -92479974.627 8 128207714.611 9
  24520520.249    24520525.572   -10275116.953 6  31341590.802 8
 88  3 30  7 54 59.0800000  0  4G 3G13G12G 9
  21641551.308    21641554.942   -94529774.665 9 104586894.398 8
  21620735.704    21620741.938   -41371078.594 8  28275508.997 9
  21702906.068    21702912.699   -92401814.523 8 128268618.566 8
  24544190.427    24544195.009   -10150734.122 8  31438512.474 7
 88  3 30  7 55 29.0800000  0  4G 3G13G12G 9
  21635928.082    21635932.731   -94559321.931 9 104563870.565 8
  21628172.928    21628176.883   -41332008.625 9  28305953.119 8
  21717865.454    21717871.242   -92323206.524 8 128329871.557 8
  24567859.579    24567864.135   -10026356.886 7  31535429.780 8
 88  3 30  7 55 59.0800000  0  4G 3G13G12G 9
  21630332.699    21630335.691   -94588731.347 8 104540954.144 8
  21635621.116    21635624.563   -41292866.460 9  28336453.506 8
  21732910.237    21732914.252   -92244153.411 9 128391471.371 8
  24591525.052    24591530.945    -9901988.423 8  31632340.241 8
 88  3 30  7 56 29.0800000  0  4G 3G13G12G 9
  21624760.616    21624766.496   -94618004.220 8 104518144.134 9
  21643082.308    21643087.584   -41253652.833 8  28367009.585 9
  21748036.691    21748040.432   -92164658.455 8 128453415.485 8
  24615189.235    24615194.836    -9777632.095 6  31729241.283 6
 88  3 30  7 56 59.0800000  0  4G 3G13G12G 9
  21619216.661    21619221.396   -94647140.412 8 104495440.605 8
  21650558.216    21650562.004   -41214367.828 9  28397621.259 8
  21763246.938    21763251.690   -92084724.044 8 128515702.036 7
  24638851.926    24638856.223    -9653290.192 7  31826131.056 7
 88  3 30  7 57 29.0800000  0  4G 3G13G12G 9
  21613699.637    21613703.300   -94676140.555 8 104472843.102 8
  21658048.052    21658050.187   -41175012.328 8  28428287.868 9
  21778540.925    21778546.248   -92004353.038 8 128578328.783 8
  24662509.588    24662513.922    -9528966.468 7  31923006.674 6
 88  3 30  7 57 59.0800000  0  4G 3G13G12G 9
  21608205.736    21608210.201   -94705006.135 8 104450350.447 8
  21665550.075    21665552.936   -41135587.277 8  28459008.696 8
  21793916.845    21793923.127   -91923549.332 8 128641292.708 8
  24686163.960    24686167.392    -9404664.386 6  32019865.411 8
 88  3 30  7 58 29.0800000  0  4G 3G13G12G 9
  21602737.106    21602742.159   -94733737.083 9 104427962.714 8
  21673066.093    21673067.842   -41096093.218 8  28489783.319 9
  21809375.721    21809380.860   -91842315.919 8 128704591.453 7
  24709811.549    24709818.992    -9280387.131 7  32116704.781 7
 88  3 30  7 58 59.0800000  0  4G 3G13G12G 9
  21597297.553    21597300.759   -94762334.007 9 104405679.382 8
  21680591.032    21680597.324   -41056530.588 8  28520611.312 8
  21824914.868    21824921.115   -91760655.863 7 128768222.647 8
  24733455.616    24733460.553    -9156137.317 8  32213522.789 8
 88  3 30  7 59 29.0800000  0  4G 3G13G12G 9
  21591880.465    21591884.558   -94790797.907 9 104383499.740 8
  21688134.527    21688139.816   -41016899.303 8  28551492.802 8
  21840535.268    21840540.239   -91678571.982 8 128832184.084 8
  24757094.500    24757100.204    -9031918.201 8  32310316.903 8
